     2              OBSERVATION DATA    GPS                 RINEX VERSION / TYPE
ASHTORIN MIT 25 - NOV - 96 15:32                            PGM / RUN BY / DATE
                                                            COMMENT
--> THIS IS THE START OF A NEW SITE <---                    COMMENT
--> THIS IS THE START OF A NEW SITE <---                    COMMENT
Original Marker Name: GS19                                  COMMENT
Campaign Name: China Lake Nov 1996                          COMMENT
4-Character Station Name: GS19                              COMMENT
6-Character Antenna Code: ASHP12                            COMMENT
Vertical Measurement Point: TGP                             COMMENT
Vertical Offset to Rinex Ref. Point: 0.0640                 COMMENT
Radial Measurement Point: OOH                               COMMENT
Radial Offset to Rinex Ref. Point: 0.1318                   COMMENT
Antenna Height from Field Measurement: 0.5850 m             COMMENT
Additional Antenna Identification Info.:                    COMMENT
Ashtech L1/L2 Revision B (700228DE)                         COMMENT
Original XYZ: -2358942.5400 -4594200.7800 3731779.2200      COMMENT
New XYZ position is based on association with SCEC monument COMMENT
E1F4D6R5+0011. Position of that monument is believed to be  COMMENT
valid to within 1 m horizontally; vertical accuracy         COMMENT
should be no worse than 3-times this value.                 COMMENT
                                                            COMMENT
Revised Rinex header created by UCSD GPS archive for        COMMENT
GSAC on 01-Aug-2000 (2000:214) 04:25:15 GMT                 COMMENT
For assistance contact dagnew@ucsd.edu                      COMMENT
or anderson@python.ucsd.edu                                 COMMENT
                                                            COMMENT
SNORT A 1959                                                MARKER NAME
gs19                                                        MARKER NUMBER
_BT BMA                                                     OBSERVER / AGENCY
456 ASHTECH Z-XII3 1G001C7                                  REC # / TYPE / VERS
443 ASHTECH GEODETIC P                                      ANT # / TYPE
 -2415084.7300 -4592334.8302  3697983.7270                  APPROX POSITION XYZ
        0.5060        0.0000        0.0000                  ANTENNA: DELTA H/E/N
     1     1     0                                          WAVELENGTH FACT L1/2
     7    L1    L2    C1    P1    P2    D1    D2            # / TYPES OF OBSERV
    30                                                      INTERVAL
  1996    11    18    16    26    0.000000                  TIME OF FIRST OBS
  1996    11    18    22    29   60.000000                  TIME OF LAST OBS
                                                            END OF HEADER
 96 11 18 16 26  0.0000000  0  7 31 23  3  1 21 17  9                0.001165104
    -90239.556 9    -62490.21947  19408259.341    19408259.0705   19408266.0404
      1799.623        1402.304
     23951.383 9     15882.49648  19071008.590    19071008.2045   19071015.5354
      -531.730        -414.335
     24861.332 9     17395.76948  18552230.381    18552230.7535   18552237.6324
      -458.770        -357.483
   -104649.938 9    -74027.74648  17130270.901    17130270.7285   17130277.4614
      2134.249        1663.051
    -51863.418 9    -32315.96448  17459732.070    17459731.4435   17459738.1354
      1081.306         842.576
     96850.784 9     65953.71956  20073036.796           0.0005   20073045.4865
     -1912.866       -1490.545
    -11555.758 9     -8045.14455  20563543.300           0.0004          0.0005
       196.067         152.779
 96 11 18 16 26 30.0000000  3  2
GS19                                                        MARKER NAME
--> THIS IS THE START OF A NEW SITE <---                    COMMENT
 96 11 18 16 26 30.0000000  0  7 31 23  3  1 21 17  9               -0.000880268
   -143994.269 9   -104377.00447  22395954.649    22395954.5974   22395961.5234
      1784.471        1390.497
     39880.772 9     28294.97348  22071963.665    22071964.3544   22071971.3764
      -531.205        -413.926
     38820.512 9     28273.02148  21552811.218    21552811.6284   21552818.5544
      -472.559        -368.228
   -168470.511 9   -123758.05648  20116051.213    20116050.6234   20116057.3784
      2121.314        1652.972
    -84254.256 9    -57555.58848  20451492.047    20451492.2644   20451498.9804
      1078.204         840.159
    154260.271 9    110688.31446  23081886.785    23081887.5125   23081895.0684
     -1916.244       -1493.177
    -17264.722 9    -12552.46655  23560378.533           0.0004          0.0005
       183.886         143.288
 96 11 18 16 26 59.9990000  0  7 31 23  3  1 21 17  9               -0.000903828
   -197283.760 9   -145901.26957  22385813.127    22385813.9795   22385820.9135
      1768.122        1377.757
     55817.571 9     40713.22858  22074997.420    22074997.2235   22075004.0455
      -531.355        -414.043
     53207.698 9     39483.78858  21555549.771    21555549.3815   21555556.3385
      -486.511        -379.099
   -231906.450 9   -173188.65758  20103979.199    20103979.1855   20103985.9165
      2107.742        1642.396
   -116545.207 9    -82717.38558  20445347.768    20445347.5495   20445354.2275
      1074.654         837.393
    211813.290 9    155534.76456  23092841.787    23092839.3535   23092847.0405
     -1920.878       -1496.788
    -22573.921 9     -2413.32052  23559370.527           0.0005          0.0005
       169.736         132.262
 96 11 18 16 27 29.9990000  0  8 31 23  3  1 21 17  9 25            -0.000927402
   -250053.025 9   -187020.17747  22375771.900    22375772.3114   22375779.2534
      1749.853        1363.522
     71784.233 9     53154.75248  22078036.247    22078035.6774   22078042.3774
      -533.108        -415.409
     68027.193 9     51031.42048  21558369.522    21558369.4354   21558376.3854
      -501.111        -390.476
   -294905.952 9   -222279.17148  20091990.869    20091990.8464   20091997.5194
      2092.375        1630.422
   -148703.061 9   -107775.47048  20439228.406    20439228.1524   20439234.7734
      1069.228         833.165
    269534.076 9    200511.93446  23103824.871    23103823.2404   23103830.9754
     -1927.181       -1501.699
    -27410.614 9     -6182.25757  23558449.348    23558447.7905   23558454.8195
       152.778         119.048
   -320985.39218   -235856.58954  24726601.524           0.0005          0.0005
      4440.708        3460.292
 96 11 18 16 27 59.9990000  0  8 31 23  3  1 21 17  9 25            -0.000951009
   -302276.589 9   -227713.87247  22365834.396    22365834.5374   22365841.4634
      1731.207        1348.992
     87787.890 9     65625.11048  22081081.600    22081081.1394   22081087.7264
      -534.315        -416.349
     83257.789 9     62899.38448  21561267.611    21561267.7354   21561274.7134
      -514.696        -401.062
   -357455.162 9   -271018.81248  20080088.307    20080088.1364   20080094.8144
      2077.012        1618.451
   -180700.904 9   -132708.87848  20433139.441    20433139.1954   20433145.7574
      1063.622         828.796
    327440.644 9    245633.87046  23114843.340    23114842.5394   23114850.3584
     -1933.958       -1506.980
    -31736.574 9     -9553.15447  23557625.611    23557624.7925   23557631.6474
       135.109         105.280
   -454296.660 8    -21737.55652  24701231.610           0.0005          0.0005
      4446.130        3464.517
 96 11 18 16 28 29.9990000  0  8 31 23  3  1 21 17  9 25            -0.000974619
   -353930.638 9   -267963.78247  22356005.061    22356005.1084   22356012.0504
      1712.339        1334.290
    103844.434 9     78136.68248  22084137.084    22084136.6614   22084143.1744
      -536.344        -417.930
     98905.132 9     75092.08748  21564245.222    21564245.3604   21564252.3374
      -528.807        -412.057
   -419523.769 9   -319383.95948  20068277.028    20068276.8904   20068283.5404
      2060.703        1605.743
   -212528.690 9   -157509.77348  20427082.944    20427082.5874   20427089.1184
      1058.165         824.544
    385570.760 9    290930.01046  23125904.971    23125904.3674   23125912.2664
     -1941.620       -1512.951
    -35507.892 9    -12491.86247  23556907.832    23556907.1924   23556914.0074
       116.333          90.649
   -587755.429 9   -125731.57755  24675836.162           0.0004          0.0005
      4450.925        3468.253
 96 11 18 16 28 59.9990000  0  8 31 23  3  1 21 17  9 25            -0.000998225
   -405014.226 9   -307769.18847  22346284.255    22346284.2344   22346291.1794
      1692.912        1319.152
    119982.636 9     90711.88348  22087208.013    22087207.6544   22087214.1424
      -540.012        -420.788
    114996.916 9     87631.10948  21567307.288    21567307.5214   21567314.5334
      -544.469        -424.262
   -481078.625 9   -367348.77648  20056563.519    20056563.3834   20056570.0214
      2042.616        1591.649
   -244188.112 9   -182179.46748  20421058.358    20421058.0164   20421064.5114
      1052.020         819.756
    443949.497 9    336419.88146  23137014.067    23137013.4884   23137021.4134
     -1950.675       -1520.006
    -38706.310 9    -14984.14947  23556298.908    23556298.5374   23556305.3624
        96.629          75.295
   -721342.003 8   -229825.01955  24650415.243           0.0004   24650424.2415
      4454.457        3471.005
 96 11 18 16 29 29.9990000  0  8 31 23  3  1 21 17  9 25            -0.001021820
   -455529.403 9   -347131.66647  22336671.598    22336671.5294   22336678.4804
      1674.904        1305.120
    136234.861 9    103375.93148  22090300.693    22090300.3194   22090306.8254
      -543.381        -423.414
    131564.068 9    100540.54848  21570459.873    21570460.1424   21570467.1574
      -559.943        -436.319
   -542089.461 9   -414889.68248  20044953.585    20044953.4264   20044960.0664
      2025.065        1577.973
   -275658.246 9   -206701.66948  20415069.705    20415069.4584   20415075.9774
      1045.954         815.029
    502596.271 9    382118.60546  23148173.943    23148173.6324   23148181.6924
     -1958.910       -1526.423
    -41325.164 9    -17024.82746  23555800.458    23555800.1144   23555807.0264
        78.379          61.075
   -855024.695 9   -333993.31145  24624976.848    24624976.4615   24624985.9474
      4457.903        3473.691
 96 11 18 16 29 59.9980000  0  8 31 23  3  1 21 17  9 25            -0.001045404
   -505474.119 9   -386049.63547  22327167.486    22327167.3774   22327174.3774
      1655.363        1289.893
    152626.597 9    116148.68848  22093419.847    22093419.5374   22093426.0974
      -548.846        -427.672
    148628.633 9    113837.58048  21573707.189    21573707.4604   21573714.4754
      -577.202        -449.768
   -602547.670 9   -461999.96748  20033448.827    20033448.6374   20033455.2744
      2006.199        1563.272
   -306913.058 9   -231056.07648  20409122.163    20409121.8694   20409128.4554
      1038.281         809.050
    561516.956 9    428030.77146  23159386.083    23159386.0184   23159394.0404
     -1968.582       -1533.960
    -43383.912 9    -18629.06646  23555408.394    23555408.2204   23555415.2774
        59.482          46.350
   -988769.497 9   -438210.01855  24599525.821    24599526.5684   24599535.0735
      4459.357        3474.824
 96 11 18 16 30 29.9980000  0  8 31 23  3  1 21 17  9 25            -0.001068977
   -554849.414 9   -424523.89147  22317771.638    22317771.5514   22317778.5724
      1635.155        1274.147
    169182.101 9    129049.06148  22096570.253    22096569.9234   22096576.5524
      -555.760        -433.060
    166199.476 9    127529.11548  21577050.902    21577051.1444   21577058.1514
      -595.206        -463.797
   -662453.713 9   -508679.99448  20022049.094    20022048.8854   20022055.5544
      1986.615        1548.012
   -337946.518 9   -255238.00348  20403216.616    20403216.3994   20403223.0494
      1029.402         802.131
    620709.754 9    474154.96346  23170650.375    23170650.1464   23170658.1314
     -1978.487       -1541.678
    -44890.681 9    -19803.19446  23555121.303    23555121.3774   23555128.4124
        40.115          31.258
  -1122582.854 9   -542480.15946  24574061.967    24574062.7335   24574071.1104
      4460.426        3475.657
 96 11 18 16 30 59.9980000  0  8 31 23  3  1 21 17  9 25            -0.001092515
   -603601.585 9   -462512.60647  22308494.453    22308494.3714   22308501.3094
      1616.303        1259.457
    185948.150 9    142113.49448  22099760.694    22099760.4124   22099767.0824
      -560.223        -436.537
    184311.251 9    141642.15348  21580497.438    21580497.7154   21580504.7424
      -610.670        -475.847
   -721774.515 9   -554903.99248  20010760.692    20010760.5154   20010767.1894
      1969.680        1534.816
   -368690.715 9   -279194.53248  20397366.221    20397366.0084   20397372.6844
      1021.638         796.082
    680203.585 9    520513.73046  23181971.633    23181971.5374   23181979.4844
     -1986.281       -1547.751
    -45816.062 9    -20524.30646  23554945.384    23554945.3504   23554952.2874
        23.094          17.995
  -1256416.370 9   -646766.00545  24548594.165    24548595.5134   24548603.4594
      4463.202        3477.820
 96 11 18 16 31 29.9980000  0  8 31 23  3  1 21 17  9 25            -0.001116046
   -651752.845 9   -500033.07247  22299331.593    22299331.5294   22299338.4254
      1594.110        1242.164
    202861.391 9    155292.62048  22102979.161    22102978.9164   22102985.6444
      -566.731        -441.609
    202913.904 9    156137.69948  21584037.363    21584037.6924   21584044.7444
      -629.049        -490.168
   -780562.927 9   -600713.13548  19999573.566    19999573.4564   19999580.1174
      1950.047        1519.517
   -399160.350 9   -302937.12148  20391568.161    20391567.8844   20391574.5474
      1010.226         787.189
    739956.255 9    567074.17846  23193342.102    23193342.1304   23193350.1194
     -1996.777       -1555.930
    -46204.005 9    -20826.61846  23554871.882    23554871.6564   23554878.4484
         3.347           2.608
  -1390307.197 9   -751096.52746  24523116.089    24523116.9114   24523124.7854
      4463.355        3477.939
 96 11 18 16 31 59.9980000  0  8 31 23  3  1 21 17  9 25            -0.001139543
   -699252.689 9   -537045.93947  22290292.774    22290292.6254   22290299.5014
      1572.146        1225.049
    219934.982 9    168596.69148  22106228.202    22106227.9494   22106234.7584
      -571.763        -445.530
    222035.956 9    171037.97048  21587676.228    21587676.5204   21587683.6134
      -646.075        -503.435
   -838791.840 9   -646086.30448  19988493.002    19988492.8874   19988499.5354
      1931.397        1504.985
   -429325.644 9   -326442.55148  20385827.933    20385827.6744   20385834.2974
      1000.549         779.649
    799997.531 9    613859.52546  23204767.400    23204767.5554   23204775.5764
     -2006.354       -1563.393
    -46027.808 9    -20689.34146  23554905.365    23554905.2354   23554911.9154
       -15.596         -12.153
  -1524233.133 9   -855454.37646  24497630.907    24497631.6914   24497639.4444
      4464.836        3479.093
 96 11 18 16 32 29.9980000  0  8 31 23  3  1 21 17  9 25            -0.001162993
   -746083.698 9   -573537.64047  22281381.156    22281380.9774   22281387.8444
      1549.996        1207.789
    237159.546 9    182018.39948  22109505.914    22109505.7694   22109512.5664
      -576.228        -449.009
    241679.586 9    186344.66048  21591414.326    21591414.6334   21591421.7454
      -663.393        -516.930
   -896448.954 9   -691013.91748  19977521.223    19977521.1084   19977527.7874
      1912.560        1490.306
   -459195.448 9   -349717.72948  20380143.936    20380143.6644   20380150.2824
       991.034         772.234
    860341.673 9    660880.87046  23216250.572    23216250.7534   23216258.7644
     -2016.389       -1571.212
    -45266.235 9    -20095.91846  23555050.279    23555050.0744   23555056.8074
       -34.983         -27.259
  -1658199.448 9   -959843.71146  24472138.096    24472138.6564   24472146.4304
      4466.306        3480.238
 96 11 18 16 32 59.9980000  0  8 31 23  3  1 21 17  9 25            -0.001186408
   -792267.880 9   -609525.31347  22272592.517    22272592.4234   22272599.2824
      1527.881        1190.557
    254488.910 9    195521.76848  22112803.694    22112803.5194   22112810.3294
      -580.102        -452.028
    261825.641 9    202042.85448  21595247.970    21595248.3394   21595255.4694
      -680.752        -530.456
   -953560.965 9   -735516.77048  19966653.168    19966653.0574   19966659.7834
      1893.838        1475.718
   -488808.193 9   -372792.59048  20374508.794    20374508.5564   20374515.2064
       982.273         765.408
    920968.108 9    708122.17846  23227787.490    23227787.5654   23227795.6774
     -2026.347       -1578.972
    -43951.093 9    -19071.14546  23555300.503    23555300.3064   23555307.0624
       -53.810         -41.930
  -1792219.746 9  -1064275.08646  24446635.175    24446635.4114   24446643.0454
      4467.323        3481.031
 96 11 18 16 33 29.9980000  0  8 31 23  3  1 21 17  9 25            -0.001209768
   -837805.022 9   -645008.79947  22263926.994    22263926.9814   22263933.8674
      1507.275        1174.500
    271930.374 9    209112.48648  22116122.775    22116122.5384   22116129.3984
      -583.463        -454.646
    282490.610 9    218145.39748  21599180.457    21599180.8184   21599187.9204
      -697.398        -543.427
  -1010112.934 9   -779583.23048  19955891.693    19955891.5664   19955898.3204
      1875.680        1461.569
   -518176.472 9   -395676.96848  20368920.149    20368919.9684   20368926.6324
       975.172         759.874
    981889.064 9    755592.98046  23239380.508    23239380.4734   23239388.6384
     -2035.655       -1586.225
    -42073.130 9    -17607.81346  23555657.762    23555657.6784   23555664.4744
       -72.001         -56.105
  -1926276.950 9  -1168735.22146  24421125.014    24421125.1784   24421132.7024
      4469.106        3482.420
 96 11 18 16 33 59.9980000  0  8 31 23  3  1 21 17  9 25            -0.001233080
   -882687.565 9   -679982.20347  22255386.204    22255386.1434   22255393.0454
      1485.553        1157.574
    289511.065 9    222811.68448  22119468.233    22119468.0554   22119474.9714
      -588.107        -458.265
    303676.099 9    234653.54648  21603212.040    21603212.3244   21603219.4534
      -714.486        -556.742
  -1066092.692 9   -823203.80948  19945239.090    19945238.9814   19945245.7574
      1856.796        1446.854
   -547312.951 9   -418380.72048  20363375.687    20363375.5004   20363382.1804
       967.700         754.052
   1043119.373 9    803304.82946  23251032.319    23251032.2494   23251040.5154
     -2045.834       -1594.156
    -39611.177 9    -15689.42146  23556126.521    23556126.3244   23556133.0944
       -91.646         -71.412
  -2060352.313 9  -1273209.48446  24395611.212    24395611.6354   24395619.0194
      4469.799        3482.960
 96 11 18 16 34 29.9980000  0  8 31 23  3  1 21 17  9 25            -0.001256342
   -926932.681 9   -714458.91247  22246966.648    22246966.5914   22246973.5404
      1464.494        1141.164
    307228.658 9    236617.56848  22122839.741    22122839.5994   22122846.5804
      -592.477        -461.670
    325373.661 9    251560.70948  21607341.002    21607341.2644   21607348.4144
      -731.455        -569.965
  -1121510.806 9   -866386.74748  19934693.420    19934693.2924   19934700.0864
      1838.377        1432.502
   -576223.399 9   -440908.33948  20357874.186    20357874.0134   20357880.6934
       960.300         748.286
   1104649.674 9    851250.44946  23262741.383    23262741.2434   23262749.4274
     -2055.431       -1601.635
    -36566.736 9    -13317.13246  23556705.842    23556705.6554   23556712.4924
      -110.703         -86.262
  -2194444.571 9  -1377696.91046  24370093.963    24370094.5674   24370102.0094
      4470.257        3483.317
 96 11 18 16 34 59.9980000  0  8 31 23  3  1 21 17  9 25            -0.001279552
   -970539.792 9   -748438.47747  22238668.637    22238668.5074   22238675.4274
      1442.674        1124.162
    325092.095 9    250537.09448  22126239.021    22126238.8604   22126245.9324
      -598.351        -466.248
    347587.263 9    268869.97948  21611568.134    21611568.4154   21611575.5524
      -749.188        -583.783
  -1176367.540 9   -909132.24548  19924254.580    19924254.4214   19924261.1994
      1818.931        1417.349
   -604900.740 9   -463254.32448  20352417.131    20352416.9254   20352423.5614
       951.631         741.531
   1166473.708 9    899424.94446  23274506.166    23274506.0844   23274514.2214
     -2065.946       -1609.828
    -32942.132 9    -10492.76646  23557395.511    23557395.3814   23557402.3194
      -130.844        -101.956
  -2328544.448 9  -1482190.24646  24344575.651    24344576.1174   24344583.6474
      4470.043        3483.150
 96 11 18 16 35 29.9980000  0  8 31 23  3  1 21 17  9 25            -0.001302705
  -1013496.679 9   -781911.37347  22230494.238    22230494.1254   22230501.0354
      1421.055        1107.316
    343129.922 9    264592.50848  22129671.521    22129671.3084   22129678.4814
      -604.075        -470.708
    370323.460 9    286586.45848  21615894.748    21615895.0324   21615902.1664
      -766.279        -597.101
  -1230642.650 9   -951424.53348  19913926.342    19913926.2294   19913932.9774
      1799.564        1402.258
   -633312.909 9   -485393.67948  20347010.473    20347010.2874   20347016.9004
       942.628         734.515
   1228609.021 9    947841.98146  23286330.076    23286330.0634   23286338.2204
     -2076.169       -1617.794
    -28711.019 9     -7195.77946  23558200.537    23558200.4594   23558207.5754
      -150.922        -117.602
  -2462644.110 9  -1586683.40346  24319057.115    24319057.6714   24319065.3314
      4470.269        3483.326
 96 11 18 16 35 59.9980000  0  8 31 23  3  1 21 17  9 25            -0.001325805
  -1055796.613 9   -814872.35847  22222444.839    22222444.7724   22222451.6704
      1399.634        1090.624
    361347.455 9    278787.94648  22133138.199    22133137.9884   22133145.2574
      -609.837        -475.198
    393573.143 9    304703.05848  21620319.034    21620319.3364   21620326.4864
      -783.168        -610.261
  -1284330.759 9   -993259.41648  19903709.852    19903709.7244   19903716.4444
      1780.200        1387.169
   -661446.685 9   -507316.10648  20341656.869    20341656.6484   20341663.2324
       933.489         727.394
   1291048.484 9    996496.02746  23298211.776    23298212.0604   23298220.0924
     -2085.867       -1625.351
    -23880.268 9     -3431.55646  23559119.544    23559119.6824   23559126.9404
      -170.419        -132.794
  -2596751.233 8  -1691182.37146  24293537.094    24293537.7674   24293545.6264
      4470.827        3483.761
 96 11 18 16 36 29.9980000  0  8 31 23  3  1 21 17  9 25            -0.001348871
  -1097464.068 9   -847340.49347  22214515.862    22214515.7254   22214522.5894
      1378.080        1073.829
    379737.398 9    293117.73448  22136637.769    22136637.5174   22136644.7864
      -616.103        -480.080
    417320.591 9    323207.53248  21624838.119    21624838.3594   21624845.5294
      -799.858        -623.266
  -1337434.414 9  -1034638.88048  19893604.660    19893604.4564   19893611.1244
      1760.084        1371.494
   -689304.095 9   -529023.17748  20336355.765    20336355.5924   20336362.1444
       923.715         719.778
   1353776.863 9   1045375.19446  23310149.081    23310149.0554   23310156.9984
     -2095.905       -1633.173
    -18472.566 9       782.23546  23560148.595    23560148.7394   23560156.0884
      -190.104        -148.133
  -2730881.907 8  -1795699.67146  24268012.728    24268013.5244   24268021.4984
      4471.031        3483.920
 96 11 18 16 36 59.9980000  0  8 31 23  3  1 21 17  9 25            -0.001371898
  -1138486.695 9   -879306.17047  22206709.569    22206709.3884   22206716.2604
      1357.747        1057.985
    398319.501 9    307597.25148  22140173.897    22140173.6184   22140180.9134
      -621.614        -484.375
    441563.048 9    342097.72248  21629451.392    21629451.5994   21629458.7804
      -815.174        -635.201
  -1389927.388 9  -1075542.49848  19883615.551    19883615.4114   19883622.0024
      1740.573        1356.291
   -716861.542 9   -550496.51948  20331111.836    20331111.6274   20331118.1664
       914.543         712.631
   1416812.059 9   1094493.42446  23322144.642    23322144.3884   23322152.2494
     -2105.365       -1640.544
    -12465.950 9      5462.72046  23561291.612    23561291.8214   23561299.1854
      -209.191        -163.006
  -2865005.331 8  -1900211.34746  24242489.652    24242490.5234   24242498.6404
      4471.602        3484.365
 96 11 18 16 37 29.9980000  0  8 31 23  3  1 21 17  9 25            -0.001394894
  -1178871.856 9   -910775.12547  22199024.563    22199024.3454   22199031.2394
      1335.188        1040.406
    417085.238 9    322219.87248  22143744.986    22143744.6594   22143751.9434
      -628.817        -489.987
    466282.201 9    361359.36248  21634155.407    21634155.5664   21634162.7314
      -832.247        -648.504
  -1441810.361 9  -1115970.79348  19873742.603    19873742.4604   19873749.0004
      1718.875        1339.383
   -744123.868 9   -571739.89748  20325924.096    20325923.8334   20325930.3484
       903.625         704.123
   1480157.610 8   1143853.50846  23334198.739    23334198.6854   23334206.6244
     -2117.102       -1649.690
     -5864.574 9     10606.65646  23562547.934    23562548.0994   23562555.3734
      -230.212        -179.386
  -2999116.971 8  -2004713.83546  24216968.955    24216969.9324   24216978.0574
      4469.697        3482.881
 96 11 18 16 37 59.9980000  0  8 31 23  3  1 21 17  9 25            -0.001417864
  -1218633.590 9   -941758.29347  22191458.206    22191457.9694   22191464.8584
      1315.095        1024.749
    436015.623 9    336970.78548  22147347.366    22147347.0694   22147354.2924
      -633.548        -493.674
    491469.991 9    380986.17548  21638948.490    21638948.6744   21638955.8134
      -847.460        -660.358
  -1493088.854 9  -1155928.06148  19863984.686    19863984.5244   19863991.0164
      1699.414        1324.219
   -771115.747 9   -592772.53848  20320787.710    20320787.4584   20320793.9924
       895.328         697.658
   1543805.772 8   1193449.39146  23346310.369    23346310.3744   23346318.4674
     -2126.702       -1657.170
      1322.030 9     16206.61446  23563915.305    23563915.6804   23563922.9204
      -249.419        -194.352
  -3133219.582 8  -2109209.28446  24191450.268    24191451.0154   24191459.2144
      4469.857        3483.005
 96 11 18 16 38 29.9980000  0  8 31 23  3  1 21 17  9 25            -0.001440801
  -1257771.619 9   -972255.45247  22184010.542    22184010.2874   22184017.1314
      1293.673        1008.057
    455095.289 9    351838.02848  22150978.126    22150977.8904   22150985.0284
      -638.547        -497.569
    517128.440 9    400979.73548  21643831.212    21643831.3684   21643838.4974
      -863.498        -672.856
  -1543776.098 9  -1195424.61248  19854339.188    19854339.0604   19854345.5804
      1679.632        1308.804
   -797839.066 9   -613595.90648  20315702.401    20315702.1704   20315708.7624
       886.101         690.468
   1607758.667 8   1243282.72146  23358480.140    23358480.2304   23358488.2744
     -2136.823       -1665.057
      9101.251 9     22268.36346  23565395.650    23565395.9994   23565403.2034
      -269.331        -209.868
  -3267301.554 8  -2213688.68446  24165935.813    24165936.0704   24165944.2494
      4468.617        3482.039
 96 11 18 16 38 59.9980000  0  8 31 23  3  1 21 17  9 25            -0.001463717
  -1296307.919 9  -1002283.74747  22176677.301    22176677.0704   22176683.9394
      1274.457         993.083
    474276.573 9    366784.44848  22154628.249    22154628.0254   22154635.0724
      -641.089        -499.550
    543240.900 9    421327.06548  21648800.253    21648800.4504   21648807.5854
      -878.167        -684.286
  -1593921.804 9  -1234499.19048  19844796.756    19844796.6374   19844803.2314
      1662.590        1295.525
   -824336.100 9   -634242.94748  20310660.136    20310659.9234   20310666.5604
       879.548         685.362
   1671963.733 8   1293312.55846  23370698.161    23370697.9984   23370706.0624
     -2144.176       -1670.786
     17427.011 9     28755.95246  23566979.985    23566980.4194   23566987.4954
      -286.389        -223.160
  -3401391.460 8  -2318174.24046  24140419.549    24140419.5684   24140427.7954
      4470.060        3483.164
 96 11 18 16 39 29.9980000  0  8 31 23  3  1 21 17  9 25            -0.001486589
  -1334198.736 9  -1031809.06647  22169466.912    22169466.6994   22169473.5724
      1252.814         976.219
    493599.808 9    381841.48548  22158305.350    22158305.2144   22158312.1744
      -645.944        -503.333
    569861.686 9    442070.49848  21653866.018    21653866.2464   21653873.3724
      -895.404        -697.717
  -1643493.727 9  -1273126.66248  19835363.446    19835363.3614   19835370.0394
      1643.373        1280.550
   -850570.567 9   -654685.40248  20305667.942    20305667.7024   20305674.3254
       870.474         678.291
   1736438.783 8   1343552.76846  23382967.381    23382967.1694   23382975.1934
     -2152.952       -1677.625
     26323.141 9     35687.99146  23568672.991    23568673.3064   23568680.2454
      -305.512        -238.061
  -3535474.905 8  -2422654.78046  24114903.903    24114904.3044   24114912.4554
      4469.912        3483.048
 96 11 18 16 39 59.9980000  0  8 31 23  3  1 21 17  9 25            -0.001509425
  -1371459.481 9  -1060843.41747  22162376.460    22162376.2164   22162383.1014
      1231.770         959.821
    513050.004 9    396997.45048  22162006.696    22162006.5624   22162013.4704
      -650.153        -506.613
    596983.838 9    463204.60448  21659027.260    21659027.4904   21659034.5724
      -911.957        -710.616
  -1692513.242 9  -1311323.68548  19826035.333    19826035.2764   19826041.9624
      1625.309        1266.475
   -876543.334 9   -674923.93148  20300725.558    20300725.3084   20300731.8644
       861.640         671.408
   1801146.945 9   1393974.63046  23395280.612    23395280.8134   23395288.8084
     -2160.330       -1683.374
     35777.904 9     43055.32646  23570472.314    23570472.5894   23570479.3614
      -324.061        -252.515
  -3669566.777 8  -2527141.85746  24089386.999    24089387.2594   24089395.5204
      4470.142        3483.227
 96 11 18 16 40 29.9980000  0  8 31 23  3  1 21 17  9 25            -0.001532221
  -1408086.029 9  -1089383.59047  22155406.649    22155406.4054   22155413.3004
      1211.368         943.923
    532635.658 9    412258.97648  22165733.775    22165733.6604   22165740.5604
      -654.227        -509.787
    624596.314 9    484720.79248  21664281.851    21664282.0424   21664289.0674
      -927.520        -722.743
  -1740992.880 9  -1349100.01948  19816810.019    19816809.9394   19816816.6324
      1607.821        1252.848
   -902250.816 9   -694955.74348  20295833.646    20295833.3804   20295839.8664
       853.649         665.181
   1866073.664 9   1444566.79246  23407636.138    23407636.1784   23407643.9464
     -2166.704       -1688.341
     45784.512 9     50852.68746  23572376.699    23572376.9654   23572383.5184
      -341.643        -266.215
  -3803665.734 8  -2631634.47946  24063868.435    24063868.8424   24063877.3484
      4471.164        3484.024
 96 11 18 16 40 59.9980000  0  8 31 23  3  1 21 17  9 25            -0.001554993
  -1444102.596 9  -1117448.45247  22148552.899    22148552.6684   22148559.5734
      1190.282         927.492
    552353.519 9    427623.50948  22169486.088    22169485.9264   22169492.8184
      -659.831        -514.154
    652681.042 9    506604.96648  21669626.231    21669626.4204   21669633.4514
      -943.995        -735.581
  -1788928.727 9  -1386452.62648  19807688.167    19807688.0754   19807694.7544
      1588.413        1237.724
   -927711.522 9   -714795.27148  20290988.593    20290988.3894   20290994.8204
       844.073         657.719
   1931210.713 9   1495322.83646  23420031.489    23420031.5344   23420039.2594
     -2175.338       -1695.069
     56336.571 9     59075.06146  23574384.684    23574384.9964   23574391.4604
      -361.289        -281.524
  -3937798.567 8  -2736153.49046  24038343.924    24038344.0964   24038352.6404
      4471.438        3484.237
 96 11 18 16 41 29.9980000  0  8 31 23  3  1 21 17  9 25            -0.001577726
  -1479493.258 9  -1145025.59047  22141818.334    22141818.0164   22141824.9684
      1169.741         911.486
    572240.762 9    443120.03248  22173270.493    22173270.4074   22173277.2694
      -665.316        -518.428
    681245.939 9    528863.29448  21675061.954    21675062.1714   21675069.1864
      -959.695        -747.814
  -1836288.620 9  -1423356.43448  19798675.925    19798675.8054   19798682.4624
      1569.428        1222.931
   -952884.422 9   -734410.53048  20286198.373    20286198.1904   20286204.5754
       834.723         650.433
   1996617.652 9   1546289.21246  23432478.225    23432478.2324   23432485.8934
     -2184.638       -1702.315
     67478.641 9     67757.17446  23576504.817    23576505.1754   23576511.6504
      -380.914        -296.816
  -4071932.128 8  -2840673.05846  24012818.840    24012819.1304   24012827.8314
      4471.249        3484.090
 96 11 18 16 41 59.9980000  0  9 31 23  3  1 21 17  9 25 15         -0.001600425
  -1514278.798 9  -1172131.20547  22135198.781    22135198.5424   22135205.4984
      1149.086         895.392
    592281.539 9    458736.19348  22177084.184    22177084.1004   22177090.9454
      -670.935        -522.806
    710263.086 9    551474.02448  21680583.770    21680583.9744   21680590.9914
      -974.868        -759.637
  -1883089.975 9  -1459825.01548  19789769.959    19789769.8174   19789776.4364
      1550.621        1208.276
   -977797.390 9   -753823.23848  20281457.556    20281457.3964   20281463.8154
       826.220         643.808
   2062299.807 9   1597470.02546  23444977.380    23444977.2824   23444984.7814
     -2194.332       -1709.869
     79193.827 9     76885.86546  23578734.396    23578734.4964   23578740.9984
      -400.102        -311.768
  -4206064.076 8  -2945191.38846  23987294.340    23987294.7284   23987303.3284
      4470.895        3483.814
  -2090341.31018  -1614557.14355  24491452.208    24491451.9415   24491459.9715
      4762.815        3711.284
 96 11 18 16 42 29.9980000  0  9 31 23  3  1 21 17  9 25 15         -0.001623101
  -1548475.175 9  -1198777.73147  22128691.363    22128691.1804   22128698.1434
      1128.997         879.738
    612465.480 9    474463.90648  22180925.150    22180925.0484   22180931.8554
      -676.331        -527.011
    739706.733 9    574417.09048  21686186.674    21686186.9294   21686193.9624
      -989.910        -771.358
  -1929355.569 9  -1495876.11748  19780965.827    19780965.7454   19780972.3574
      1531.949        1193.726
  -1002497.954 9   -773070.43848  20276757.152    20276757.0414   20276763.5254
       818.676         637.929
   2128246.564 9   1648857.02346  23457526.284    23457526.5574   23457534.2054
     -2203.847       -1717.283
     91448.780 9     86435.16446  23581066.343    23581066.5444   23581073.1704
      -418.653        -326.223
  -4340221.889 8  -3049729.86846  23961764.952    23961765.3764   23961773.8864
      4471.217        3484.065
  -2233235.128 8  -1725902.87745  24464259.853    24464260.0224   24464268.4454
      4761.699        3710.415
 96 11 18 16 42 59.9980000  0  9 31 23  3  1 21 17  9 25 15         -0.001645742
  -1582066.084 9  -1224952.46647  22122299.186    22122299.0524   22122306.0294
      1110.241         865.123
    632814.298 9    490320.09348  22184797.428    22184797.3344   22184804.1854
      -680.339        -530.134
    769613.036 9    597720.66248  21691877.611    21691877.9144   21691884.9544
     -1003.783        -782.168
  -1975052.565 9  -1531484.15648  19772269.908    19772269.8764   19772276.4894
      1514.713        1180.296
  -1026957.618 9   -792129.92148  20272102.630    20272102.5154   20272109.0714
       811.854         632.614
   2194487.953 9   1700473.61546  23470131.823    23470131.9134   23470139.6824
     -2212.236       -1723.820
    104262.793 9     96420.09546  23583504.665    23583504.9364   23583511.7534
      -435.584        -339.416
  -4474377.247 8  -3154266.42746  23936236.442    23936236.3864   23936245.0214
      4472.312        3484.918
  -2376093.184 8  -1837220.74645  24437075.449    24437075.9724   24437082.5064
      4761.975        3710.630
 96 11 18 16 43 29.9980000  0  9 31 23  3  1 21 17  9 25 15         -0.001668351
  -1615059.732 9  -1250661.80248  22116020.706    22116020.5824   22116027.5924
      1088.939         848.524
    653316.318 9    506295.66448  22188698.826    22188698.7824   22188705.6504
      -686.590        -535.005
    799959.132 9    621366.93948  21697652.260    21697652.6134   21697659.6774
     -1019.522        -794.433
  -2020217.775 9  -1566677.81248  19763675.260    19763675.1994   19763681.8404
      1495.922        1165.654
  -1051191.515 9   -811013.48148  20267491.068    20267490.9434   20267497.5424
       803.447         626.062
   2260995.840 9   1752297.86746  23482787.982    23482788.1074   23482795.9434
     -2221.735       -1731.222
    117600.307 9    106812.94746  23586042.571    23586042.8764   23586049.8694
      -453.857        -353.655
  -4608529.043 8  -3258800.23446  23910708.211    23910708.1824   23910716.7704
      4470.978        3483.879
  -2518932.659 8  -1948524.16745  24409893.583    24409894.4374   24409903.4154
      4760.273        3709.304
 96 11 18 16 43 59.9980000  0  9 31 23  3  1 21 17  9 25 15         -0.001690909
  -1647408.154 9  -1275868.36647  22109864.993    22109864.8944   22109871.9084
      1068.062         832.256
    673998.446 9    522411.57348  22192634.556    22192634.4664   22192641.3834
      -691.723        -539.005
    830768.537 9    645374.23248  21703515.116    21703515.4764   21703522.5474
     -1034.007        -805.720
  -2064817.641 9  -1601430.94448  19755188.147    19755188.1284   19755194.7734
      1478.048        1151.726
  -1075176.046 9   -829702.73048  20262927.010    20262926.8594   20262933.4364
       795.877         620.164
   2327773.936 9   1804332.67646  23495495.580    23495495.7054   23495503.6274
     -2229.518       -1737.287
    131485.000 9    117632.16746  23588684.505    23588684.9544   23588692.1514
      -471.401        -367.325
  -4742649.938 8  -3363309.97246  23885186.120    23885185.8064   23885194.2384
      4470.860        3483.787
  -2661722.808 8  -2059789.19145  24382722.079    24382722.4644   24382730.8334
      4759.581        3708.764
 96 11 18 16 44 29.9980000  0  9 31 23  3  1 21 17  9 25 15         -0.001713430
  -1679134.124 9  -1300589.89747  22103827.759    22103827.6494   22103834.6744
      1048.149         816.739
    694829.130 9    538643.24448  22196598.596    22196598.4104   22196605.3854
      -695.757        -542.148
    862022.398 9    669727.85848  21709462.534    21709462.9084   21709469.9914
     -1048.435        -816.962
  -2108881.112 9  -1635766.09948  19746803.127    19746803.1144   19746809.7764
      1460.567        1138.104
  -1098920.013 9   -848204.52648  20258408.701    20258408.5324   20258415.0984
       788.066         614.077
   2394787.308 9   1856550.79846  23508247.804    23508247.9364   23508256.0964
     -2236.804       -1742.964
    145899.700 9    128864.35546  23591427.809    23591427.9294   23591435.3424
      -488.534        -380.676
  -4876765.667 8  -3467815.67846  23859664.639    23859664.4494   23859672.6924
      4471.216        3484.064
  -2804488.064 8  -2171034.86545  24355554.960    24355555.0274   24355563.3684
      4759.219        3708.482
 96 11 18 16 44 59.9980000  0  9 31 23  3  1 21 17  9 25 15         -0.001735924
  -1710252.850 9  -1324838.25247  22097906.027    22097905.9134   22097912.9714
      1027.555         800.692
    715791.904 9    554977.83848  22200587.670    22200587.5054   22200594.5154
      -700.363        -545.737
    893714.449 9    694422.92448  21715493.290    21715493.7014   21715500.8284
     -1062.909        -828.241
  -2152410.027 9  -1669684.72548  19738519.919    19738519.8624   19738526.5154
      1442.809        1124.267
  -1122411.692 9   -866509.73648  20253938.371    20253938.2194   20253944.7464
       779.432         607.350
   2462026.178 9   1908944.65246  23521042.798    23521043.0284   23521051.3214
     -2244.478       -1748.944
    160843.317 9    140508.71946  23594271.262    23594271.6404   23594279.1114
      -506.407        -394.603
  -5010874.058 8  -3572315.65746  23834144.237    23834144.3624   23834152.6294
      4470.705        3483.666
  -2947230.911 8  -2282263.07345  24328392.247    24328391.9114   24328400.1054
      4758.290        3707.758
 96 11 18 16 45 29.9980000  0  9 31 23  3  1 21 17  9 25 15         -0.001758364
  -1740723.228 9  -1348581.40347  22092107.749    22092107.5724   22092114.6214
      1005.696         783.659
    736912.725 9    571435.59347  22204606.877    22204606.6754   22204613.7384
      -705.519        -549.755
    925862.547 9    719473.36048  21721610.909    21721611.3074   21721618.4554
     -1078.255        -840.199
  -2195379.566 9  -1703167.46748  19730343.095    19730343.0614   19730349.7084
      1423.763        1109.426
  -1145619.931 9   -884594.07948  20249522.054    20249521.8734   20249528.3574
       769.846         599.880
   2529525.760 9   1961541.64446  23533887.769    23533887.8054   23533896.1914
     -2253.305       -1755.822
    176353.881 9    152594.85146  23597222.828    23597223.1454   23597230.8384
      -525.557        -409.525
  -5144943.395 9  -3676785.23446  23808631.471    23808631.7564   23808640.0664
      4469.476        3482.709
  -3089914.848 8  -2393445.36645  24301240.274    24301240.1384   24301248.0694
      4756.145        3706.087
 96 11 18 16 45 59.9980000  0  9 31 23  3  1 21 17  9 25 15         -0.001780772
  -1770569.021 9  -1371837.85947  22086428.261    22086428.1164   22086435.1294
       984.626         767.241
    758152.535 9    587986.05947  22208648.523    22208648.4994   22208655.5824
      -709.857        -553.135
    958445.560 9    744862.68848  21727811.342    21727811.6754   21727818.8774
     -1093.275        -851.903
  -2237803.511 9  -1736225.07648  19722270.123    19722270.1134   19722276.7064
      1405.323        1095.057
  -1168570.758 9   -902477.84448  20245154.686    20245154.5174   20245160.9784
       760.887         592.899
   2597261.538 9   2014322.70246  23546777.429    23546777.5754   23546785.9604
     -2261.765       -1762.414
    192415.101 9    165110.06946  23600279.066    23600279.4804   23600287.2414
      -544.494        -424.281
  -5279006.940 9  -3781250.32546  23783119.788    23783120.3314   23783128.4714
      4468.659        3482.072
  -3232562.058 8  -2504599.01345  24274094.972    24274094.9014   24274103.0434
      4754.359        3704.695
 96 11 18 16 46 29.9980000  0  9 31 23  3  1 21 17  9 25 15         -0.001803137
  -1799790.475 9  -1394607.82647  22080867.664    22080867.4764   22080874.4634
       963.901         751.092
    779523.301 9    604638.56047  22212715.226    22212715.2674   22212722.3514
      -714.268        -556.572
    991476.719 9    770601.22348  21734096.999    21734097.3354   21734104.5584
     -1108.000        -863.377
  -2279679.678 9  -1768855.84848  19714301.372    19714301.3824   19714307.9334
      1387.003        1080.782
  -1191250.356 9   -920150.26548  20240838.938    20240838.7754   20240845.2474
       751.747         585.777
   2665256.231 9   2067305.49746  23559716.386    23559716.6274   23559724.9694
     -2270.406       -1769.148
    209039.315 9    178063.99146  23603442.642    23603442.9294   23603450.7434
      -563.073        -438.758
  -5413050.406 9  -3885699.76346  23757612.059    23757612.7194   23757620.6704
      4468.022        3481.576
  -3375154.155 8  -2615709.72145  24246960.708    24246960.5574   24246968.5194
      4752.393        3703.163
 96 11 18 16 46 59.9980000  0  9 31 23  3  1 21 17  9 25 15         -0.001825494
  -1828438.611 9  -1416931.04847  22075416.038    22075415.9034   22075422.8824
       944.151         735.702
    800979.884 9    621357.93947  22216798.220    22216798.3724   22216805.4764
      -717.789        -559.316
   1024880.755 9    796630.31048  21740453.646    21740453.9394   21740461.1584
     -1120.543        -873.150
  -2321062.762 9  -1801102.40148  19706426.398    19706426.4344   19706432.9654
      1370.192        1067.682
  -1213707.416 9   -937649.27748  20236565.518    20236565.3714   20236571.8474
       743.735         579.534
   2733454.266 9   2120446.75946  23572694.290    23572694.4234   23572702.5194
     -2277.806       -1774.914
    226165.791 9    191409.28546  23606701.781    23606702.0414   23606709.7384
      -580.239        -452.134
  -5547120.906 9  -3990170.25546  23732099.431    23732099.8994   23732107.9204
      4468.394        3481.865
  -3517740.271 8  -2726815.74045  24219827.204    24219827.4524   24219835.3444
      4751.696        3702.620
 96 11 18 16 47 29.9980000  0  9 31 23  3  1 21 17  9 25 15         -0.001847816
  -1856459.901 9  -1438765.81247  22070083.792    22070083.6094   22070090.6504
       923.599         719.688
    822571.375 9    638182.43647  22220907.129    22220907.1874   22220914.2394
      -722.093        -562.670
   1058691.662 9    822976.43148  21746887.659    21746887.9434   21746895.2264
     -1133.879        -883.542
  -2361901.086 9  -1832924.46148  19698655.107    19698655.1214   19698661.7004
      1352.051        1053.546
  -1235887.346 9   -954932.33348  20232344.790    20232344.6484   20232351.1484
       734.727         572.514
   2801908.216 9   2173787.42746  23585720.529    23585720.8284   23585728.7944
     -2285.985       -1781.287
    243833.334 9    205176.17746  23610063.778    23610064.1604   23610071.7784
      -597.940        -465.927
  -5681170.509 9  -4094624.49246  23706590.796    23706591.1144   23706599.2054
      4467.976        3481.540
  -3660269.896 9  -2837877.77845  24192704.851    24192704.8014   24192713.0354
      4749.978        3701.282
 96 11 18 16 47 59.9980000  0  9 31 23  3  1 21 17  9 25 15         -0.001870125
  -1883894.058 9  -1460143.08947  22064863.188    22064863.0504   22064870.1574
       903.917         704.351
    844278.084 9    655096.71147  22225038.043    22225037.9494   22225044.9654
      -726.518        -566.118
   1092878.153 9    849615.21648  21753393.077    21753393.4504   21753400.7544
     -1146.524        -893.395
  -2402226.470 9  -1864346.82548  19690981.393    19690981.4374   19690988.0744
      1334.850        1040.143
  -1257829.499 9   -972030.11148  20228169.246    20228169.1434   20228175.6634
       726.706         566.264
   2870572.196 9   2227291.75746  23598787.113    23598787.2084   23598795.0464
     -2293.098       -1786.830
    262005.396 9    219336.19846  23613521.957    23613522.2784   23613529.7664
      -614.877        -479.125
  -5815227.703 9  -4199084.64646  23681080.360    23681080.8784   23681088.9954
      4467.680        3481.309
  -3802774.336 9  -2948920.20545  24165587.125    24165586.9594   24165595.1634
      4748.881        3700.427
 96 11 18 16 48 29.9980000  0  9 31 23  3  1 21 17  9 25 15         -0.001892405
  -1910715.363 9  -1481042.81947  22059759.283    22059759.1304   22059766.2554
       883.639         688.550
    866145.417 9    672136.14047  22229199.521    22229199.2884   22229206.2394
      -731.784        -570.221
   1127460.569 9    876562.51548  21759973.963    21759974.3004   21759981.6214
     -1159.680        -903.647
  -2442002.960 9  -1895341.48148  19683412.183    19683412.2184   19683418.9094
      1316.172        1025.589
  -1279506.846 9   -988921.54748  20224044.144    20224044.0154   20224050.5554
       718.002         559.482
   2939467.669 9   2280976.45546  23611897.655    23611897.7134   23611905.4134
     -2300.446       -1792.555
    280702.522 9    233905.38846  23617079.847    23617080.2104   23617087.7444
      -632.058        -492.513
  -5949253.554 9  -4303520.38446  23655576.037    23655576.6374   23655584.6354
      4466.696        3480.542
  -3945223.477 9  -3059919.51845  24138479.705    24138479.6984   24138487.6554
      4747.127        3699.060
 96 11 18 16 48 59.9980000  0  9 31 23  3  1 21 17  9 25 15         -0.001914657
  -1936911.908 9  -1501455.71747  22054774.263    22054774.1264   22054781.2534
       863.414         672.790
    888189.806 9    689313.53647  22233394.490    22233394.2964   22233401.1904
      -737.131        -574.388
   1162466.555 9    903839.86748  21766635.418    21766635.7714   21766643.0864
     -1173.593        -914.488
  -2481189.272 9  -1925876.25848  19675955.277    19675955.3264   19675962.0164
      1296.852        1010.534
  -1300907.620 9  -1005597.46848  20219971.759    20219971.6034   20219978.1194
       709.464         552.829
   3008609.510 9   2334853.15046  23625054.986    23625054.9544   23625062.7214
     -2308.438       -1798.783
    299936.339 9    248892.76046  23620739.916    23620740.3084   23620747.8224
      -649.609        -506.189
  -6083222.833 9  -4407912.00946  23630082.505    23630083.0684   23630091.1424
      4465.203        3479.379
  -4087597.816 9  -3170860.57545  24111386.690    24111387.0724   24111394.7464
      4745.007        3697.408
 96 11 18 16 49 29.9980000  0  9 31 23  3  1 21 17  9 25 15         -0.001936909
  -1962536.056 9  -1521422.60247  22049898.134    22049898.0424   22049905.1994
       844.815         658.297
    910355.228 9    706585.24547  22237612.371    22237612.2814   22237619.1284
      -740.709        -577.176
   1197866.209 9    931423.97848  21773371.665    21773372.1134   21773379.4634
     -1186.514        -924.556
  -2519830.100 9  -1955985.98548  19668602.217    19668602.2784   19668608.9274
      1279.376         996.916
  -1322102.807 9  -1022113.19848  20215938.517    20215938.3634   20215944.8574
       703.466         548.155
   3077948.703 9   2388883.61246  23638250.057    23638249.9254   23638257.6974
     -2314.188       -1803.263
    319667.466 9    264267.63946  23624494.605    23624495.0864   23624502.6004
      -665.917        -518.896
  -6217177.957 9  -4512292.62046  23604591.673    23604592.3604   23604600.3404
      4464.988        3479.211
  -4229941.341 9  -3281777.62645  24084299.624    24084299.8544   24084307.4004
      4744.432        3696.960
 96 11 18 16 49 59.9980000  0  9 31 23  3  1 21 17  9 25 15         -0.001959136
  -1987570.296 9  -1540929.81247  22045134.328    22045134.2074   22045141.3444
       824.486         642.457
    932660.815 9    723966.17747  22241857.036    22241856.8814   22241863.6734
      -745.729        -581.087
   1233679.496 9    959330.41448  21780186.700    21780187.1824   21780194.5494
     -1200.467        -935.429
  -2557928.961 9  -1985673.40148  19661352.315    19661352.3684   19661358.9184
      1260.933         982.545
  -1343092.448 9  -1038468.75748  20211944.389    20211944.2384   20211950.7134
       696.229         542.516
   3147484.953 9   2443067.62646  23651482.313    23651482.2894   23651490.1084
     -2321.186       -1808.716
    339921.668 9    280050.11946  23628349.256    23628349.4064   23628356.9004
      -683.803        -532.834
  -6351091.939 9  -4616641.16046  23579109.028    23579109.3614   23579117.2844
      4463.030        3477.686
  -4372237.124 9  -3392657.44445  24057221.558    24057221.6694   24057229.3534
      4742.340        3695.330
 96 11 18 16 50 29.9980000  0  9 31 23  3  1 21 17  9 25 15         -0.001981350
  -2012024.133 9  -1559984.76847  22040480.850    22040480.8244   22040487.9414
       804.839         627.147
    955081.395 9    741436.71947  22246123.646    22246123.3644   22246130.1194
      -749.801        -584.260
   1269887.185 9    987544.17248  21787076.915    21787077.3024   21787084.7054
     -1214.358        -946.253
  -2595495.271 9  -2014945.84248  19654203.663    19654203.7344   19654210.2304
      1242.720         968.353
  -1363882.406 9  -1054668.71548  20207988.230    20207988.1124   20207994.5884
       688.810         536.735
   3217211.397 8   2497399.83346  23664751.092    23664750.7914   23664758.7634
     -2328.271       -1814.237
    360686.579 9    296230.54946  23632300.741    23632300.9184   23632308.3834
      -701.369        -546.521
  -6484971.703 9  -4720963.02046  23553632.910    23553632.9394   23553640.7734
      4461.397        3476.413
  -4514493.728 9  -3503506.74045  24030150.853    24030151.1484   24030158.6294
      4740.469        3693.872
 96 11 18 16 50 59.9980000  0  9 31 23  3  1 21 17  9 25 15         -0.002003545
  -2035906.433 9  -1578594.36747  22035936.158    22035936.1894   22035943.3124
       785.328         611.944
    977609.380 9    758990.94547  22250410.495    22250410.2644   22250416.9894
      -753.929        -587.477
   1306493.986 9   1016068.92948  21794043.028    21794043.3624   21794050.8164
     -1227.719        -956.664
  -2632548.338 9  -2043818.35748  19647152.656    19647152.7334   19647159.2324
      1225.741         955.123
  -1384465.694 9  -1070707.63748  20204071.357    20204071.2584   20204077.7954
       681.398         530.959
   3287143.502 8   2551892.30246  23678058.492    23678058.1634   23678066.7104
     -2335.571       -1819.925
    381962.301 9    312809.00846  23636349.230    23636349.5034   23636357.0274
      -718.788        -560.095
  -6618820.575 9  -4825260.79946  23528162.269    23528162.3484   23528170.1384
      4459.946        3475.283
  -4656706.940 9  -3614322.22645  24003088.337    24003088.6714   24003096.4614
      4738.650        3692.455
 96 11 18 16 51 29.9970000  0  9 31 23  3  1 21 17  9 25 15         -0.002025694
  -2059179.998 9  -1596729.63047  22031507.348    22031507.3604   22031514.4724
       766.272         597.095
   1000278.295 9    776654.98847  22254724.028    22254723.9874   22254730.6994
      -757.542        -590.292
   1343508.700 9   1044911.52748  21801086.649    21801087.0474   21801094.5264
     -1239.977        -966.216
  -2669079.242 9  -2072283.99048  19640200.998    19640201.0884   19640207.6124
      1209.614         942.556
  -1404804.860 9  -1086556.33348  20200200.870    20200200.8104   20200207.3904
       674.342         525.461
   3357296.018 8   2606556.51746  23691407.674    23691407.7514   23691416.6234
     -2341.622       -1824.640
    403768.482 9    329800.79746  23640498.815    23640499.1314   23640506.5834
      -734.943        -572.683
  -6752598.484 9  -4929503.29646  23502705.135    23502705.3054   23502712.9474
      4458.742        3474.344
  -4798850.946 9  -3725083.78945  23976039.146    23976039.4224   23976047.4374
      4737.792        3691.786
 96 11 18 16 51 59.9970000  0  9 31 23  3  1 21 17  9 25 15         -0.002047836
  -2081903.438 9  -1614436.22547  22027183.314    22027183.2404   22027190.3504
       748.300         583.091
   1023049.249 9    794398.54747  22259057.144    22259057.1254   22259063.8454
      -760.669        -592.729
   1380871.108 9   1074025.06948  21808196.443    21808196.9004   21808204.4324
     -1251.035        -974.832
  -2705131.682 9  -2100376.79248  19633340.406    19633340.5134   19633347.0624
      1193.491         929.993
  -1424935.084 9  -1102242.22248  20196370.142    20196370.0904   20196376.7044
       667.432         520.077
   3427628.578 8   2661361.03046  23704791.237    23704791.5234   23704800.6964
     -2347.472       -1829.199
    426041.262 9    347156.18746  23644737.424    23644737.5804   23644744.9504
      -750.083        -584.480
  -6886357.851 9  -5033731.32546  23477251.382    23477251.6894   23477259.2164
      4458.393        3474.072
  -4940980.121 9  -3835833.77146  23948992.704    23948992.9854   23949001.1774
      4737.359        3691.448
 96 11 18 16 52 29.9970000  0  9 31 23  3  1 21 17  9 25 15         -0.002069965
  -2104059.521 9  -1631700.71847  22022967.151    22022967.0934   22022974.1814
       729.499         568.441
   1045949.939 9    812243.19847  22263415.071    22263415.0054   22263421.7124
      -765.243        -596.293
   1418611.413 9   1103433.06748  21815378.137    21815378.6494   21815386.2314
     -1264.001        -984.936
  -2740655.822 9  -2128057.93348  19626580.389    19626580.4874   19626587.0574
      1175.733         916.156
  -1444814.177 9  -1117732.43348  20192587.213    20192587.1724   20192593.7834
       658.698         513.271
   3498185.764 8   2716340.57245  23718217.600    23718218.0494   23718227.4264
     -2355.422       -1835.394
    448808.502 9    364896.88146  23649069.765    23649070.1494   23649077.5164
      -766.836        -597.534
  -7020066.286 9  -5137919.65746  23451807.417    23451807.8854   23451815.2144
      4456.281        3472.427
  -5083056.384 9  -3946542.52446  23921956.609    23921956.7314   23921965.0704
      4735.173        3689.745
 96 11 18 16 52 59.9970000  0  9 31 23  3  1 21 17  9 25 15         -0.002092094
  -2125686.571 9  -1648552.98147  22018851.679    22018851.6274   22018858.6594
       711.482         554.402
   1068956.829 9    830170.61547  22267793.142    22267793.0934   22267799.8034
      -769.144        -599.333
   1456695.425 9   1133108.89148  21822625.323    21822625.8314   21822633.4254
     -1275.416        -993.831
  -2775690.992 9  -2155358.06148  19619913.463    19619913.5374   19619920.0934
      1159.409         903.436
  -1464470.452 9  -1133049.02548  20188846.729    20188846.7134   20188853.2034
       651.167         507.403
   3568940.692 8   2771474.19645  23731681.408    23731682.1464   23731691.7894
     -2361.880       -1840.426
    472041.184 9    383000.23846  23653490.718    23653491.1904   23653498.6034
      -782.739        -609.926
  -7153742.685 9  -5242083.04646  23426369.726    23426370.1114   23426377.3974
      4454.840        3471.304
  -5225102.019 9  -4057227.37646  23894926.083    23894926.3054   23894934.7584
      4733.869        3688.729
 96 11 18 16 53 29.9970000  0  9 31 23  3  1 21 17  9 25 15         -0.002114194
  -2146739.161 9  -1664957.61147  22014845.502    22014845.4934   22014852.4864
       693.516         540.402
   1092106.232 9    848209.07447  22272198.394    22272198.3584   22272205.0604
      -772.689        -602.095
   1495148.397 9   1163072.21648  21829942.694    21829943.2114   21829950.8134
     -1286.764       -1002.673
  -2810207.337 9  -2182253.91148  19613345.195    19613345.3134   19613351.8564
      1143.181         890.790
  -1483877.150 9  -1148171.14148  20185153.828    20185153.7964   20185160.1864
       644.110         501.904
   3639905.034 8   2826771.00645  23745185.093    23745187.3404   23745195.8324
     -2367.696       -1844.958
    495785.396 8    401502.18246  23658009.065    23658009.5714   23658016.9844
      -798.751        -622.403
  -7287346.965 9  -5346190.23246  23400945.580    23400946.0534   23400953.3564
      4453.775        3470.474
  -5367077.571 9  -4167857.60346  23867908.803    23867909.2114   23867917.7294
      4732.529        3687.685
 96 11 18 16 53 59.9970000  0  9 31 23  3  1 21 17  9 25 15         -0.002136292
  -2167263.069 9  -1680950.28147  22010940.048    22010939.9474   22010946.8684
       675.386         526.275
   1115356.364 9    866326.02247  22276622.932    22276622.7884   22276629.5474
      -776.314        -604.920
   1533933.310 9   1193294.19148  21837323.205    21837323.7574   21837331.3734
     -1297.980       -1011.413
  -2844251.340 9  -2208781.70848  19606866.868    19606866.9744   19606873.5024
      1127.361         878.463
  -1503080.654 9  -1163134.92448  20181499.606    20181499.5304   20181505.8714
       637.132         496.466
   3711045.312 8   2882204.91345  23758723.375    23758724.7474   23758733.6904
     -2373.891       -1849.785
    520011.454 9    420379.58746  23662619.337    23662619.6614   23662627.0424
      -815.399        -635.376
  -7420940.302 9  -5450288.88946  23375523.396    23375524.1014   23375531.4794
      4453.393        3470.176
  -5509015.933 9  -4278458.85546  23840898.950    23840899.2284   23840907.8344
      4731.075        3686.552
 96 11 18 16 54 29.9970000  0  9 31 23  3  1 21 17  9 25 15         -0.002158368
  -2187232.521 9  -1696510.89847  22007140.003    22007139.9274   22007146.7994
       654.299         509.843
   1138716.388 9    884528.60647  22281068.348    22281068.1704   22281074.9374
      -782.514        -609.751
   1573058.864 9   1223781.61648  21844768.604    21844769.0904   21844776.7424
     -1311.829       -1022.204
  -2877824.152 9  -2234942.33448  19600478.184    19600478.3034   19600484.8134
      1109.456         864.511
  -1522071.654 9  -1177933.11848  20177885.761    20177885.6844   20177892.0324
       627.591         489.032
   3782364.428 7   2937778.17745  23772295.094    23772296.2814   23772305.3894
     -2382.078       -1856.165
    544739.299 8    439648.01246  23667324.980    23667325.1804   23667332.6114
      -834.398        -650.180
  -7554524.219 9  -5554380.21746  23350103.339    23350103.9194   23350111.3264
      4450.769        3468.132
  -5650907.068 9  -4389023.29646  23813897.990    23813898.3764   23813906.8104
      4726.871        3683.276
 96 11 18 16 54 59.9970000  0  9 31 23  3  1 21 17  9 25 15         -0.002180414
  -2206624.780 9  -1711621.76747  22003449.732    22003449.7044   22003456.5724
       635.634         495.299
   1162202.412 9    902829.37547  22285537.679    22285537.5144   22285544.2814
      -785.967        -612.442
   1612533.906 9   1254541.36048  21852280.454    21852280.9394   21852288.6104
     -1322.792       -1030.747
  -2910925.550 9  -2260735.62748  19594179.154    19594179.2974   19594185.8094
      1094.365         852.752
  -1540844.427 9  -1192561.26648  20174313.415    20174313.3644   20174319.7894
       621.086         483.963
   3853851.698 8   2993482.46745  23785898.153    23785899.8204   23785909.2304
     -2386.499       -1859.610
    569957.003 8    459298.12646  23672123.433    23672123.8554   23672131.3134
      -849.635        -662.053
  -7688100.233 9  -5658465.38946  23324684.528    23324685.1984   23324692.6964
      4451.538        3468.731
  -5792742.099 9  -4499544.01646  23786907.883    23786908.0264   23786916.5164
      4725.981        3682.582
 96 11 18 16 55 29.9970000  0  9 31 23  3  1 21 17  9 25 15         -0.002202418
  -2225420.701 9  -1726267.95147  21999872.887    21999872.9584   21999879.8384
       617.661         481.294
   1185816.387 9    921229.84247  22290031.396    22290031.1694   22290037.9934
      -788.061        -614.074
   1652372.728 9   1285584.57848  21859861.507    21859862.0604   21859869.7444
     -1333.018       -1038.715
  -2943524.712 9  -2286137.57248  19587975.716    19587975.8584   19587982.3974
      1078.995         840.775
  -1559384.413 9  -1207008.02148  20170785.385    20170785.3364   20170791.8514
       615.056         479.264
   3925499.411 8   3049311.77545  23799533.144    23799534.1574   23799543.3674
     -2390.044       -1862.372
    595658.881 9    479325.53546  23677014.159    23677014.7454   23677022.2404
      -863.481        -672.842
  -7821674.215 9  -5762548.97046  23299266.398    23299266.9324   23299274.4504
      4453.567        3470.312
  -5934521.281 9  -4610021.19646  23759928.151    23759928.3864   23759936.7994
      4726.083        3682.662
 96 11 18 16 55 59.9970000  0  9 31 23  3  1 21 17  9 25 15         -0.002224442
  -2243634.985 9  -1740460.90047  21996406.931    21996406.9184   21996413.7414
       596.490         464.797
   1209537.785 9    939714.01747  22294545.324    22294545.2044   22294552.1554
      -793.064        -617.972
   1692566.128 9   1316904.08448  21867510.158    21867510.6314   21867518.3484
     -1346.235       -1049.014
  -2975609.609 9  -2311138.78048  19581870.149    19581870.2834   19581876.8584
      1060.021         825.990
  -1577686.933 9  -1221269.73248  20167302.510    20167302.5064   20167309.1024
       605.248         471.622
   3997316.647 8   3105273.18946  23813200.107    23813200.7904   23813209.6304
     -2397.350       -1868.065
    621823.117 9    499713.20846  23681993.125    23681993.6694   23682001.0734
      -880.430        -686.049
  -7955255.152 9  -5866637.96446  23273846.539    23273847.2104   23273854.7894
      4451.773        3468.914
  -6076254.277 9  -4720462.38846  23732957.352    23732957.4764   23732965.8084
      4722.930        3680.205
 96 11 18 16 56 29.9970000  0  9 31 23  3  1 21 17  9 25 15         -0.002246480
  -2261272.874 9  -1754204.71547  21993050.538    21993050.5414   21993057.3844
       578.474         450.759
   1233344.102 9    958264.35847  22299075.374    22299075.4014   22299082.4294
      -794.834        -619.351
   1733097.215 9   1348486.71748  21875223.046    21875223.4544   21875231.1984
     -1356.731       -1057.193
  -3007178.891 9  -2335738.21848  19575862.648    19575862.8234   19575869.4324
      1043.725         813.292
  -1595749.684 9  -1235344.61348  20163865.353    20163865.3474   20163871.9274
       598.003         465.976
   4069286.805 8   3161353.77746  23826895.597    23826896.4494   23826905.0734
     -2401.708       -1871.461
    648419.699 8    520437.77646  23687054.293    23687054.9364   23687062.2044
      -893.488        -696.224
  -8088828.469 9  -5970721.03746  23248428.514    23248428.9544   23248436.6004
      4452.118        3469.183
  -6217950.612 9  -4830875.01746  23705993.503    23705993.5924   23706001.8684
      4722.559        3679.916
 96 11 18 16 56 59.9970000  0  9 31 23  3  1 21 17  9 25 15         -0.002268520
  -2278325.277 9  -1767492.30847  21989805.602    21989805.6224   21989812.4704
       558.668         435.326
   1257245.656 9    976888.91747  22303623.660    22303623.6254   22303630.8224
      -798.290        -622.044
   1773980.607 9   1380343.87448  21883002.894    21883003.3164   21883011.0744
     -1368.479       -1066.347
  -3038209.076 9  -2359917.57448  19569957.792    19569957.9764   19569964.5724
      1025.237         798.886
  -1613544.859 9  -1249210.98948  20160479.069    20160479.0604   20160485.6594
       588.644         458.684
   4141437.967 8   3217575.41246  23840625.730    23840626.4394   23840634.9604
     -2408.331       -1876.622
    675456.339 9    541505.24346  23692199.152    23692199.7824   23692207.1794
      -908.835        -708.183
  -8222353.755 9  -6074766.68546  23223019.326    23223019.7944   23223027.5404
      4449.759        3467.345
  -6359588.425 9  -4941242.08346  23679040.759    23679040.7884   23679049.0984
      4720.273        3678.135
 96 11 18 16 57 29.9970000  0  9 31 23  3  1 21 17  9 25 15         -0.002290567
  -2294803.728 9  -1780332.66747  21986669.794    21986669.9194   21986676.7684
       540.378         421.074
   1281229.046 9    995577.22547  22308187.283    22308187.4634   22308194.7834
      -800.219        -623.547
   1815188.881 9   1412454.19248  21890844.603    21890845.0144   21890852.7914
     -1378.287       -1073.990
  -3068702.804 9  -2383678.91348  19564155.057    19564155.2044   19564161.7874
      1008.369         785.742
  -1631077.567 9  -1262872.84248  20157142.701    20157142.6704   20157149.2824
       580.810         452.579
   4213779.888 8   3273945.69046  23854392.846    23854392.6904   23854401.1504
     -2414.358       -1881.318
    702944.931 9    562924.88546  23697430.318    23697430.9234   23697438.2274
      -923.268        -719.430
  -8355817.221 9  -6178764.16646  23197622.204    23197622.4814   23197630.2974
      4448.227        3466.151
  -6501170.488 9  -5051565.72046  23652098.778    23652098.5734   23652106.7774
      4718.980        3677.127
 96 11 18 16 57 59.9970000  0  9 31 23  3  1 21 17  9 25 15         -0.002312604
  -2310714.399 9  -1792730.59647  21983642.178    21983642.2264   21983649.1094
       521.078         406.035
   1305306.234 9   1014338.63347  22312769.032    22312769.1554   22312776.5184
      -804.385        -626.793
   1856720.599 9   1444816.54048  21898747.932    21898748.2764   21898756.0374
     -1389.638       -1082.835
  -3098677.845 9  -2407036.07848  19558451.002    19558451.1444   19558457.7394
       990.683         771.961
  -1648351.973 9  -1276333.41348  20153855.503    20153855.4174   20153862.0524
       571.580         445.387
   4286335.959 8   3330482.83946  23868199.861    23868199.6374   23868208.0774
     -2421.824       -1887.136
    730900.439 9    584708.36646  23702750.354    23702750.7974   23702758.0374
      -939.576        -732.137
  -8489194.813 9  -6282694.72146  23172241.402    23172241.5144   23172249.4284
      4444.286        3463.080
  -6642683.436 9  -5161835.52346  23625169.686    23625169.5174   23625177.6734
      4715.939        3674.758
 96 11 18 16 58 29.9970000  0  9 31 23  3  1 21 17  9 25 15         -0.002334626
  -2326075.305 9  -1804700.14047  21980719.173    21980719.1754   21980726.0484
       501.500         390.779
   1329498.847 9   1033189.98047  22317372.762    22317372.8254   22317380.2404
      -810.099        -631.246
   1898569.016 9   1477425.66947  21906711.408    21906711.7924   21906719.5234
     -1401.841       -1092.344
  -3128146.695 9  -2429998.81248  19552843.304    19552843.4194   19552849.9684
       972.396         757.711
  -1665380.233 9  -1289602.18348  20150615.094    20150615.0184   20150621.6414
       562.102         438.002
   4359090.651 8   3387174.77446  23882044.667    23882044.3494   23882052.9254
     -2430.072       -1893.562
    759322.606 9    606855.46346  23708159.042    23708159.4114   23708166.7024
      -956.889        -745.628
  -8622476.958 9  -6386550.90146  23146878.686    23146878.7004   23146886.7664
      4439.776        3459.566
  -6784124.976 9  -5272049.67846  23598254.366    23598253.9964   23598262.0784
      4711.935        3671.638
 96 11 18 16 58 59.9970000  0  9 31 23  3  1 21 17  9 25 15         -0.002356617
  -2340882.128 9  -1816237.92147  21977901.527    21977901.5464   21977908.4464
       484.755         377.731
   1353843.937 9   1052160.13647  22322005.284    22322005.5304   22322012.9414
      -813.723        -634.070
   1940750.979 9   1510294.71048  21914738.388    21914738.7864   21914746.4594
     -1411.221       -1099.653
  -3157097.538 9  -2452557.89648  19547334.076    19547334.2394   19547340.7594
       956.915         745.648
  -1682161.918 9  -1302678.80648  20147421.569    20147421.5544   20147428.1304
       556.032         433.272
   4432061.833 8   3444035.38546  23895930.436    23895930.2494   23895939.1124
     -2435.425       -1897.734
    788248.190 9    629394.85846  23713663.553    23713663.8894   23713671.1484
      -972.368        -757.689
  -8755653.987 9  -6490325.18146  23121535.710    23121535.9614   23121544.0954
      4438.047        3458.218
  -6925474.416 9  -5382192.09846  23571356.165    23571355.8824   23571364.1824
      4710.512        3670.529
 96 11 18 16 59 29.9970000  0  9 31 23  3  1 21 17  9 25 15         -0.002378611
  -2355201.261 9  -1827395.69847  21975176.654    21975176.6784   21975183.5744
       469.158         365.578
   1378279.631 9   1071200.87947  22326655.332    22326655.4874   22326662.8704
      -816.167        -635.974
   1983215.059 9   1543383.58648  21922819.065    21922819.5144   21922827.1104
     -1420.481       -1106.868
  -3185606.949 9  -2474773.01248  19541908.947    19541909.0564   19541915.6084
       943.099         734.882
  -1698786.775 9  -1315633.23148  20144257.957    20144257.9704   20144264.4534
       551.491         429.733
   4505177.309 8   3501008.43146  23909843.454    23909843.5304   23909852.6754
     -2439.500       -1900.909
    817630.640 9    652290.26746  23719254.969    23719255.3114   23719262.5454
      -987.027        -769.112
  -8888805.955 9  -6594079.93046  23096197.655    23096197.9774   23096206.1574
      4438.091        3458.253
  -7066797.149 9  -5492313.71146  23544463.042    23544463.0804   23544471.1784
      4710.190        3670.278
 96 11 18 16 59 59.9970000  0  9 31 23  3  1 21 17  9 25 15         -0.002400575
  -2369001.115 9  -1838148.83347  21972550.600    21972550.6694   21972557.5434
       451.241         351.616
   1402862.409 9   1090356.23147  22331333.226    22331333.4624   22331340.8404
      -822.113        -640.608
   2026020.654 9   1576738.57547  21930964.684    21930965.1744   21930972.7774
     -1432.588       -1116.302
  -3213641.680 9  -2496618.23848  19536574.006    19536574.1974   19536580.8174
       926.296         721.789
  -1715207.248 9  -1328428.40148  20141133.296    20141133.2874   20141139.6934
       543.757         423.707
   4578471.723 8   3558120.91646  23923790.603    23923790.7934   23923800.1744
     -2445.855       -1905.861
    847514.221 9    675576.16946  23724941.837    23724942.1034   23724949.2334
     -1004.495        -782.723
  -9021896.713 9  -6697786.99846  23070871.288    23070871.6564   23070879.8404
      4435.278        3456.061
  -7208045.760 9  -5602377.54146  23517584.420    23517584.3414   23517592.3424
      4706.959        3667.760
 96 11 18 17  0 29.9970000  0  9 31 23  3  1 21 17  9 25 15         -0.002422508
  -2382261.815 9  -1848481.84847  21970027.162    21970027.2254   21970034.1014
       432.749         337.207
   1427606.120 9   1109636.99447  22336041.922    22336042.0554   22336049.4184
      -827.260        -644.618
   2069170.728 9   1610361.99847  21939175.890    21939176.3714   21939183.9614
     -1444.008       -1125.201
  -3241184.246 9  -2518079.96248  19531332.757    19531332.9964   19531339.6684
       909.965         709.064
  -1731410.087 9  -1341053.98548  20138050.003    20138050.0334   20138056.3544
       536.517         418.065
   4651933.634 8   3615363.93046  23937770.182    23937770.1584   23937779.5204
     -2451.481       -1910.245
    877906.546 9    699258.48046  23730725.261    23730725.5364   23730732.7264
     -1021.506        -795.979
  -9154924.857 9  -6801445.27246  23045556.980    23045557.3154   23045565.4884
      4433.441        3454.629
  -7349210.997 9  -5712376.41246  23490721.540    23490721.5044   23490729.5204
      4704.183        3665.597
 96 11 18 17  0 59.9970000  0  9 31 23  3  1 21 17  9 25 15         -0.002444428
  -2394994.340 9  -1858403.29947  21967604.231    21967604.2914   21967611.1994
       414.203         322.756
   1452466.323 9   1129008.52247  22340772.556    22340772.7874   22340780.1934
      -831.816        -648.168
   2112631.591 9   1644227.59047  21947446.192    21947446.6914   21947454.3114
     -1455.170       -1133.899
  -3268267.242 9  -2539183.58448  19526179.068    19526179.2824   19526185.9714
       893.795         696.464
  -1747426.012 9  -1353533.92348  20135002.340    20135002.3264   20135008.6184
       529.375         412.500
   4725533.917 8   3672714.73745  23951775.908    23951775.8934   23951785.1934
     -2456.906       -1914.472
    908775.966 9    723312.55846  23736599.595    23736599.8954   23736606.9754
     -1038.196        -808.984
  -9287927.968 9  -6905084.04746  23020247.713    23020247.7074   23020255.8914
      4431.637        3453.224
  -7490325.083 9  -5822335.39046  23463867.783    23463868.3314   23463876.3444
      4701.598        3663.583
 96 11 18 17  1 29.9970000  0  9 31 23  3  1 21 17  9 25 15         -0.002466302
  -2407135.748 9  -1867864.14047  21965293.800    21965293.8694   21965300.7514
       394.040         307.044
   1477492.567 9   1148509.44147  22345535.053    22345535.1524   22345542.6124
      -837.866        -652.883
   2156456.598 9   1678376.92147  21955785.772    21955786.3184   21955793.9754
     -1467.481       -1143.492
  -3294829.004 9  -2559881.05348  19521124.547    19521124.7664   19521131.4264
       875.666         682.337
  -1763181.814 9  -1365811.17548  20132004.054    20132004.0924   20132010.4214
       519.683         404.948
   4799326.599 9   3730215.48746  23965818.238    23965818.1504   23965827.4924
     -2463.727       -1919.787
    940173.043 9    747777.79446  23742574.231    23742574.5214   23742581.5504
     -1055.960        -822.826
  -9420842.634 9  -7008653.91646  22994954.854    22994954.8724   22994963.0694
      4427.904        3450.315
  -7631325.591 9  -5932205.86646  23437036.062    23437036.7434   23437044.7854
      4697.161        3660.125
 96 11 18 17  1 59.9970000  0  9 31 23  3  1 21 17  9 25 15         -0.002488141
  -2418690.689 9  -1876867.99147  21963095.033    21963095.0244   21963101.9184
       376.612         293.464
   1502683.482 9   1168138.66347  22350328.664    22350328.8354   22350336.3704
      -840.855        -655.212
   2200612.516 9   1712784.10447  21964188.373    21964188.9084   21964196.5874
     -1475.733       -1149.922
  -3320856.285 9  -2580162.05048  19516171.795    19516171.9694   19516178.5784
       859.973         670.109
  -1778661.322 9  -1377873.13848  20129058.328    20129058.3634   20129064.8154
       512.820         399.600
   4873303.430 8   3787859.70145  23979895.330    23979895.4504   23979904.9564
     -2467.476       -1922.709
    972068.005 9    772631.00046  23748643.667    23748643.9294   23748650.8774
     -1069.825        -833.630
  -9553647.676 9  -7112138.36146  22969682.861    22969682.9214   22969691.0884
      4426.278        3449.048
  -7772208.546 9  -6041984.74046  23410227.309    23410227.6424   23410235.5644
      4695.503        3658.834
 96 11 18 17  2 29.9970000  0  9 31 23  3  1 21 17  9 25 15         -0.002510002
  -2429719.183 9  -1885461.62747  21960996.419    21960996.3844   21961003.3054
       356.800         278.026
   1527942.624 9   1187821.06547  22355135.408    22355135.5324   22355143.1314
      -845.015        -658.453
   2245008.892 9   1747378.65647  21972636.799    21972637.2544   21972644.9474
     -1486.053       -1157.963
  -3346423.243 9  -2600084.34948  19511306.583    19511306.7444   19511313.2984
       842.577         656.553
  -1793949.475 9  -1389785.98548  20126149.035    20126149.1174   20126155.6634
       504.304         392.964
   4947388.120 9   3845587.96745  23993993.247    23993993.3084   23994002.6974
     -2473.729       -1927.581
   1004364.360 9    797796.96446  23754789.356    23754789.7344   23754796.5174
     -1085.119        -845.547
  -9686412.141 9  -7215591.20246  22944418.622    22944418.7154   22944426.8404
      4422.576        3446.163
  -7913049.214 9  -6151730.64846  23383426.187    23383426.5094   23383434.5634
      4691.828        3655.970
 96 11 18 17  2 59.9970000  0  9 31 23  3  1 21 17  9 25 15         -0.002531846
  -2440174.975 9  -1893609.00247  21959006.726    21959006.7154   21959013.6504
       339.006         264.161
   1553317.340 9   1207593.51447  22359963.962    22359964.2374   22359971.9244
      -847.810        -660.631
   2289706.408 9   1782207.86047  21981142.322    21981142.9304   21981150.6354
     -1495.030       -1164.958
  -3371478.129 9  -2619607.63748  19506538.700    19506538.9334   19506545.4594
       826.632         644.129
  -1808986.797 9  -1401503.38448  20123287.538    20123287.6564   20123294.2574
       496.882         387.181
   5021658.524 8   3903460.95645  24008126.727    24008126.6014   24008135.7804
     -2478.937       -1931.639
   1037106.287 9    823310.13046  23761020.069    23761020.3914   23761026.9874
     -1098.908        -856.292
  -9819061.700 9  -7318954.50246  22919176.219    22919176.3874   22919184.4144
      4419.440        3443.719
  -8053784.873 9  -6261394.73646  23356645.304    23356645.3014   23356653.4564
      4689.301        3654.001
 96 11 18 17  3 29.9970000  0  9 31 23  3  1 21 17  9 25 15         -0.002553677
  -2450071.130 9  -1901320.30247  21957123.488    21957123.5424   21957130.4764
       321.166         250.259
   1578800.345 9   1227450.35147  22364813.330    22364813.5714   22364821.3214
      -850.650        -662.844
   2334690.023 9   1817259.99647  21989702.500    21989703.0714   21989710.7554
     -1503.584       -1171.624
  -3396036.388 9  -2638743.94148  19501865.384    19501865.6194   19501872.1424
       810.925         631.890
  -1823767.952 9  -1413021.18048  20120474.805    20120474.8974   20120481.5814
       488.889         380.952
   5096104.623 9   3961470.85245  24022293.524    24022293.1994   24022302.5304
     -2483.912       -1935.516
   1070281.416 9    849160.84146  23767332.998    23767333.3334   23767339.8394
     -1112.331        -866.751
  -9951591.155 9  -7422224.22446  22893956.648    22893956.8444   22893964.7724
      4416.136        3441.145
  -8194419.041 9  -6370979.75146  23329883.625    23329883.5234   23329891.6094
      4686.742        3652.007
 96 11 18 17  3 59.9970000  0  9 31 23  3  1 21 17  9 25 15         -0.002575487
  -2459396.095 9  -1908586.52047  21955348.883    21955349.0134   21955355.9814
       301.581         234.998
   1604403.736 9   1247400.99847  22369685.548    22369685.7674   22369693.6354
      -855.208        -666.396
   2379971.211 9   1852544.01047  21998319.309    21998319.8434   21998327.4724
     -1514.257       -1179.941
  -3420093.891 9  -2657490.04248  19497287.368    19497287.6194   19497294.1424
       794.110         618.787
  -1838278.951 9  -1424328.46648  20117713.475    20117713.5394   20117720.2764
       479.603         373.717
   5170736.728 8   4019625.70345  24036495.375    24036495.2814   24036504.6574
     -2490.417       -1940.585
   1103886.440 9    875346.51246  23773727.803    23773728.0634   23773734.4604
     -1127.030        -878.205
 -10083985.384 9  -7525388.57746  22868762.841    22868763.0984   22868770.9304
      4411.425        3437.474
  -8334944.973 9  -6480480.43346  23303142.480    23303142.3604   23303150.3194
      4682.786        3648.924
 96 11 18 17  4 29.9970000  0  9 31 23  3  1 21 17  9 25 15         -0.002597254
  -2468126.822 9  -1915389.69447  21953687.509    21953687.6094   21953694.5754
       281.411         219.281
   1630161.079 9   1267471.59947  22374587.109    22374587.2524   22374595.2434
      -861.170        -671.042
   2425592.681 9   1888093.17747  22007000.857    22007001.3294   22007008.9174
     -1526.399       -1189.402
  -3443638.790 9  -2675836.71548  19492806.913    19492807.1604   19492813.7224
       776.386         604.976
  -1852503.542 9  -1435412.58548  20115006.581    20115006.6784   20115013.4204
       469.544         365.878
   5245576.899 8   4077942.64245  24050736.809    24050737.0664   24050746.3694
     -2498.040       -1946.525
   1137951.626 9    901890.74146  23780210.102    23780210.4084   23780216.7944
     -1143.251        -890.845
 -10216237.003 9  -7628441.80946  22843596.416    22843596.4234   22843604.2354
      4406.108        3433.331
  -8475341.668 9  -6589880.42746  23276425.375    23276425.6714   23276433.6624
      4677.801        3645.040
 96 11 18 17  4 59.9970000  0  9 31 23  3  1 21 17  9 25 15         -0.002618995
  -2476305.121 9  -1921762.40647  21952131.229    21952131.3014   21952138.3224
       263.942         205.669
   1656053.166 9   1287647.20147  22379514.226    22379514.3994   22379522.5154
      -864.699        -673.791
   2471533.460 9   1923891.15747  22015743.122    22015743.5714   22015751.1724
     -1535.976       -1196.864
  -3466696.888 9  -2693804.05548  19488419.107    19488419.3854   19488425.9474
       761.143         593.098
  -1866474.055 9  -1446298.72448  20112348.098    20112348.1884   20112354.8694
       462.143         360.111
   5320592.766 8   4136396.52145  24065012.023    24065012.1694   24065021.2254
     -2502.612       -1950.087
   1172462.959 9    928782.60746  23786777.386    23786777.6224   23786784.0774
     -1157.338        -901.822
 -10348378.362 9  -7731409.11546  22818450.679    22818450.7834   22818458.5234
      4403.583        3431.363
  -8615633.160 9  -6699198.45646  23249728.420    23249729.1084   23249737.0884
      4675.244        3643.047
 96 11 18 17  5 29.9970000  0  9 31 23  3  1 21 17  9 25 15         -0.002640695
  -2483904.837 9  -1927684.27747  21950685.074    21950685.1404   21950692.1544
       242.629         189.061
   1682101.877 9   1307944.85147  22384471.278    22384471.3654   22384479.5794
      -871.873        -679.382
   2517812.110 9   1959952.41047  22024549.781    22024550.1004   22024557.7194
     -1549.412       -1207.334
  -3489245.639 9  -2711374.50948  19484128.240    19484128.5264   19484135.0764
       741.910         578.112
  -1880171.996 9  -1456972.46848  20109741.537    20109741.6314   20109748.1594
       451.177         351.566
   5395794.334 8   4194995.06945  24079322.836    24079322.7614   24079331.8024
     -2510.796       -1956.464
   1207447.043 9    956042.86446  23793434.698    23793434.7954   23793441.3434
     -1174.976        -915.566
 -10480399.385 9  -7834282.64646  22793327.701    22793328.0234   22793335.7324
      4397.752        3426.820
  -8755797.523 9  -6808417.42546  23223055.788    23223056.7424   23223064.5804
      4668.972        3638.160
 96 11 18 17  5 59.9970000  0  9 31 23  3  1 21 17  9 25 15         -0.002662347
  -2490907.565 9  -1933140.96147  21949352.524    21949352.5894   21949359.6234
       224.699         175.090
   1708326.381 9   1328379.48647  22389461.808    22389461.7624   22389470.0554
      -875.834        -682.468
   2564464.942 9   1996305.23447  22033427.462    22033427.8534   22033435.5144
     -1560.072       -1215.640
  -3511251.446 9  -2728521.88748  19479940.737    19479941.0014   19479947.4974
       725.800         565.558
  -1893594.141 9  -1467431.30648  20107187.501    20107187.5644   20107193.9454
       444.347         346.244
   5471203.862 8   4253755.69445  24093672.986    24093673.0874   24093681.6024
     -2515.782       -1960.350
   1242923.369 9    983686.70646  23800185.452    23800185.6164   23800192.4114
     -1189.659        -927.007
 -10612283.318 9  -7937049.35746  22768230.906    22768231.2954   22768239.1034
      4395.114        3424.764
  -8895808.239 9  -6917516.67546  23196412.951    23196413.5624   23196421.3644
      4665.661        3635.580
 96 11 18 17  6 29.9970000  0  9 31 23  3  1 21 17  9 25 15         -0.002683974
  -2497353.973 9  -1938164.14747  21948125.847    21948125.8534   21948132.9294
       204.595         159.425
   1734680.495 9   1348915.09547  22394476.741    22394476.8124   22394485.1324
      -881.360        -686.774
   2611450.129 9   2032917.03547  22042368.478    22042368.8784   22042376.5434
     -1572.356       -1225.212
  -3532751.081 9  -2745274.84148  19475849.551    19475849.8084   19475856.2344
       707.198         551.063
  -1906802.442 9  -1477723.50848  20104674.117    20104674.1364   20104680.4424
       435.727         339.528
   5546782.940 8   4312648.42745  24108055.259    24108055.2424   24108063.9184
     -2523.009       -1965.981
   1278867.941 9   1011695.41946  23807025.482    23807025.6584   23807032.5774
     -1207.027        -940.541
 -10744068.476 9  -8039739.09746  22743152.982    22743153.3724   22743161.2174
      4390.083        3420.844
  -9035694.445 9  -7026518.88846  23169793.786    23169794.1184   23169801.8714
      4659.837        3631.042
 96 11 18 17  6 59.9970000  0  9 31 23  3  1 21 17  9 25 15         -0.002705556
  -2503207.280 9  -1942725.18847  21947011.988    21947012.0094   21947019.0674
       185.548         144.583
   1761190.591 9   1369572.25147  22399521.469    22399521.5384   22399529.8334
      -885.965        -690.362
   2658782.538 9   2069799.40847  22051375.613    22051375.9834   22051383.6014
     -1582.867       -1233.403
  -3553704.098 9  -2761601.86248  19471862.378    19471862.6064   19471869.0264
       689.706         537.433
  -1919740.560 9  -1487805.17148  20102212.075    20102212.1314   20102218.4274
       426.917         332.663
   5622566.981 8   4371700.85645  24122475.775    24122476.4464   24122485.1954
     -2529.108       -1970.734
   1315324.113 9   1040102.81646  23813962.733    23813962.8974   23813970.0924
     -1223.213        -953.153
 -10875705.944 9  -8142313.74146  22718103.206    22718103.6784   22718111.4564
      4385.825        3417.526
  -9175413.536 9  -7135390.88246  23143206.313    23143206.4004   23143214.2384
      4654.929        3627.217
 96 11 18 17  7 29.9970000  0  9 31 23  3  1 21 17  9 25 15         -0.002727119
  -2508504.293 9  -1946852.74547  21946004.087    21946004.0394   21946011.0384
       167.921         130.847
   1787832.339 9   1390332.00347  22404591.187    22404591.2754   22404599.6094
      -889.972        -693.485
   2706403.097 9   2106906.30347  22060437.547    22060437.8894   22060445.4734
     -1591.507       -1240.135
  -3574138.283 9  -2777524.59848  19467973.839    19467974.0814   19467980.5294
       672.750         524.221
  -1932428.590 9  -1497691.96148  20099797.611    20099797.6624   20099804.0024
       419.217         326.663
   5698513.627 8   4430880.03245  24136928.483    24136928.5844   24136937.2864
     -2533.555       -1974.199
   1352255.560 9   1068880.54846  23820990.346    23820990.5314   23820998.0424
     -1238.536        -965.093
 -11007224.714 9  -8244795.89646  22693076.326    22693076.5054   22693084.2854
      4382.335        3414.806
  -9315001.109 9  -7244160.40246  23116643.498    23116643.7504   23116651.5524
      4651.146        3624.270
 96 11 18 17  7 59.9970000  0  9 31 23  3  1 21 17  9 25 15         -0.002748685
  -2513288.868 9  -1950581.00247  21945093.692    21945093.5904   21945100.5734
       150.959         117.630
   1814590.491 9   1411182.45747  22409682.963    22409683.1854   22409691.5734
      -894.046        -696.659
   2754258.831 9   2144196.45147  22069544.169    22069544.5624   22069552.1454
     -1598.918       -1245.910
  -3594079.113 9  -2793062.90248  19464179.158    19464179.4284   19464185.8864
       656.704         511.717
  -1944898.329 9  -1507408.65148  20097424.652    20097424.7094   20097431.1124
       411.907         320.966
   5774578.478 8   4490151.30645  24151402.754    24151403.0804   24151412.1114
     -2537.365       -1977.168
   1389638.363 9   1098010.00246  23828103.832    23828104.1774   23828111.9054
     -1253.649        -976.869
 -11138645.250 9  -8347201.48047  22668067.737    22668068.0624   22668075.8174
      4379.023        3412.226
  -9454486.491 9  -7352850.27946  23090100.446    23090100.6224   23090108.2624
      4647.767        3621.637
 96 11 18 17  8 29.9970000  0  9 31 23  3  1 21 17  9 25 15         -0.002770237
  -2517554.527 9  -1953904.90747  21944281.922    21944281.8494   21944288.8654
       133.608         104.110
   1841484.125 9   1432138.47847  22414800.680    22414800.8584   22414809.2864
      -898.714        -700.297
   2802339.218 9   2181661.65847  22078693.630    22078694.0084   22078701.5784
     -1606.296       -1251.659
  -3613528.660 9  -2808218.38548  19460478.076    19460478.2854   19460484.7524
       640.168         498.832
  -1957124.673 9  -1516935.67948  20095098.008    20095098.0794   20095104.5594
       403.288         314.250
   5850773.075 8   4549523.65045  24165901.680    24165902.5504   24165911.6714
     -2542.041       -1980.811
   1427489.281 9   1127504.22846  23835306.432    23835306.8614   23835314.8334
     -1269.314        -989.076
 -11269947.143 9  -8449514.62247  22643081.835    22643082.1544   22643089.9384
      4374.678        3408.840
  -9593856.641 9  -7461450.38446  23063578.639    23063579.2654   23063587.0234
      4643.812        3618.555
 96 11 18 17  8 59.9970000  0  9 31 23  3  1 21 17  9 25 15         -0.002791776
  -2521276.013 9  -1956804.78747  21943573.786    21943573.6714   21943580.6504
       114.952          89.573
   1868554.525 9   1453232.24447  22419951.948    22419952.2104   22419960.5964
      -905.468        -705.559
   2850675.851 9   2219326.53347  22087891.759    22087892.1864   22087899.7954
     -1615.740       -1259.018
  -3632458.231 9  -2822968.69148  19456875.872    19456876.0834   19456882.5704
       622.441         485.019
  -1969053.752 9  -1526231.07048  20092827.993    20092828.0694   20092834.5604
       392.793         306.072
   5927129.230 8   4609021.88545  24180432.108    24180432.7374   24180441.8044
     -2548.103       -1985.535
   1465831.137 8   1157381.01346  23842602.227    23842602.9334   23842611.0664
     -1286.211       -1002.242
 -11401090.293 9  -8551704.04946  22618126.060    22618126.4634   22618134.2164
      4368.582        3404.090
  -9733079.386 9  -7569935.63346  23037085.746    23037086.0804   23037093.8174
      4638.205        3614.186
 96 11 18 17  9 29.9970000  0  9 31 23  3  1 21 17  9 25 15         -0.002813273
  -2524462.608 9  -1959287.85747  21942967.365    21942967.3284   21942974.2804
        97.743          76.163
   1895805.760 9   1474466.91247  22425137.762    22425137.9864   22425146.3064
      -910.906        -709.797
   2899281.599 9   2257201.10947  22097141.076    22097141.5754   22097149.1834
     -1624.465       -1265.817
  -3650883.082 9  -2837325.71048  19453369.737    19453369.9714   19453376.4414
       606.341         472.474
  -1980706.435 9  -1535311.08948  20090610.608    20090610.6854   20090617.1624
       384.385         299.521
   6003651.247 8   4668649.39045  24194994.065    24194994.4914   24195003.5564
     -2553.208       -1989.513
   1504656.550 8   1187634.57946  23849990.149    23849991.1144   23849999.2954
     -1301.530       -1014.179
 -11532058.416 9  -8653757.08446  22593203.889    22593204.0254   22593211.8044
      4362.979        3399.724
  -9872153.571 9  -7678305.09746  23010620.735    23010621.1654   23010628.8704
      4633.728        3610.697
 96 11 18 17  9 59.9970000  0  9 31 23  3  1 21 17  9 25 15         -0.002834743
  -2527150.072 9  -1961382.00247  21942455.908    21942455.9214   21942462.9534
        80.122          62.433
   1923187.456 9   1495803.24247  22430348.520    22430348.6244   22430356.8674
      -915.695        -713.529
   2948137.469 9   2295270.57647  22106437.964    22106438.5554   22106446.1114
     -1633.914       -1273.180
  -3668861.796 9  -2851335.09448  19449948.563    19449948.7574   19449955.2084
       591.141         460.629
  -1992130.522 9  -1544212.97948  20088436.702    20088436.8064   20088443.2614
       375.972         292.965
   6080307.027 8   4728381.16845  24209581.599    24209582.0404   24209591.0414
     -2558.630       -1993.738
   1543904.636 9   1218217.50546  23857458.877    23857459.7634   23857468.0124
     -1316.060       -1025.501
 -11662888.452 9  -8755702.53246  22568307.778    22568307.8484   22568315.5584
      4357.966        3395.818
 -10011112.393 9  -7786584.67446  22984177.747    22984178.1734   22984185.8614
      4629.044        3607.047
 96 11 18 17 10 29.9970000  0  9 31 23  3  1 21 17  9 25 15         -0.002856169
  -2529306.738 9  -1963062.53247  21942045.498    21942045.5444   21942052.6004
        64.075          49.928
   1950707.400 9   1517247.30047  22435585.413    22435585.5604   22435593.7364
      -918.461        -715.684
   2997285.909 9   2333568.01747  22115790.667    22115791.2324   22115798.7644
     -1641.917       -1279.416
  -3686389.689 9  -2864993.18648  19446613.134    19446613.3214   19446619.7004
       577.842         450.266
  -2003298.751 9  -1552915.49348  20086311.523    20086311.6204   20086318.0694
       369.104         287.613
   6157122.133 7   4788237.03545  24224199.303    24224199.5994   24224208.7204
     -2562.166       -1996.493
   1583573.964 9   1249128.64446  23865007.932    23865008.6414   23865016.7354
     -1328.085       -1034.871
 -11793575.316 9  -8857536.40946  22543438.811    22543438.9504   22543446.6294
      4355.037        3393.535
 -10149931.828 9  -7894755.65046  22957761.620    22957761.7504   22957769.4734
      4626.146        3604.789
 96 11 18 17 10 59.9970000  0  9 31 23  3  1 21 17  9 25 15         -0.002877572
  -2530961.577 9  -1964352.02747  21941730.522    21941730.6634   21941737.7074
        46.262          36.048
   1978332.345 9   1538773.18547  22440842.279    22440842.4624   22440850.5414
      -923.174        -719.356
   3046684.167 9   2372060.13047  22125190.874    22125191.4404   22125199.0314
     -1651.153       -1286.613
  -3703503.920 9  -2878328.94348  19443356.350    19443356.5774   19443362.9354
       563.113         438.789
  -2014241.601 9  -1561442.38648  20084229.172    20084229.2514   20084235.7624
       360.559         280.955
   6234054.983 8   4848184.65245  24238839.036    24238839.4844   24238848.7634
     -2566.889       -2000.173
   1623616.571 8   1280330.62746  23872627.733    23872628.4994   23872636.5004
     -1341.488       -1045.315
 -11924159.377 9  -8959290.15546  22518589.167    22518589.4654   22518597.1964
      4350.616        3390.090
 -10288645.260 9  -8002843.98846  22931365.530    22931365.4584   22931373.1974
      4621.435        3601.118
 96 11 18 17 11 29.9970000  0  9 31 23  3  1 21 17  9 25 15         -0.002898934
  -2532077.638 9  -1965221.70747  21941518.112    21941518.2924   21941525.3994
        28.083          21.883
   2006099.121 9   1560409.57247  22446126.400    22446126.3774   22446134.3834
      -927.885        -723.027
   3096357.552 9   2410766.62547  22134643.463    22134644.0394   22134651.6264
     -1660.443       -1293.852
  -3720167.638 9  -2891313.65248  19440185.281    19440185.5444   19440191.9454
       547.597         426.699
  -2024931.718 9  -1569772.34448  20082194.876    20082194.9754   20082201.5774
       351.970         274.262
   6311137.003 8   4908248.53545  24253507.220    24253507.5594   24253516.8634
     -2571.870       -2004.055
   1664067.770 8   1311850.98946  23880325.484    23880326.1064   23880333.9614
     -1355.240       -1056.031
 -12054612.104 9  -9060941.59446  22493764.541    22493765.0864   22493772.8614
      4346.536        3386.911
 -10427215.045 9  -8110820.40546  22904996.446    22904996.5304   22905004.2294
      4616.490        3597.265
 96 11 18 17 11 59.9970000  0  9 31 23  3  1 21 17  9 25 15         -0.002920266
  -2532641.336 9  -1965660.97147  21941410.797    21941411.0454   21941418.1604
         9.357           7.291
   2034004.897 9   1582154.27847  22451436.847    22451436.6924   22451444.6474
      -932.671        -726.757
   3146312.590 9   2449692.59347  22144149.626    22144150.2504   22144157.8094
     -1670.067       -1301.351
  -3736355.019 9  -2903927.19448  19437104.877    19437105.1564   19437111.5824
       531.370         414.055
  -2035348.782 9  -1577889.53848  20080212.560    20080212.6304   20080219.3374
       342.216         266.662
   6388372.565 8   4968432.04445  24268204.951    24268204.7924   24268214.1764
     -2577.320       -2008.301
   1704938.004 8   1343697.85845  23888102.584    23888103.4604   23888111.1424
     -1369.823       -1067.395
 -12184952.402 9  -9162505.42046  22468961.414    22468962.1094   22468969.8604
      4342.528        3383.788
 -10565631.714 9  -8218677.50746  22878656.691    22878656.6734   22878664.4194
      4611.119        3593.080
 96 11 18 17 12 29.9970000  0  9 31 23  3  1 21 17  9 25 15         -0.002941577
  -2532676.637 9  -1965688.49847  21941404.212    21941404.4204   21941411.5584
        -7.266          -5.662
   2062034.522 9   1603995.48247  22456770.636    22456770.6534   22456778.5384
      -936.181        -729.492
   3196523.181 9   2488817.68347  22153704.469    22153705.0584   22153712.6154
     -1677.309       -1306.994
  -3752080.929 9  -2916181.14348  19434112.318    19434112.6244   19434119.0454
       516.760         402.670
  -2045492.940 9  -1585794.07348  20078282.153    20078282.2614   20078288.9804
       333.962         260.230
   6465750.956 8   5028726.87145  24282929.682    24282929.2224   24282938.6324
     -2581.452       -2011.521
   1746227.617 8   1375871.52645  23895960.004    23895960.6824   23895968.1554
     -1383.201       -1077.819
 -12315178.691 9  -9263980.40747  22444180.266    22444180.8104   22444188.5564
      4338.806        3380.888
 -10703911.149 9  -8326427.66846  22852343.019    22852342.9774   22852350.6544
      4607.289        3590.095
 96 11 18 17 12 59.9970000  0  9 31 23  3  1 21 17  9 25 15         -0.002962866
  -2532197.424 9  -1965315.10847  21941495.511    21941495.5964   21941502.7794
       -24.708         -19.253
   2090197.403 9   1625940.52247  22462129.987    22462130.0184   22462137.7704
      -941.222        -733.420
   3246972.753 9   2528128.99047  22163304.690    22163305.3194   22163312.9124
     -1686.290       -1313.992
  -3767339.148 9  -2928070.66548  19431208.822    19431209.1014   19431215.5184
       500.495         389.996
  -2055374.080 9  -1593493.67348  20076401.814    20076401.9544   20076408.6494
       324.898         253.167
   6543280.121 8   5089139.17445  24297682.293    24297682.3824   24297691.8734
     -2586.991       -2015.837
   1787950.783 8   1408383.01345  23903899.706    23903900.3924   23903907.7894
     -1398.297       -1089.582
 -12445255.912 9  -9365339.23447  22419427.375    22419427.8574   22419435.6214
      4333.107        3376.447
 -10842049.174 9  -8434067.63946  22826056.040    22826056.1634   22826063.8244
      4601.962        3585.944
 96 11 18 17 13 29.9970000  0  8 31 23  3  1 21  9 25 15            -0.002984123
  -2531189.834 9  -1964529.99847  21941687.217    21941687.3664   21941694.5434
       -42.691         -33.266
   2118507.973 9   1648000.64847  22467517.443    22467517.4584   22467525.2254
      -946.219        -737.314
   3297705.468 9   2567660.92247  22172958.810    22172959.4674   22172967.0854
     -1695.886       -1321.470
  -3782105.745 9  -2939577.10648  19428398.837    19428399.1384   19428405.5184
       483.895         377.061
  -2064982.982 9  -1600981.13748  20074573.370    20074573.4704   20074580.0744
       315.580         245.906
   1830126.683 8   1441247.29245  23911925.362    23911926.3364   23911933.6514
     -1413.366       -1101.324
 -12575156.235 9  -9466560.23447  22394708.150    22394708.7004   22394716.3424
      4326.808        3371.539
 -10980023.872 9  -8541580.33646  22799800.331    22799800.3624   22799808.1674
      4596.251        3581.494
 96 11 18 17 13 59.9970000  0  8 31 23  3  1 21  9 25 15            -0.003005357
  -2529672.180 9  -1963347.43747  21941976.027    21941976.1684   21941983.3894
       -58.603         -45.665
   2146942.848 9   1670157.62847  22472928.415    22472928.5104   22472936.3004
      -949.560        -739.917
   3348693.169 9   2607391.54647  22182661.603    22182662.1034   22182669.7614
     -1703.111       -1327.099
  -3796410.551 9  -2950723.71348  19425676.741    19425677.0494   19425683.3894
       469.826         366.098
  -2074337.806 9  -1608270.62748  20072793.244    20072793.3484   20072799.8074
       308.131         240.102
   1872723.729 8   1474439.75545  23920031.385    23920032.3494   23920039.6204
     -1426.268       -1111.378
 -12704890.030 9  -9567651.47047  22370020.543    22370021.1754   22370028.8084
      4321.809        3367.643
 -11117856.377 9  -8648982.23946  22773571.472    22773571.6324   22773579.4504
      4592.501        3578.572
 96 11 18 17 14 29.9960000  0  8 31 23  3  1 21  9 25 15            -0.003026565
  -2527654.743 9  -1961775.43047  21942359.937    21942360.0564   21942367.3074
       -75.737         -59.016
   2175502.047 9   1692411.48847  22478362.902    22478363.1644   22478370.9874
      -954.141        -743.486
   3399903.681 9   2647295.78847  22192406.647    22192407.1734   22192414.8424
     -1710.804       -1333.094
  -3810272.462 9  -2961525.20348  19423038.933    19423039.2034   19423045.5214
       454.436         354.106
  -2083461.260 9  -1615379.81948  20071057.155    20071057.2344   20071063.5994
       300.470         234.132
   1915719.907 8   1507943.23945  23928213.388    23928214.2934   23928221.6224
     -1439.897       -1121.998
 -12834437.366 9  -9668597.40647  22345368.699    22345369.1824   22345376.7524
      4315.419        3362.664
 -11255547.098 9  -8756273.65146  22747370.094    22747369.8964   22747377.7984
      4587.468        3574.650
 96 11 18 17 14 59.9960000  0  8 31 23  3  1 21  9 25 15            -0.003047743
  -2525101.312 9  -1959785.75847  21942845.887    21942845.9744   21942853.1954
       -94.058         -73.292
   2204213.332 9   1714783.85947  22483826.630    22483826.7944   22483834.6494
      -959.233        -747.454
   3451372.766 9   2687401.52147  22202200.917    22202201.3824   22202209.1144
     -1720.073       -1340.317
  -3823640.964 9  -2971942.21848  19420494.967    19420495.2424   19420501.5684
       437.367         340.805
  -2092337.843 9  -1622296.64648  20069367.995    20069368.0574   20069374.3764
       291.742         227.331
   1959144.295 8   1541780.38345  23936476.859    23936477.9564   23936485.1994
     -1454.404       -1133.302
 -12963790.739 9  -9769392.20947  22320753.500    22320754.0854   22320761.5794
      4308.807        3357.512
 -11393070.225 9  -8863434.46446  22721200.465    22721200.0434   22721207.9894
      4581.288        3569.835
 96 11 18 17 15 29.9960000  0  8 31 23  3  1 21  9 25 15            -0.003068891
  -2521980.876 9  -1957354.27347  21943439.659    21943439.8014   21943447.0154
      -112.783         -87.883
   2233079.326 9   1737276.78247  22489319.743    22489319.8534   22489327.7634
      -963.901        -751.092
   3503125.508 9   2727728.27047  22212049.126    22212049.6204   22212057.3694
     -1728.645       -1346.996
  -3836481.936 9  -2981948.17448  19418051.319    19418051.6624   19418058.0264
       419.918         327.209
  -2100932.845 9  -1628994.06648  20067732.354    20067732.4614   20067738.7974
       282.586         220.197
   2003011.724 8   1575962.76545  23944824.837    23944825.8024   23944833.1374
     -1468.926       -1144.618
 -13092938.964 9  -9870027.14147  22296177.533    22296178.0744   22296185.4994
      4302.107        3352.291
 -11530397.114 9  -8970442.37846  22695067.842    22695067.5244   22695075.5424
      4575.006        3564.940
 96 11 18 17 15 59.9960000  0  8 31 23  3  1 21  9 25 15            -0.003090054
  -2518349.958 9  -1954525.00847  21944130.629    21944130.7304   21944137.9564
      -129.806        -101.148
   2262032.087 9   1759837.32247  22494829.360    22494829.4534   22494837.4214
      -966.858        -753.396
   3555074.277 9   2768207.77447  22221934.575    22221935.1954   22221942.9054
     -1735.201       -1352.105
  -3848846.115 9  -2991582.59648  19415698.434    19415698.8114   19415705.2064
       403.835         314.677
  -2109308.266 9  -1635520.38348  20066138.492    20066138.6664   20066145.0124
       275.179         214.425
   2047268.079 8   1610448.21945  23953247.026    23953247.6284   23953254.8844
     -1482.056       -1154.849
 -13221929.361 9  -9970539.10047  22271631.486    22271632.0444   22271639.4114
      4296.715        3348.090
 -11667583.774 9  -9077341.02746  22668961.813    22668961.6924   22668969.7944
      4570.143        3561.150
 96 11 18 17 16 29.9960000  0  8 31 23  3  1 21  9 25 15            -0.003111235
  -2514208.441 9  -1951297.87747  21944918.700    21944918.8764   21944926.0834
      -148.415        -115.648
   2291077.147 9   1782469.78947  22500356.599    22500356.6384   22500364.6394
      -971.619        -757.106
   3607225.497 9   2808845.03647  22231858.622    22231859.2464   22231867.0664
     -1743.744       -1358.762
  -3860718.068 9  -3000833.46848  19413439.293    19413439.6834   19413446.1024
       385.585         300.456
  -2117451.861 9  -1641866.05748  20064588.906    20064589.0174   20064595.3894
       265.520         206.899
   2091925.066 8   1645245.87345  23961745.402    23961745.7094   23961752.9824
     -1497.199       -1166.649
 -13350757.852 9 -10070924.88647  22247116.217    22247116.7424   22247124.1394
      4289.852        3342.742
 -11804619.334 9  -9184121.93846  22642884.674    22642884.6614   22642892.7284
      4563.444        3555.930
 96 11 18 17 16 59.9960000  0  8 31 23  3  1 21  9 25 15            -0.003132403
  -2509519.995 9  -1947644.56647  21945810.915    21945811.0404   21945818.2714
      -164.574        -128.239
   2320265.785 9   1805214.13147  22505910.950    22505911.1234   22505919.1844
      -974.718        -759.521
   3659628.304 9   2849678.34247  22241830.603    22241831.2014   22241839.0454
     -1750.013       -1363.646
  -3872058.938 9  -3009670.50848  19411281.199    19411281.6134   19411288.0224
       370.376         288.605
  -2125306.771 9  -1647986.78748  20063094.215    20063094.3384   20063100.7384
       257.808         200.889
   2137026.228 8   1680389.62445  23970328.025    23970328.3214   23970335.3524
     -1509.751       -1176.429
 -13479391.180 9 -10171158.59147  22222638.021    22222638.6014   22222646.0404
      4285.279        3339.178
 -11941461.238 9  -9290751.95746  22616844.494    22616844.5004   22616852.5014
      4558.982        3552.454
 96 11 18 17 17 29.9960000  0  8 31 23  3  1 21  9 25 15            -0.003153578
  -2504349.417 9  -1943615.56947  21946794.913    21946795.0244   21946802.2164
      -180.830        -140.906
   2349553.667 9   1828035.81247  22511484.307    22511484.5024   22511492.6364
      -978.537        -762.496
   3712207.916 9   2890649.42047  22251836.200    22251836.7924   22251844.6314
     -1755.877       -1368.216
  -3882959.310 9  -3018164.30248  19409206.964    19409207.3514   19409213.7664
       355.823         277.265
  -2132935.714 9  -1653931.44048  20061642.517    20061642.6234   20061649.0804
       250.138         194.913
   2182497.028 8   1715821.40145  23978980.979    23978981.2414   23978988.1074
     -1522.237       -1186.159
 -13607880.455 9 -10271280.04847  22198187.328    22198187.8504   22198195.3264
      4280.100        3335.143
 -12078167.925 9  -9397276.61146  22590829.876    22590830.0934   22590838.0434
      4554.173        3548.706
 96 11 18 17 17 59.9960000  0  8 31 23  3  1 21  9 25 15            -0.003174739
  -2498700.960 9  -1939214.20147  21947869.845    21947869.9314   21947877.1424
      -195.910        -152.657
   2378967.882 9   1850955.93947  22517081.721    22517081.9154   22517090.0554
      -982.766        -765.792
   3764968.779 9   2931761.71947  22261876.400    22261876.9134   22261884.7414
     -1761.921       -1372.925
  -3893435.933 9  -3026327.89948  19407213.325    19407213.7104   19407220.1034
       342.502         266.885
  -2140327.074 9  -1659690.95448  20060235.988    20060236.1204   20060242.6304
       242.334         188.832
   2228332.945 8   1751537.66745  23987703.242    23987703.7104   23987710.3394
     -1533.595       -1195.009
 -13736225.747 9 -10371289.30747  22173764.161    22173764.4694   22173772.0114
      4276.117        3332.039
 -12214731.282 9  -9503689.59246  22564842.456    22564842.9084   22564850.8504
      4549.801        3545.299
 96 11 18 17 18 29.9960000  0  8 31 23  3  1 21  9 25 15            -0.003195834
  -2492541.682 9  -1934414.78947  21949041.920    21949041.9934   21949049.1824
      -212.918        -165.910
   2408582.833 9   1874032.48047  22522717.394    22522717.5774   22522725.6894
      -989.675        -771.175
   3817986.581 9   2973074.22947  22271965.493    22271965.9354   22271973.7294
     -1770.697       -1379.764
  -3903460.479 9  -3034139.22948  19405305.711    19405306.0884   19405312.4854
       327.630         255.296
  -2147414.699 9  -1665213.78848  20058887.293    20058887.4214   20058893.9644
       232.233         180.961
   2274568.794 8   1787565.59345  23996501.631    23996502.3774   23996508.5864
     -1546.887       -1205.366
 -13864385.853 9 -10471154.26547  22149375.985    22149376.3714   22149383.9484
      4269.696        3327.036
 -12351096.806 9  -9609948.39446  22538893.033    22538893.4254   22538901.3594
      4543.105        3540.082
 96 11 18 17 18 59.9960000  0  8 31 23  3  1 21  9 25 15            -0.003216873
  -2485907.717 9  -1929245.48847  21950304.334    21950304.3814   21950311.5544
      -229.841        -179.097
   2438367.613 9   1897241.36347  22528385.421    22528385.5114   22528393.5864
      -996.241        -776.292
   3871239.723 9   3014570.12947  22282099.413    22282099.7434   22282107.5514
     -1779.783       -1386.844
  -3913082.197 9  -3041636.67248  19403474.762    19403475.1254   19403481.4934
       313.200         244.052
  -2154241.459 9  -1670533.35248  20057588.165    20057588.3374   20057594.8864
       222.455         173.341
   2321164.186 8   1823873.70045  24005368.589    24005369.3064   24005375.3934
     -1559.945       -1215.542
 -13992380.985 9 -10570890.66947  22125019.118    22125019.6724   22125027.2454
      4262.916        3321.753
 -12487294.347 9  -9716076.29846  22512975.651    22512975.8884   22512983.8914
      4536.252        3534.742
 96 11 18 17 19 29.9960000  0  8 31 23  3  1 21  9 25 15            -0.003237839
  -2478757.576 9  -1923673.97647  21951664.942    21951665.0634   21951672.1534
      -245.849        -191.571
   2468344.186 9   1920599.69147  22534089.829    22534089.9724   22534098.0114
     -1001.066        -780.051
   3924769.749 9   3056281.78847  22292285.716    22292286.2134   22292293.9964
     -1787.720       -1393.029
  -3922252.509 9  -3048782.36448  19401729.760    19401730.0944   19401736.4094
       299.052         233.028
  -2160762.268 9  -1675614.52448  20056347.303    20056347.4664   20056353.9974
       213.266         166.181
   2368166.691 8   1860499.06445  24014312.947    24014313.5604   24014319.5014
     -1572.554       -1225.367
 -14120162.034 9 -10670460.26147  22100703.073    22100703.7194   22100711.3014
      4256.993        3317.137
 -12623276.364 9  -9822036.27346  22487099.084    22487099.4164   22487107.3644
      4530.342        3530.137
 96 11 18 17 19 59.9960000  0  8 31 23  3  1 21  9 25 15            -0.003258777
  -2471134.959 9  -1917734.29747  21953115.571    21953115.6424   21953122.6454
      -262.909        -204.864
   2498457.544 9   1944064.60147  22539820.364    22539820.4164   22539828.4264
     -1006.988        -784.666
   3978525.547 9   3098169.36047  22302515.124    22302515.6564   22302523.4204
     -1796.431       -1399.816
  -3930994.804 9  -3055594.53448  19400066.227    19400066.5124   19400072.8054
       283.084         220.585
  -2167011.956 9  -1680484.42848  20055158.090    20055158.1984   20055164.7244
       202.917         158.117
   2415538.169 8   1897411.93945  24023327.624    24023327.9964   24023334.0914
     -1586.236       -1236.028
 -14247775.311 9 -10769899.11447  22076418.850    22076419.6814   22076427.3084
      4249.862        3311.581
 -12759090.793 9  -9927865.65746  22461254.825    22461254.8414   22461262.7274
      4523.338        3524.679
 96 11 18 17 20 29.9960000  0  8 31 23  3  1 21  9 25 15            -0.003279667
  -2462979.124 9  -1911379.11847  21954667.577    21954667.6364   21954674.6234
      -280.730        -218.751
   2528747.197 9   1967666.89046  22545584.369    22545584.4334   22545592.3934
     -1012.088        -788.640
   4032540.304 9   3140258.72147  22312793.767    22312794.3884   22312802.0844
     -1804.148       -1405.830
  -3939238.706 9  -3062018.35148  19398497.551    19398497.8084   19398504.0744
       266.580         207.725
  -2172953.463 9  -1685114.18848  20054027.491    20054027.5864   20054034.1054
       193.490         150.771
   2463338.916 8   1934659.29045  24032423.904    24032424.2614   24032430.4454
     -1600.317       -1247.000
 -14375148.027 9 -10869150.54047  22052180.630    22052181.4334   22052189.0304
      4241.915        3305.388
 -12894684.855 9 -10033523.33246  22435452.352    22435452.2064   22435459.9924
      4516.404        3519.276
 96 11 18 17 20 59.9960000  0  8 31 23  3  1 21  9 25 15            -0.003300558
  -2454314.061 9  -1904627.14447  21956316.454    21956316.5464   21956323.5544
      -295.030        -229.894
   2559156.343 9   1991362.28247  22551371.003    22551371.1094   22551379.0744
     -1013.331        -789.609
   4086741.624 9   3182493.45347  22323108.045    22323108.6024   22323116.3074
     -1807.225       -1408.227
  -3946999.905 9  -3068066.04148  19397020.604    19397020.9174   19397027.1854
       252.697         196.907
  -2178640.493 9  -1689545.64748  20052945.262    20052945.3674   20052951.9104
       187.533         146.130
   2511543.142 8   1972221.05645  24041596.899    24041597.2664   24041603.5724
     -1611.358       -1255.604
 -14502315.026 9 -10968241.66147  22027981.547    22027982.3174   22027989.8944
      4237.872        3302.238
 -13030095.563 9 -10139038.13146  22409684.282    22409684.3884   22409692.1084
      4512.836        3516.495
 96 11 18 17 21 29.9960000  0  8 31 23  3  1 21  9 25 15            -0.003321479
  -2445166.482 9  -1897499.17147  21958057.197    21958057.2864   21958064.3634
      -313.802        -244.521
   2589659.421 9   2015130.86346  22557175.533    22557175.7334   22557183.6704
     -1019.431        -794.362
   4141073.768 9   3224830.13247  22333447.141    22333447.7474   22333455.4234
     -1814.021       -1413.523
  -3954291.794 9  -3073748.02748  19395632.992    19395633.2994   19395639.6094
       234.520         182.743
  -2184106.618 9  -1693804.98048  20051905.053    20051905.1984   20051911.7744
       177.930         138.647
   2560128.871 8   2010080.11345  24050842.343    24050842.7284   24050849.3674
     -1626.630       -1267.504
 -14629313.291 9 -11067201.29447  22003814.562    22003815.3034   22003822.8474
      4229.602        3295.794
 -13165349.461 9 -10244430.74346  22383946.132    22383946.4064   22383954.0884
      4505.031        3510.414
 96 11 18 17 21 59.9960000  0  8 31 23  3  1 21  9 25 15            -0.003342419
  -2435542.876 9  -1890000.27547  21959888.495    21959888.6284   21959895.7364
      -329.053        -256.405
   2620284.432 9   2038994.45546  22563003.422    22563003.5594   22563011.4204
     -1023.505        -797.536
   4195535.418 9   3267267.72947  22343810.958    22343811.4844   22343819.1664
     -1818.262       -1416.828
  -3961116.700 9  -3079066.13048  19394334.174    19394334.5314   19394340.8874
       219.442         170.994
  -2189370.519 9  -1697906.72248  20050903.353    20050903.4824   20050910.1284
       171.743         133.826
   2609090.976 8   2048232.42945  24060159.678    24060159.9544   24060166.9954
     -1638.867       -1277.039
 -14756135.532 9 -11166023.78047  21979681.108    21979681.7764   21979689.2964
      4223.852        3291.313
 -13300440.333 9 -10349696.32646  22358239.008    22358239.4004   22358247.1064
      4499.669        3506.236
 96 11 18 17 22 29.9960000  0  8 31 23  3  1 21  9 25 15            -0.003363357
  -2425451.356 9  -1882136.77147  21961808.768    21961809.0144   21961816.1484
      -344.213        -268.218
   2651043.493 9   2062962.49947  22568856.816    22568856.8864   22568864.7294
     -1027.835        -800.910
   4250149.313 9   3309823.93347  22354203.733    22354204.1784   22354211.8884
     -1823.232       -1420.700
  -3967496.120 9  -3084037.10148  19393120.115    19393120.5054   19393126.9144
       205.398         160.050
  -2194439.472 9  -1701856.56348  20049938.725    20049938.8724   20049945.5744
       165.495         128.957
   2658440.768 8   2086686.84146  24069550.425    24069550.8174   24069558.2134
     -1651.583       -1286.948
 -14882769.274 9 -11264699.38047  21955583.450    21955584.1384   21955591.5954
      4217.900        3286.675
 -13435351.817 9 -10454822.12346  22332566.552    22332566.5434   22332574.2544
      4493.868        3501.715
 96 11 18 17 22 59.9960000  0  8 31 23  3  1 21  9 25 15            -0.003384280
  -2414906.470 9  -1873919.99447  21963815.425    21963815.6674   21963822.7904
      -358.762        -279.555
   2681950.687 9   2087045.97547  22574738.350    22574738.3334   22574746.1804
     -1032.437        -804.496
   4304924.426 9   3352505.77147  22364627.150    22364627.5754   22364635.3144
     -1828.553       -1424.846
  -3973449.598 9  -3088676.17748  19391987.183    19391987.5854   19391993.9644
       191.657         149.343
  -2199301.803 9  -1705645.40448  20049013.460    20049013.6144   20049020.2884
       158.585         123.573
   2708180.029 8   2125444.75245  24079015.445    24079015.7744   24079023.5884
     -1664.215       -1296.791
 -15009219.469 9 -11363231.96247  21931520.838    21931521.4354   21931528.7994
      4212.122        3282.173
 -13570078.759 9 -10559804.12246  22306928.771    22306928.7804   22306936.4964
      4488.007        3497.148
 96 11 18 17 23 29.9960000  0  8 31 23  3  1 21  9 25 15            -0.003405175
  -2403918.355 9  -1865357.83347  21965906.493    21965906.6664   21965913.8234
      -374.028        -291.450
   2713010.456 9   2111248.33347  22580648.731    22580648.8154   22580656.7214
     -1038.370        -809.119
   4359887.691 9   3395334.24047  22375086.398    22375086.8314   22375094.5244
     -1835.985       -1430.638
  -3978992.422 9  -3092995.26048  19390932.466    19390932.8524   19390939.1644
       177.593         138.384
  -2203937.362 9  -1709257.53548  20048131.443    20048131.5314   20048138.1614
       150.008         116.889
   2758305.808 8   2164503.83046  24088553.999    24088554.4394   24088562.5864
     -1677.743       -1307.332
 -15135481.681 9 -11461618.06547  21907493.907    21907494.4814   21907501.7934
      4204.940        3276.577
 -13704617.366 9 -10664639.36246  22281326.589    22281326.9284   22281334.6634
      4480.930        3491.634
 96 11 18 17 23 59.9960000  0  8 31 23  3  1 21  9 25 15            -0.003426029
  -2392495.731 9  -1856457.09947  21968080.146    21968080.3854   21968087.5094
      -388.572        -302.783
   2744218.081 9   2135565.90747  22586587.306    22586587.3974   22586595.3664
     -1042.924        -812.668
   4415063.418 9   3438328.25347  22385586.028    22385586.4544   22385594.1244
     -1843.207       -1436.265
  -3984132.369 9  -3097000.41948  19389954.422    19389954.7784   19389961.0364
       164.196         127.945
  -2208314.021 9  -1712667.93248  20047298.641    20047298.7434   20047305.2794
       140.659         109.604
   2808814.589 8   2203861.33746  24098165.655    24098165.9834   24098174.3614
     -1690.475       -1317.253
 -15261538.554 9 -11559844.16447  21883506.011    21883506.6364   21883513.9304
      4197.990        3271.161
 -13838957.688 9 -10769320.09846  22255762.678    22255762.7964   22255770.4764
      4474.127        3486.333
 96 11 18 17 24 29.9960000  0  8 31 23  3  1 21  9 25 15            -0.003446857
  -2380650.209 9  -1847226.83047  21970334.376    21970334.5444   21970341.6494
      -401.748        -313.050
   2775530.217 9   2159964.93147  22592545.818    22592545.8714   22592553.8534
     -1045.018        -814.300
   4470427.077 9   3481468.71047  22396121.427    22396121.8594   22396129.5194
     -1847.989       -1439.991
  -3988894.381 9  -3100711.08248  19389048.319    19389048.6384   19389054.8134
       152.502         118.833
  -2212414.143 9  -1715862.83348  20046518.473    20046518.5584   20046525.0474
       132.261         103.061
   2859681.188 8   2243497.65346  24107844.948    24107845.4474   24107854.1924
     -1700.972       -1325.433
 -15387412.375 9 -11657927.62447  21859552.896    21859553.6334   21859560.8804
      4193.021        3267.289
 -13973116.687 9 -10873859.55347  22230233.205    22230233.1434   22230240.7664
      4469.335        3482.599
 96 11 18 17 24 59.9960000  0  8 31 23  3  1 21  9 25 15            -0.003467681
  -2368367.025 9  -1837655.51847  21972671.865    21972671.9704   21972679.0614
      -417.573        -325.382
   2806928.960 9   2184431.43647  22598520.735    22598520.8444   22598528.8864
     -1048.552        -817.053
   4525961.283 9   3524742.05247  22406689.288    22406689.7224   22406697.3774
     -1854.717       -1445.234
  -3993248.134 9  -3104103.61848  19388219.827    19388220.1574   19388226.3224
       137.557         107.187
  -2216220.516 9  -1718828.85048  20045794.228    20045794.2954   20045800.7074
       121.227          94.463
   2910892.277 8   2283402.38346  24117589.817    24117590.5404   24117599.5394
     -1713.459       -1335.163
 -15513098.011 9 -11755864.44547  21835635.682    21835636.4044   21835643.6604
      4185.650        3261.545
 -14107094.975 9 -10978258.18547  22204737.663    22204737.8954   22204745.4544
      4462.209        3477.046
 96 11 18 17 25 29.9960000  0  8 31 23  3  1 21  9 25 15            -0.003488495
  -2355632.876 9  -1827732.81347  21975095.039    21975095.1554   21975102.2394
      -433.203        -337.561
   2838417.432 9   2208967.85947  22604512.797    22604512.9064   22604520.9584
     -1052.412        -820.061
   4581671.005 9   3568152.18047  22417290.500    22417290.9504   22417298.6104
     -1860.716       -1449.909
  -3997183.729 9  -3107170.31848  19387470.834    19387471.2024   19387477.4074
       123.255          96.043
  -2219718.994 9  -1721554.94148  20045128.514    20045128.5884   20045134.9144
       110.541          86.136
   2962452.547 8   2323579.21146  24127401.174    24127402.0324   24127411.3254
     -1725.375       -1344.448
 -15638580.194 9 -11853642.73647  21811757.234    21811757.9104   21811765.1444
      4178.108        3255.669
 -14240879.205 9 -11082505.61046  22179279.417    22179279.5084   22179287.0774
      4455.120        3471.522
 96 11 18 17 25 59.9960000  0  8 31 23  3  1 21  9 25 15            -0.003509303
  -2342440.452 9  -1817453.00447  21977605.475    21977605.5884   21977612.6734
      -448.326        -349.345
   2869999.630 9   2233577.31947  22610522.547    22610522.7254   22610530.8984
     -1055.034        -822.104
   4637523.866 9   3611673.82347  22427918.937    22427919.4564   22427927.1484
     -1864.557       -1452.902
  -4000708.509 9  -3109916.90048  19386800.013    19386800.4244   19386806.6934
       109.951          85.676
  -2222929.641 9  -1724056.74548  20044517.429    20044517.5964   20044523.9424
       101.729          79.269
   3014342.390 8   2364012.87446  24137275.579    24137276.1904   24137285.6434
     -1735.654       -1352.458
 -15763850.046 9 -11951255.56847  21787919.119    21787919.7954   21787927.0794
      4171.461        3250.489
 -14374473.872 9 -11186605.32147  22153857.150    22153857.1984   22153864.8594
      4449.380        3467.049
 96 11 18 17 26 29.9960000  0  8 31 23  3  1 21  9 25 15            -0.003530079
  -2328730.823 9  -1806770.18647  21980214.406    21980214.4984   21980221.5584
      -465.126        -362.436
   2901728.081 9   2258300.73747  22616560.217    22616560.4694   22616568.6724
     -1059.813        -825.828
   4693540.567 9   3655323.12747  22438578.502    22438579.1404   22438586.8394
     -1869.446       -1456.711
  -4003783.941 9  -3112313.34148  19386214.762    19386215.1874   19386221.5124
        95.494          74.411
  -2225837.356 9  -1726322.50148  20043963.977    20043964.2114   20043970.6594
        92.786          72.301
   3066593.848 8   2404728.35146  24147218.357    24147219.3634   24147228.7754
     -1747.199       -1361.454
 -15888866.435 9 -12048670.89647  21764129.202    21764129.8954   21764137.2804
      4163.338        3244.159
 -14507843.117 9 -11290529.38146  22128477.613    22128477.8064   22128485.4434
      4442.355        3461.575
 96 11 18 17 26 59.9960000  0  7 31 23  3  1 21 25 15               -0.003550827
  -2314526.726 9  -1795702.06047  21982917.360    21982917.4254   21982924.5204
      -483.488        -376.744
   2933607.103 9   2283141.49347  22622626.744    22622626.8934   22622635.0924
     -1067.354        -831.704
   4749700.040 9   3699083.69847  22449265.451    22449266.0144   22449273.7054
     -1876.318       -1462.066
  -4006430.138 9  -3114375.31448  19385711.233    19385711.6444   19385717.9894
        79.430          61.894
  -2228491.216 9  -1728390.44348  20043458.902    20043459.1274   20043465.6704
        82.382          64.194
 -16013641.864 9 -12145898.46547  21740385.222    21740385.8604   21740393.3224
      4153.332        3236.363
 -14641001.151 9 -11394288.87946  22103138.628    22103138.6074   22103146.2634
      4433.084        3454.351
 96 11 18 17 27 29.9960000  0  7 31 23  3  1 21 25 15               -0.003571489
  -2299773.592 9  -1784206.12447  21985724.791    21985724.8384   21985732.0264
      -499.279        -389.049
   2965731.215 9   2308173.22647  22628739.830    22628739.9784   22628748.1694
     -1073.237        -836.288
   4806072.810 9   3743010.45547  22459992.918    22459993.4624   22460001.1424
     -1881.066       -1465.766
  -4008602.060 9  -3116067.72148  19385298.025    19385298.3994   19385304.7024
        66.066          51.480
  -2230838.287 9  -1730219.33748  20043012.242    20043012.4544   20043019.0504
        74.843          58.319
 -16138109.539 9 -12242886.22547  21716699.701    21716700.3694   21716707.9604
      4145.327        3230.125
 -14773874.310 9 -11497826.36947  22077853.514    22077853.6014   22077861.2964
      4425.924        3448.772
 96 11 18 17 27 59.9960000  0  7 31 23  3  1 21 25 15               -0.003592129
  -2284571.047 9  -1772360.00247  21988617.671    21988617.7724   21988624.9824
      -514.462        -400.879
   2998001.163 9   2333318.59747  22634880.769    22634880.8034   22634889.0004
     -1078.330        -840.257
   4862570.390 9   3787034.45347  22470743.934    22470744.5934   22470752.3594
     -1885.782       -1469.441
  -4010382.070 9  -3117454.74948  19384959.314    19384959.7054   19384965.9584
        52.347          40.790
  -2232977.203 9  -1731886.03148  20042605.270    20042605.4324   20042612.0484
        67.344          52.476
 -16262359.594 9 -12339704.41847  21693055.696    21693056.2904   21693063.9904
      4137.921        3224.354
 -14906549.789 9 -11601209.82947  22052606.226    22052606.2774   22052613.9354
      4418.800        3443.221
 96 11 18 17 28 29.9960000  0  7 31 23  3  1 21 25 15               -0.003612727
  -2268895.305 9  -1760145.14947  21991600.675    21991600.7994   21991607.9904
      -529.889        -412.901
   3030454.911 9   2358607.18647  22641056.521    22641056.5974   22641064.7594
     -1084.486        -845.054
   4919244.967 9   3831196.40447  22481528.708    22481529.4014   22481537.3214
     -1891.931       -1474.232
  -4011719.890 9  -3118497.21248  19384704.731    19384705.1044   19384711.3514
        37.375          29.123
  -2234860.538 9  -1733353.56648  20042246.891    20042247.0644   20042253.6854
        58.789          45.810
 -16386366.384 9 -12436333.04547  21669457.899    21669458.4844   21669466.2804
      4129.677        3217.930
 -15038976.693 9 -11704399.59147  22027406.253    22027406.2194   22027413.8614
      4410.187        3436.509
 96 11 18 17 28 59.9960000  0  7 31 23  3  1 21 25 15               -0.003633312
  -2252803.039 9  -1747605.73547  21994662.906    21994663.0794   21994670.2694
      -543.020        -423.132
   3063047.245 9   2384003.76347  22647258.651    22647258.7644   22647266.8834
     -1088.249        -847.986
   4976068.890 9   3875474.72147  22492342.022    22492342.6674   22492350.6574
     -1896.243       -1477.592
  -4012637.801 9  -3119212.47148  19384529.988    19384530.3934   19384536.6374
        23.830          18.569
  -2236509.635 9  -1734638.58348  20041933.096    20041933.2824   20041939.8904
        51.114          39.829
 -16510159.823 9 -12532795.43147  21645900.519    21645901.3394   21645909.1724
      4123.120        3212.821
 -15171175.230 9 -11807411.41047  22002249.538    22002249.6924   22002257.2814
      4403.049        3430.947
 96 11 18 17 29 29.9960000  0  7 31 23  3  1 21 25 15               -0.003653891
  -2236292.304 9  -1734740.23947  21997804.760    21997804.9504   21997812.1744
      -556.524        -433.655
   3095765.777 9   2409498.66647  22653484.819    22653484.9184   22653493.0054
     -1091.513        -850.530
   5033039.905 9   3919867.65747  22503183.347    22503183.9344   22503191.9454
     -1900.486       -1480.898
  -4013124.025 9  -3119591.35248  19384437.356    19384437.8264   19384444.1114
         9.844           7.671
  -2237906.433 9  -1735727.00948  20041667.319    20041667.5184   20041674.1314
        43.121          33.601
 -16633727.518 9 -12629081.89947  21622386.345    21622387.1474   21622394.9494
      4115.936        3207.223
 -15303141.193 9 -11910241.99747  21977137.267    21977137.3964   21977144.9234
      4395.911        3425.385
 96 11 18 17 29 59.9960000  0  7 31 23  3  1 21 25 15               -0.003674482
  -2219363.578 9  -1721549.04047  22001026.146    22001026.3944   22001033.6544
      -573.266        -446.701
   3128586.343 9   2435073.07846  22659730.508    22659730.5524   22659738.5504
     -1097.760        -855.397
   5090139.156 9   3964360.49747  22514048.985    22514049.5774   22514057.6754
     -1907.094       -1486.047
  -4013179.170 9  -3119634.32248  19384426.827    19384427.3124   19384433.6194
        -7.186          -5.599
  -2239051.107 9  -1736618.97448  20041449.476    20041449.7064   20041456.3134
        32.146          25.049
 -16757072.902 9 -12725195.15847  21598914.588    21598915.2734   21598923.0384
      4105.965        3199.453
 -15434884.984 9 -12012899.46047  21952067.076    21952067.3964   21952074.8894
      4385.945        3417.619
 96 11 18 17 30 29.9960000  0  7 31 23  3  1 21 25 15               -0.003695050
  -2201963.720 9  -1707990.71747  22004337.254    22004337.4564   22004344.7304
      -587.654        -457.912
   3161568.103 9   2460773.08746  22666006.792    22666006.7564   22666014.7624
     -1101.830        -858.569
   5147395.850 9   4008976.02447  22524944.565    22524945.2224   22524953.2984
     -1910.870       -1488.990
  -4012763.647 9  -3119310.53648  19384505.915    19384506.3774   19384512.7034
       -21.167         -16.494
  -2239902.411 9  -1737282.33448  20041287.494    20041287.7184   20041294.3284
        23.712          18.477
 -16880146.380 9 -12821096.52947  21575494.436    21575495.1374   21575502.8544
      4097.961        3193.216
 -15566362.217 9 -12115349.22247  21927047.777    21927048.1054   21927055.5084
      4378.386        3411.729
 96 11 18 17 30 59.9960000  0  7 31 23  3  1 21 25 15               -0.003715606
  -2184121.738 9  -1694087.89047  22007732.420    22007732.6524   22007739.9264
      -602.150        -469.208
   3194676.303 9   2486571.61746  22672307.020    22672306.9674   22672315.0424
     -1105.647        -861.543
   5204765.623 9   4053679.65847  22535861.702    22535862.3244   22535870.4894
     -1914.079       -1491.490
  -4011935.244 9  -3118665.02748  19384663.540    19384664.0264   19384670.3614
       -34.228         -26.671
  -2240489.737 9  -1737740.00148  20041175.703    20041175.9144   20041182.5814
        15.227          11.865
 -17002968.867 9 -12916802.33247  21552121.960    21552122.7594   21552130.4294
      4090.056        3187.057
 -15697609.985 9 -12217620.17046  21902072.253    21902072.4694   21902079.8764
      4371.291        3406.201
 96 11 18 17 31 29.9960000  0  7 31 23  3  1 21 25 15               -0.003736125
  -2165800.979 9  -1679811.99647  22011218.771    22011218.9864   22011226.2464
      -619.162        -482.464
   3227946.996 9   2512496.76346  22678638.104    22678638.2214   22678646.3734
     -1112.362        -866.776
   5262280.128 9   4098496.07446  22546806.302    22546806.9944   22546815.1744
     -1920.314       -1496.349
  -4010677.924 9  -3117685.29448  19384902.829    19384903.3274   19384909.6364
       -49.614         -38.660
  -2240786.195 9  -1737971.00848  20041119.279    20041119.5274   20041126.2074
         4.525           3.526
 -17125515.692 9 -13012293.33347  21528802.262    21528802.9104   21528810.4564
      4079.737        3179.016
 -15828604.349 9 -12319693.65746  21877144.795    21877145.0664   21877152.4674
      4361.538        3398.601
 96 11 18 17 31 59.9960000  0  7 31 23  3  1 21 25 15               -0.003756606
  -2147012.896 9  -1665171.95547  22014793.987    22014794.2044   22014801.4804
      -633.190        -493.395
   3261390.385 9   2538556.48746  22685002.157    22685002.3414   22685010.5164
     -1117.160        -870.514
   5319945.044 9   4143429.69047  22557779.617    22557780.3664   22557788.5284
     -1923.930       -1499.166
  -4008988.900 9  -3116369.17448  19385224.312    19385224.7464   19385231.0264
       -62.923         -49.031
  -2240798.479 9  -1737980.58848  20041117.030    20041117.2334   20041123.9334
        -3.717          -2.896
 -17247791.887 9 -13107573.45047  21505533.760    21505534.5054   21505541.9074
      4071.981        3172.972
 -15959336.913 9 -12421563.15547  21852267.257    21852267.4344   21852274.8174
      4353.980        3392.712
 96 11 18 17 32 29.9960000  0  7 31 23  3  1 21 25 15               -0.003777063
  -2127807.795 9  -1650206.95447  22018448.555    22018448.8074   22018456.0974
      -646.867        -504.052
   3294980.833 9   2564730.80246  22691394.191    22691394.4984   22691402.6574
     -1121.730        -874.075
   5377727.711 9   4188455.05447  22568775.318    22568776.1044   22568784.3554
     -1928.103       -1502.418
  -4006904.911 9  -3114745.28648  19385620.907    19385621.3074   19385627.5954
       -75.708         -58.993
  -2240549.216 9  -1737786.37148  20041164.538    20041164.7324   20041171.4004
       -12.632          -9.843
 -17369824.352 9 -13202663.64447  21482311.760    21482312.5414   21482319.8254
      4063.825        3166.617
 -16089834.521 9 -12523249.56647  21827434.302    21827434.4914   21827441.9294
      4346.176        3386.631
 96 11 18 17 32 59.9960000  0  7 31 23  3  1 21 25 15               -0.003797488
  -2108180.510 9  -1634912.97747  22022183.556    22022183.7384   22022191.0624
      -660.352        -514.560
   3328721.865 9   2591022.45946  22697815.087    22697815.2964   22697823.4694
     -1126.301        -877.637
   5435658.387 9   4233595.77047  22579799.285    22579800.0134   22579808.3074
     -1932.679       -1505.984
  -4004416.931 9  -3112806.60148  19386094.305    19386094.7294   19386101.0744
       -89.069         -69.404
  -2240018.167 9  -1737372.58648  20041265.709    20041265.8564   20041272.4824
       -21.409         -16.682
 -17491598.295 9 -13297552.39547  21459139.112    21459139.7244   21459146.9484
      4055.713        3160.296
 -16220081.882 9 -12624741.00247  21802649.190    21802649.2334   21802656.6834
      4338.222        3380.433
 96 11 18 17 33 29.9960000  0  7 31 23  3  1 21 25 15               -0.003817903
  -2088154.243 9  -1619308.11047  22025994.382    22025994.5974   22026001.9664
      -674.404        -525.510
   3362599.924 9   2617420.89746  22704261.901    22704262.1504   22704270.4094
     -1131.756        -881.888
   5493719.741 9   4278838.30747  22590848.066    22590848.8214   22590857.2164
     -1937.515       -1509.752
  -4001522.428 9  -3110551.13848  19386645.080    19386645.5104   19386651.8934
      -103.335         -80.521
  -2239230.432 9  -1736758.78148  20041415.622    20041415.7884   20041422.3464
       -30.698         -23.921
 -17613126.260 9 -13392249.46547  21436013.102    21436013.7324   21436020.9004
      4046.528        3153.139
 -16350091.512 9 -12726047.17347  21777908.987    21777909.2054   21777916.6964
      4329.480        3373.621
 96 11 18 17 33 59.9960000  0  7 31 23  3  1 21 25 15               -0.003838282
  -2067692.806 9  -1603364.14147  22029888.094    22029888.3104   22029895.6504
      -688.514        -536.504
   3396649.254 9   2643952.79546  22710741.201    22710741.6064   22710749.8874
     -1136.688        -885.731
   5551921.306 9   4324190.11346  22601923.720    22601924.2964   22601932.6834
     -1941.225       -1512.643
  -3998199.703 9  -3107961.99949  19387277.355    19387277.7874   19387284.1704
      -116.574         -90.837
  -2238148.290 9  -1735915.56748  20041621.559    20041621.7434   20041628.2564
       -40.166         -31.298
 -17734365.824 9 -13486721.80847  21412942.054    21412942.5634   21412949.7754
      4037.563        3146.153
 -16479828.197 9 -12827140.68247  21753220.829    21753221.1414   21753228.6304
      4321.132        3367.116
 96 11 18 17 34 29.9960000  0  7 31 23  3  1 21 25 15               -0.003858632
  -2046804.912 9  -1587087.88647  22033863.084    22033863.2374   22033870.5694
      -705.472        -549.718
   3430828.817 9   2670586.17446  22717245.480    22717245.8524   22717254.1414
     -1143.180        -890.790
   5610237.627 9   4369631.33146  22613021.034    22613021.5664   22613029.9544
     -1947.831       -1517.790
  -3994504.467 9  -3105082.59549  19387980.616    19387980.9864   19387987.3594
      -131.160        -102.203
  -2236789.430 9  -1734856.73148  20041880.161    20041880.3554   20041886.8104
       -51.596         -40.205
 -17855343.911 9 -13580990.40747  21389920.530    21389921.1704   21389928.4224
      4026.362        3137.425
 -16609323.130 9 -12928045.79547  21728578.922    21728579.0124   21728586.6224
      4310.561        3358.879
 96 11 18 17 34 59.9960000  0  7 31 23  3  1 21 25 15               -0.003878928
  -2025432.594 9  -1570434.14447  22037930.274    22037930.3174   22037937.6264
      -720.252        -561.235
   3465175.572 9   2697349.83447  22723781.568    22723781.9834   22723790.1464
     -1147.514        -894.167
   5668718.450 9   4415200.73146  22624149.585    22624150.2074   22624158.5134
     -1951.604       -1520.730
  -3990389.433 9  -3101876.08249  19388763.717    19388764.0884   19388770.4444
      -143.986        -112.197
  -2235122.070 9  -1733557.51048  20042197.496    20042197.6604   20042204.0684
       -60.551         -47.183
 -17976011.827 9 -13675017.31147  21366958.140    21366958.8254   21366966.1104
      4017.281        3130.349
 -16738523.783 9 -13028721.61447  21703992.813    21703992.9084   21704000.5524
      4301.904        3352.133
 96 11 18 17 35 29.9960000  0  7 31 23  3  1 21 25 15               -0.003899198
  -2003625.098 9  -1553441.30547  22042080.034    22042080.1734   22042087.4824
      -734.358        -572.227
   3499651.319 9   2724214.00747  22730342.144    22730342.5514   22730350.6744
     -1151.445        -897.230
   5727297.116 9   4460846.37946  22635296.921    22635297.4244   22635305.6484
     -1954.391       -1522.902
  -3985896.445 9  -3098375.06149  19389618.690    19389619.0934   19389625.4424
      -156.191        -121.707
  -2233182.945 9  -1732046.52248  20042566.526    20042566.6484   20042573.0824
       -69.441         -54.110
 -18096407.592 9 -13768832.14147  21344047.536    21344048.2714   21344055.5714
      4008.513        3123.517
 -16867467.920 9 -13129197.54447  21679455.380    21679455.6354   21679463.3254
      4293.612        3345.672
 96 11 18 17 35 59.9960000  0  7 31 23  3  1 21 25 15               -0.003919415
  -1981340.399 9  -1536076.62347  22046320.718    22046320.8234   22046328.1704
      -750.577        -584.865
   3534296.416 9   2751210.13247  22736935.109    22736935.3734   22736943.4934
     -1157.619        -902.041
   5786018.495 9   4506603.21746  22646471.251    22646471.7954   22646480.0054
     -1959.826       -1527.137
  -3980980.816 9  -3094544.71149  19390554.146    19390554.5214   19390560.8594
      -170.893        -133.163
  -2230921.161 9  -1730284.11448  20042996.875    20042997.0384   20043003.5104
       -80.489         -62.719
 -18216483.527 9 -13862397.74847  21321197.787    21321198.5824   21321205.8804
      3997.273        3114.758
 -16996107.244 9 -13229435.96547  21654976.175    21654976.3524   21654984.0594
      4282.976        3337.384
 96 11 18 17 36 29.9960000  0  7 31 23  3  1 21 25 15               -0.003939596
  -1958618.567 9  -1518371.31647  22050644.596    22050644.6934   22050651.9914
      -763.839        -595.199
   3569097.993 9   2778328.18747  22743557.936    22743558.0274   22743566.1384
     -1162.390        -905.758
   5844870.324 9   4552461.70746  22657670.382    22657670.9254   22657679.2224
     -1963.215       -1529.778
  -3975653.877 9  -3090393.85649  19391567.818    19391568.2114   19391574.5654
      -184.088        -143.445
  -2228374.439 9  -1728299.67348  20043481.489    20043481.6804   20043488.1924
       -89.033         -69.376
 -18336253.676 9 -13955725.08447  21298406.345    21298407.1064   21298414.3334
      3987.587        3107.211
 -17124459.679 9 -13329450.82847  21630551.668    21630551.7644   21630559.3854
      4274.079        3330.451
 96 11 18 17 36 59.9960000  0  7 31 23  3  1 21 25 15               -0.003959744
  -1935480.048 9  -1500341.32047  22055047.708    22055047.7984   22055055.0954
      -778.274        -606.447
   3604085.882 9   2805591.43047  22750216.056    22750216.1354   22750224.2434
     -1169.686        -911.444
   5903838.457 9   4598410.84046  22668891.654    22668892.2544   22668900.5144
     -1967.561       -1533.164
  -3969893.732 9  -3085905.44249  19392663.932    19392664.3324   19392670.7074
      -199.355        -155.341
  -2225536.202 9  -1726088.07648  20044021.577    20044021.7734   20044028.3644
       -99.810         -77.774
 -18455698.495 9 -14048798.91047  21275676.821    21275677.4824   21275684.6854
      3975.961        3098.151
 -17252514.804 9 -13429234.02347  21606183.593    21606183.7014   21606191.2764
      4263.393        3322.124
 96 11 18 17 37 29.9960000  0  7 31 23  3  1 21 25 15               -0.003979855
  -1911933.915 9  -1481993.71247  22059528.522    22059528.4774   22059535.7934
      -790.811        -616.216
   3639271.552 9   2833008.78247  22756911.669    22756911.8264   22756919.9274
     -1175.146        -915.698
   5962918.388 9   4644447.07646  22680134.371    22680134.8314   22680143.0874
     -1970.412       -1535.386
  -3963703.636 9  -3081082.00249  19393841.871    19393842.2984   19393848.6744
      -212.571        -165.640
  -2222399.143 9  -1723643.64148  20044618.542    20044618.7344   20044625.4044
      -108.482         -84.531
 -18574814.764 9 -14141616.72947  21253009.766    21253010.4274   21253017.5794
      3966.018        3090.404
 -17380272.913 9 -13528785.77247  21581871.988    21581872.1584   21581879.7154
      4254.554        3315.237
 96 11 18 17 37 59.9960000  0  8 31 23  3  1 21 25 15 29            -0.003999933
  -1887985.208 9  -1463332.40247  22064085.719    22064085.7504   22064093.1094
      -805.208        -627.435
   3674636.911 9   2860566.13847  22763641.324    22763641.6384   22763649.8084
     -1182.079        -921.101
   6022110.217 9   4690570.49446  22691398.226    22691398.7454   22691406.9734
     -1975.068       -1539.014
  -3957103.934 9  -3075939.39049  19395097.755    19395098.1734   19395104.5434
      -226.786        -176.716
  -2218987.652 9  -1720985.35448  20045267.721    20045267.9234   20045274.6584
      -118.397         -92.257
 -18693615.223 9 -14234188.46847  21230402.780    21230403.4744   21230410.5404
      3954.582        3081.492
 -17507744.234 9 -13628114.04647  21557614.913    21557615.1734   21557622.7374
      4244.089        3307.082
  -2300057.88218  -1769236.34355  24033124.912    24033126.3445   24033135.1845
      4136.465        3223.219
 96 11 18 17 38 29.9960000  0  8 31 23  3  1 21 25 15 29            -0.004019974
  -1863634.367 9  -1444357.75547  22068719.539    22068719.5864   22068726.9554
      -818.911        -638.112
   3710179.544 9   2888261.63746  22770405.114    22770405.2354   22770413.3954
     -1187.957        -925.681
   6081413.814 9   4736781.02046  22702683.294    22702683.8774   22702692.0834
     -1979.069       -1542.132
  -3950107.815 9  -3070487.87749  19396429.040    19396429.4844   19396435.8574
      -240.187        -187.159
  -2215298.468 9  -1718110.67948  20045969.746    20045969.9504   20045976.7414
      -128.310         -99.982
 -18812104.630 9 -14326517.82447  21207855.183    21207855.7004   21207862.6884
      3944.128        3073.346
 -17634926.867 9 -13727217.37447  21533412.658    21533413.0744   21533420.7004
      4234.109        3299.306
  -2424073.197 8  -1865871.68145  24009525.151    24009526.9104   24009536.1654
      4130.708        3218.734
 96 11 18 17 38 59.9950000  0  8 31 23  3  1 21 25 15 29            -0.004039968
  -1838854.335 9  -1425048.67147  22073434.924    22073435.0874   22073442.4034
      -833.809        -649.721
   3745897.281 9   2916093.57346  22777202.015    22777202.1784   22777210.1894
     -1193.826        -930.254
   6140843.861 9   4783090.05346  22713992.562    22713993.0914   22714001.3384
     -1983.737       -1545.769
  -3942700.086 9  -3064715.63049  19397838.715    19397839.1414   19397845.4904
      -254.213        -198.088
  -2211298.759 9  -1714994.04248  20046730.895    20046731.0834   20046737.9014
      -138.774        -108.136
 -18930269.370 9 -14418594.18947  21185369.127    21185369.6674   21185376.5984
      3933.239        3064.861
 -17761792.940 9 -13826074.02247  21509270.931    21509271.2054   21509278.9334
      4223.336        3290.911
  -2547902.569 8  -1962362.11045  23985961.100    23985963.0994   23985972.2894
      4124.289        3213.732
 96 11 18 17 39 29.9950000  0  8 31 23  3  1 21 25 15 29            -0.004059917
  -1813625.138 9  -1405389.59247  22078235.935    22078236.1034   22078243.4044
      -847.721        -660.562
   3781782.055 9   2944055.66246  22784030.783    22784030.9104   22784038.8594
     -1198.093        -933.579
   6200416.139 9   4829509.92246  22725328.811    22725329.4454   22725337.6594
     -1987.178       -1548.450
  -3934876.323 9  -3058619.19849  19399327.590    19399327.9864   19399334.3214
      -267.011        -208.061
  -2206997.059 9  -1711642.08748  20047549.512    20047549.6984   20047556.4964
      -147.684        -115.078
 -19048114.275 9 -14510421.34647  21162943.935    21162944.4814   21162951.4154
      3923.533        3057.298
 -17888339.549 9 -13924681.73747  21485189.776    21485190.1544   21485197.9074
      4213.538        3283.276
  -2671542.464 8  -2058704.91045  23962433.219    23962435.2074   23962444.3134
      4118.593        3209.293
 96 11 18 17 39 59.9950000  0  8 31 23  3  1 21 25 15 29            -0.004079783
  -1787890.045 9  -1385336.31147  22083133.137    22083133.2934   22083140.6134
      -866.976        -675.566
   3817894.669 9   2972195.28946  22790902.911    22790903.0234   22790910.9204
     -1208.456        -941.654
   6260176.434 9   4876076.33146  22736700.860    22736701.5064   22736709.6864
     -1995.735       -1555.118
  -3926572.844 9  -3052148.95849  19400907.712    19400908.0964   19400914.4064
      -285.585        -222.534
  -2202332.064 9  -1708007.04248  20048437.311    20048437.4764   20048444.1884
      -162.372        -126.524
 -19165573.659 9 -14601948.08848  21140592.114    21140592.6604   21140599.6104
      3907.961        3045.164
 -18014495.769 9 -14022985.25847  21461183.126    21461183.4264   21461191.2044
      4197.889        3271.082
  -2794910.538 8  -2154835.85245  23938957.346    23938959.0384   23938968.1174
      4106.754        3200.068
 96 11 18 17 40 29.9950000  0  8 31 23  3  1 21 25 15 29            -0.004099596
  -1761697.033 9  -1364926.21147  22088117.503    22088117.6654   22088124.9884
      -880.725        -686.279
   3854206.260 8   3000489.96246  22797812.918    22797813.0824   22797820.7954
     -1213.995        -945.970
   6320071.833 9   4922747.99246  22748098.665    22748099.2764   22748107.3834
     -1998.724       -1557.447
  -3917815.766 9  -3045325.26649  19402574.113    19402574.5284   19402580.8274
      -299.757        -233.577
  -2197333.857 9  -1704112.35048  20049388.502    20049388.6404   20049395.2834
      -172.250        -134.221
 -19282669.856 9 -14693191.82448  21118309.385    21118309.9394   21118316.9124
      3896.855        3036.510
 -18140292.115 9 -14121008.35147  21437244.842    21437245.1634   21437252.9384
      4187.035        3262.625
  -2918020.178 8  -2250765.42845  23915531.338    23915532.3484   23915541.0254
      4098.984        3194.014
 96 11 18 17 40 59.9950000  0  8 31 23  3  1 21 25 15 29            -0.004119381
  -1735087.398 9  -1344191.48147  22093181.159    22093181.3104   22093188.6184
      -893.562        -696.282
   3890691.785 8   3028920.15146  22804756.098    22804756.0714   22804763.8744
     -1218.910        -949.800
   6380057.137 9   4969489.70446  22759513.535    22759514.1254   22759522.2564
     -2000.750       -1559.026
  -3908626.246 9  -3038164.60749  19404322.829    19404323.2684   19404329.5744
      -313.211        -244.061
  -2192042.905 9  -1699989.54548  20050395.365    20050395.5014   20050402.0894
      -180.912        -140.970
 -19399417.784 9 -14784164.19048  21096092.850    21096093.4814   21096100.4684
      3885.976        3028.033
 -18265756.255 9 -14218772.58047  21413369.932    21413370.1284   21413377.8984
      4176.906        3254.732
  -3040883.368 8  -2346502.92045  23892151.989    23892152.5104   23892161.1974
      4091.495        3188.178
 96 11 18 17 41 29.9950000  0  8 31 23  3  1 21 25 15 29            -0.004139164
  -1708114.924 9  -1323174.01147  22098314.058    22098314.1194   22098321.3344
      -906.475        -706.344
   3927320.535 8   3057461.95146  22811726.245    22811726.3054   22811734.0684
     -1224.757        -954.356
   6440085.748 9   5016265.15246  22770936.598    22770937.2354   22770945.4854
     -2002.904       -1560.704
  -3899049.842 9  -3030702.47549  19406145.148    19406145.5974   19406151.9304
      -326.906        -254.732
  -2186495.317 9  -1695666.75548  20051451.007    20051451.1904   20051457.7394
      -190.742        -148.630
 -19515853.483 9 -14874893.25748  21073935.847    21073936.4434   21073943.4674
      3874.630        3019.192
 -18390929.198 9 -14316309.89547  21389550.280    21389550.4904   21389558.2354
      4166.256        3246.433
  -3163530.941 8  -2442072.41845  23868813.273    23868813.5494   23868822.1584
      4083.494        3181.943
 96 11 18 17 41 59.9950000  0  8 31 23  3  1 21 25 15 29            -0.004158913
  -1680739.653 9  -1301842.68147  22103523.415    22103523.5084   22103530.7614
      -918.451        -715.676
   3964135.133 9   3086148.58546  22818731.731    22818731.8914   22818739.6734
     -1229.470        -958.029
   6500201.010 9   5063108.11346  22782376.254    22782376.8534   22782385.0894
     -2004.627       -1562.047
  -3889050.047 9  -3022910.43649  19408047.986    19408048.4684   19408054.8504
      -339.404        -264.471
  -2180635.100 9  -1691100.36148  20052566.182    20052566.3704   20052572.8834
      -199.719        -155.625
 -19631932.567 9 -14965344.44748  21051846.590    21051847.2954   21051854.3184
      3864.074        3010.967
 -18515768.968 9 -14413587.60647  21365793.928    21365794.2514   21365801.9904
      4156.610        3238.917
  -3285935.276 8  -2537452.34545  23845520.359    23845520.8634   23845529.3444
      4077.020        3176.899
 96 11 18 17 42 29.9950000  0  8 31 23  3  1 21 25 15 29            -0.004178632
  -1652977.751 9  -1280210.08147  22108806.183    22108806.4294   22108813.7444
      -932.020        -726.249
   4001115.887 9   3114964.68646  22825768.930    22825769.1504   22825776.9504
     -1235.565        -962.778
   6560396.748 9   5110013.80146  22793831.190    22793831.8234   22793840.0134
     -2008.090       -1564.745
  -3878659.158 9  -3014813.64649  19410025.307    19410025.7904   19410032.1814
      -352.718        -274.845
  -2174478.395 9  -1686302.93048  20053737.711    20053737.9354   20053744.4704
      -210.286        -163.859
 -19747665.948 9 -15055526.25648  21029823.157    21029823.8894   21029830.9644
      3852.178        3001.697
 -18640294.863 9 -14510620.72547  21342097.456    21342097.7304   21342105.4544
      4145.586        3230.327
  -3408133.624 8  -2632671.81145  23822266.568    23822267.4214   23822276.1014
      4070.021        3171.445
 96 11 18 17 42 59.9950000  0  8 31 23  3  1 21 25 15 29            -0.004198320
  -1624832.606 9  -1258278.84247  22114162.050    22114162.2694   22114169.6594
      -945.388        -736.666
   4038244.284 9   3143895.83946  22832834.204    22832834.3704   22832842.3044
     -1240.699        -966.778
   6620668.702 9   5156978.85446  22805300.467    22805301.2514   22805309.5584
     -2011.014       -1567.024
  -3867916.569 9  -3006442.80649  19412069.593    19412070.0324   19412076.4254
      -364.438        -283.978
  -2168040.653 9  -1681286.50948  20054962.762    20054963.0174   20054969.5864
      -220.135        -171.534
 -19863090.095 9 -15145467.10448  21007858.610    21007859.3524   21007866.4364
      3841.895        2993.684
 -18764525.946 9 -14607424.12647  21318457.139    21318457.3184   21318465.0364
      4135.480        3222.452
  -3530176.857 8  -2727770.43045  23799042.620    23799043.2584   23799051.5414
      4065.266        3167.740
 96 11 18 17 43 29.9950000  0  8 31 23  3  1 21 25 15 29            -0.004217958
  -1596276.719 9  -1236027.55647  22119596.167    22119596.3044   22119603.7094
      -958.027        -746.514
   4075537.857 9   3172955.71846  22839931.063    22839931.0944   22839939.0684
     -1245.179        -970.269
   6681032.407 9   5204015.39646  22816787.313    22816788.0944   22816796.4824
     -2012.897       -1568.491
  -3856814.367 9  -2997791.74249  19414182.354    19414182.7614   19414189.1394
      -375.455        -292.562
  -2161296.788 9  -1676031.55448  20056246.105    20056246.3664   20056252.9734
      -229.017        -178.455
 -19978203.445 9 -15235165.77148  20985953.322    20985953.9704   20985961.0714
      3832.570        2986.418
 -18888446.620 9 -14703985.66447  21294875.628    21294876.0054   21294883.6994
      4126.218        3215.235
  -3652079.760 8  -2822759.71445  23775845.373    23775845.8984   23775854.3134
      4062.003        3165.197
 96 11 18 17 43 59.9950000  0  8 31 23  3  1 21 25 15 29            -0.004237555
  -1567313.413 9  -1213458.79847  22125107.761    22125107.9164   22125115.3144
      -973.598        -758.648
   4112994.859 9   3202142.94146  22847058.896    22847058.8614   22847066.9884
     -1252.961        -976.333
   6741485.119 9   5251121.29646  22828291.353    22828291.9314   22828300.3294
     -2018.067       -1572.520
  -3845344.916 9  -2988854.51049  19416364.918    19416365.3534   19416371.6984
      -390.167        -304.026
  -2154263.575 9  -1670551.13148  20057584.547    20057584.7514   20057591.3904
      -240.834        -187.663
 -20093003.892 9 -15324620.61848  20964107.510    20964108.1334   20964115.2074
      3819.848        2976.505
 -19012058.183 9 -14800306.33447  21271353.294    21271353.4874   21271361.1644
      4113.606        3205.407
  -3773850.047 8  -2917645.70545  23752672.939    23752673.8264   23752682.7894
      4055.006        3159.745
 96 11 18 17 44 29.9950000  0  8 31 23  3  1 21 25 15 29            -0.004257112
  -1537950.325 9  -1190578.52547  22130695.452    22130695.5314   22130702.9594
      -985.486        -767.911
   4150628.292 9   3231467.65746  22854220.279    22854220.4634   22854228.4114
     -1257.497        -979.868
   6802022.140 9   5298292.91546  22839811.072    22839811.7704   22839820.2274
     -2019.286       -1573.470
  -3833489.386 9  -2979616.43949  19418620.968    19418621.3744   19418627.6984
      -401.963        -313.218
  -2146928.273 9  -1664835.32348  20058980.452    20058980.6424   20058987.2754
      -249.746        -194.607
 -20207488.133 9 -15413829.07048  20942321.922    20942322.4774   20942329.5424
      3810.934        2969.559
 -19135347.666 9 -14896376.04547  21247891.963    21247892.2714   21247899.9484
      4104.046        3197.958
  -3895461.734 8  -3012408.15445  23729530.701    23729531.8334   23729540.9994
      4050.994        3156.619
 96 11 18 17 44 59.9950000  0  8 31 23  3  1 21 25 15 29            -0.004276649
  -1508216.762 9  -1167409.56247  22136353.541    22136353.7024   22136361.1204
      -996.998        -776.882
   4188420.674 9   3260916.25846  22861412.017    22861412.2244   22861420.2844
     -1262.310        -983.618
   6862613.888 9   5345507.16546  22851341.324    22851342.0624   22851350.5784
     -2020.427       -1574.359
  -3821240.445 9  -2970071.81149  19420951.807    19420952.2674   19420958.5734
      -415.037        -323.405
  -2139302.349 9  -1658893.05148  20060431.635    20060431.8434   20060438.4674
      -259.024        -201.837
 -20321675.443 9 -15502806.15148  20920592.735    20920593.3124   20920600.3664
      3801.062        2961.866
 -19258323.326 9 -14992201.21747  21224490.553    21224490.7604   21224498.4514
      4093.934        3190.078
  -4016928.737 8  -3107057.86445  23706416.235    23706417.1964   23706426.2764
      4046.094        3152.801
 96 11 18 17 45 29.9950000  0  8 31 23  3  1 21 25 15 29            -0.004296182
  -1478145.583 9  -1143977.53247  22142075.841    22142076.1074   22142083.4874
     -1007.425        -785.006
   4226369.664 9   3290486.88546  22868633.373    22868633.7844   22868642.0474
     -1267.091        -987.344
   6923241.761 9   5392749.55446  22862878.384    22862879.2304   22862887.8934
     -2021.124       -1574.902
  -3808581.410 9  -2960207.62749  19423360.726    19423361.1884   19423367.4974
      -428.258        -333.708
  -2131382.655 9  -1652721.87248  20061938.820    20061938.9634   20061945.5634
      -268.293        -209.059
 -20435543.626 9 -15591534.56348  20898924.227    20898924.8714   20898931.9164
      3790.498        2953.635
 -19380978.931 9 -15087776.99847  21201149.942    21201150.1734   21201157.8504
      4083.570        3182.003
  -4138224.856 8  -3201574.37745  23683334.446    23683335.1524   23683344.1224
      4040.534        3148.468
 96 11 18 17 45 59.9950000  0  8 31 23  3  1 21 25 15 29            -0.004315722
  -1447763.438 9  -1120303.17147  22147857.355    22147857.7044   22147865.0794
     -1018.117        -793.338
   4264453.425 9   3320162.51356  22875880.572    22875880.9384   22875889.3495
     -1271.701        -990.936
   6983895.209 9   5440011.87346  22874420.445    22874421.2994   22874430.0974
     -2022.246       -1575.776
  -3795533.426 9  -2950040.36349  19425843.689    19425844.1424   19425850.4324
      -441.245        -343.827
  -2123183.563 9  -1646332.98048  20063499.077    20063499.2494   20063505.7984
      -278.262        -216.828
 -20549091.427 9 -15680013.32948  20877316.729    20877317.4134   20877324.4384
      3779.455        2945.030
 -19503320.733 9 -15183108.25447  21177868.992    21177869.3134   21177877.0064
      4072.662        3173.503
  -4259340.645 8  -3295950.33245  23660287.390    23660287.5734   23660296.7694
      4033.997        3143.374
 96 11 18 17 46 29.9950000  0  8 31 23  3  1 21 25 15 29            -0.004335264
  -1417076.901 9  -1096391.64347  22153696.776    22153697.1564   22153704.5804
     -1028.970        -801.795
   4302646.424 9   3349923.27146  22883148.500    22883148.8624   22883157.3414
     -1275.617        -993.987
   7044557.308 9   5487280.91846  22885964.114    22885965.0654   22885973.8084
     -2023.085       -1576.430
  -3782136.346 9  -2939601.07749  19428393.090    19428393.5124   19428399.7684
      -452.864        -352.881
  -2114702.947 9  -1639724.72248  20065112.956    20065113.1084   20065119.5764
      -288.038        -224.445
 -20662326.494 9 -15768248.40248  20855768.792    20855769.4614   20855776.4744
      3768.335        2936.365
 -19625354.341 9 -15278199.36347  21154646.747    21154647.0504   21154654.7524
      4061.814        3165.050
  -4380289.214 8  -3390195.87345  23637271.741    23637271.8384   23637281.0484
      4028.155        3138.822
 96 11 18 17 46 59.9950000  0  8 31 23  3  1 21 25 15 29            -0.004354786
  -1386051.308 9  -1072215.90247  22159600.756    22159601.1414   22159608.6214
     -1039.702        -810.157
   4340965.281 9   3379782.07346  22890440.509    22890440.7324   22890449.2554
     -1279.072        -996.679
   7105255.437 9   5534578.04246  22897514.831    22897515.6244   22897524.4274
     -2023.551       -1576.793
  -3768394.368 9  -2928893.04149  19431008.058    19431008.5144   19431014.7604
      -463.250        -360.974
  -2105929.949 9  -1632888.63448  20066782.414    20066782.5944   20066788.9844
      -296.881        -231.336
 -20775207.596 9 -15856207.66748  20834288.218    20834288.8974   20834295.8734
      3757.008        2927.539
 -19747055.470 9 -15373031.40047  21131487.714    21131488.0894   21131495.7564
      4051.477        3156.995
  -4501048.423 8  -3484293.75545  23614292.132    23614292.2864   23614301.4294
      4022.200        3134.182
 96 11 18 17 47 29.9950000  0  8 31 23  3  1 21 25 15 29            -0.004374273
  -1354658.587 9  -1047754.09847  22165574.645    22165574.9994   22165582.4484
     -1054.067        -821.351
   4379422.173 9   3409748.43346  22897758.573    22897758.8624   22897767.4334
     -1285.439       -1001.641
   7166003.577 9   5581914.14546  22909074.947    22909075.7164   22909084.6044
     -2027.102       -1579.560
  -3754319.076 9  -2917925.27549  19433686.510    19433686.9544   19433693.2034
      -475.806        -370.758
  -2096861.509 9  -1625822.33348  20068508.151    20068508.2924   20068514.6334
      -308.315        -240.245
 -20887718.108 9 -15943878.15748  20812878.202    20812878.8564   20812885.8054
      3742.916        2916.558
 -19868410.653 9 -15467593.86447  21108394.459    21108394.9444   21108402.5974
      4038.163        3146.620
  -4621587.891 8  -3578220.35645  23591353.842    23591354.2494   23591363.2744
      4013.355        3127.290
 96 11 18 17 47 59.9950000  0  8 31 23  3  1 21 25 15 29            -0.004393688
  -1322825.389 9  -1022949.05947  22171632.404    22171632.6534   22171640.1294
     -1067.746        -832.010
   4418063.595 9   3439858.58446  22905111.855    22905112.0724   22905120.7274
     -1290.436       -1005.535
   7226848.888 9   5629325.96046  22920653.452    22920654.2054   22920663.0974
     -2028.874       -1580.941
  -3739876.663 9  -2906671.44149  19436434.787    19436435.2344   19436441.5184
      -486.827        -379.346
  -2087460.580 9  -1618496.94448  20070297.028    20070297.2344   20070303.5544
      -318.223        -247.966
 -20999809.400 9 -16031221.98548  20791547.858    20791548.5554   20791555.4644
      3730.235        2906.677
 -19989373.038 9 -15561850.24547  21085376.147    21085376.5234   21085384.2204
      4026.282        3137.363
  -4741876.935 8  -3671951.81045  23568463.331    23568463.7444   23568473.0484
      4006.264        3121.764
 96 11 18 17 48 29.9950000  0  8 31 23  3  1 21 25 15 29            -0.004413068
  -1290609.621 9   -997845.90747  22177762.921    22177763.1794   22177770.6624
     -1081.031        -842.362
   4456840.407 9   3470074.24546  22912490.817    22912491.0394   22912499.7574
     -1295.982       -1009.856
   7287721.725 9   5676759.24746  22932237.087    22932237.9404   22932246.8984
     -2030.431       -1582.154
  -3725121.538 9  -2895173.93649  19439242.541    19439243.0204   19439249.3634
      -498.190        -388.200
  -2077786.272 9  -1610958.53448  20072137.975    20072138.1744   20072144.4654
      -327.819        -255.443
 -21111545.350 9 -16118288.92548  20770285.132    20770285.8624   20770292.7874
      3717.749        2896.947
 -20110002.202 9 -15655846.98147  21062421.158    21062421.5524   21062429.2084
      4014.515        3128.194
  -4861973.206 8  -3765533.02045  23545609.660    23545609.9904   23545619.2944
      3999.134        3116.208
 96 11 18 17 48 59.9950000  0  8 31 23  3  1 21 25 15 29            -0.004432414
  -1258011.786 9   -972445.05147  22183966.062    22183966.4314   22183973.9164
     -1093.197        -851.842
   4495781.469 9   3500417.87746  22919901.103    22919901.3304   22919910.0224
     -1301.073       -1013.823
   7348624.311 9   5724215.68046  22943826.429    22943827.3484   22943836.4124
     -2030.790       -1582.434
  -3710026.428 9  -2883411.51349  19442115.058    19442115.5284   19442121.8634
      -509.215        -396.791
  -2067839.254 9  -1603207.62948  20074030.748    20074030.9864   20074037.3274
      -336.308        -262.058
 -21222916.492 9 -16205071.60548  20749091.954    20749092.5894   20749099.5324
      3706.067        2887.844
 -20230288.666 9 -15749576.67847  21039531.268    21039531.7974   21039539.3954
      4003.567        3119.663
  -4981865.116 9  -3858955.02545  23522794.411    23522795.0974   23522804.3544
      3992.809        3111.280
 96 11 18 17 49 29.9950000  0  8 31 23  3  1 21 25 15 29            -0.004451739
  -1225052.292 9   -946762.38447  22190238.093    22190238.4544   22190245.9804
     -1104.824        -860.902
   4534875.913 9   3530881.03046  22927340.633    22927340.8484   22927349.5104
     -1306.033       -1017.688
   7409534.971 8   5771678.39946  22955417.194    22955418.2454   22955427.4444
     -2030.709       -1582.371
  -3694595.788 9  -2871387.64049  19445051.372    19445051.9114   19445058.2224
      -520.243        -405.384
  -2057633.867 9  -1595255.40748  20075972.627    20075972.9404   20075979.3994
      -344.920        -268.769
 -21333937.843 9 -16291581.71248  20727965.140    20727965.8664   20727972.8214
      3694.636        2878.937
 -20350245.034 9 -15843049.15747  21016704.341    21016704.7834   21016712.4644
      3992.733        3111.221
  -5101578.889 8  -3952238.24945  23500013.723    23500014.1294   23500023.4494
      3987.498        3107.141
 96 11 18 17 49 59.9950000  0  8 31 23  3  1 21 25 15 29            -0.004471033
  -1191724.337 9   -920792.60047  22196580.263    22196580.5504   22196588.0844
     -1115.847        -869.491
   4574148.954 9   3561483.33746  22934813.927    22934814.2524   22934823.0074
     -1311.105       -1021.640
   7470468.872 9   5819159.24246  22967012.608    22967013.6534   22967022.8834
     -2030.563       -1582.257
  -3678801.635 9  -2859080.51249  19448056.984    19448057.4674   19448063.7204
      -531.773        -414.369
  -2047138.512 9  -1587077.22348  20077969.751    20077970.0994   20077976.6544
      -353.875        -275.747
 -21444592.909 9 -16377806.41048  20706908.155    20706908.8634   20706915.8174
      3683.446        2870.218
 -20469847.062 9 -15936245.52647  20993944.746    20993945.2244   20993952.9424
      3981.706        3102.628
  -5221107.247 9  -4045377.03346  23477267.697    23477268.4834   23477277.6834
      3981.859        3102.747
 96 11 18 17 50 29.9950000  0  8 31 23  3  1 21 25 15 29            -0.004490317
  -1158088.038 9   -894582.54547  22202980.985    22202981.3804   22202988.8924
     -1126.191        -877.551
   4613569.985 9   3592200.96446  22942315.480    22942315.8134   22942324.6574
     -1316.491       -1025.837
   7531389.693 9   5866629.90646  22978605.527    22978606.6264   22978615.8604
     -2030.629       -1582.308
  -3662669.609 9  -2846510.10749  19451126.848    19451127.3084   19451133.5054
      -543.309        -423.358
  -2036380.772 9  -1578694.58048  20080016.876    20080017.1974   20080023.8694
      -362.891        -282.772
 -21554918.843 9 -16463774.64448  20685913.813    20685914.5164   20685921.4514
      3671.850        2861.182
 -20589123.663 9 -16029188.31547  20971247.182    20971247.6014   20971255.3464
      3970.408        3093.824
  -5340473.244 9  -4138389.36046  23454553.075    23454553.6594   23454562.8764
      3976.341        3098.448
 96 11 18 17 50 59.9950000  0  8 31 23  3  1 21 25 15 29            -0.004509597
  -1124151.879 9   -868138.83147  22209438.989    22209439.2834   22209446.7634
     -1135.690        -884.953
   4653129.185 9   3623026.25146  22949843.424    22949843.7294   22949852.5934
     -1320.269       -1028.781
   7592300.221 9   5914092.52646  22990196.931    22990197.7364   22990206.7824
     -2029.633       -1581.532
  -3646208.053 9  -2833682.93049  19454259.364    19454259.8274   19454265.9914
      -553.664        -431.426
  -2025366.036 9  -1570111.69148  20082112.925    20082113.2094   20082119.9644
      -371.033        -289.117
 -21664902.759 9 -16549476.37448  20664984.620    20664985.2434   20664992.1814
      3660.983        2852.714
 -20708069.991 9 -16121873.75847  20948612.537    20948612.8724   20948620.5984
      3959.863        3085.608
  -5459690.910 9  -4231286.14446  23431866.481    23431867.0614   23431876.3194
      3971.945        3095.022
 96 11 18 17 51 29.9950000  0  8 31 23  3  1 21 25 15 29            -0.004528888
  -1089947.323 9   -841485.99147  22215948.044    22215948.2394   22215955.7214
     -1144.759        -892.020
   4692798.980 8   3653937.71546  22957392.400    22957392.6334   22957401.5244
     -1324.531       -1032.102
   7653174.581 8   5961526.95446  23001781.434    23001781.8154   23001790.8444
     -2028.759       -1580.851
  -3629433.363 9  -2820611.75149  19457451.513    19457451.9384   19457458.1064
      -564.639        -439.978
  -2014103.325 9  -1561335.56548  20084256.160    20084256.4514   20084263.2644
      -380.022        -296.121
 -21774578.107 9 -16634937.66348  20644114.037    20644114.7244   20644121.5864
      3650.643        2844.657
 -20826705.175 9 -16214316.75047  20926036.970    20926037.3424   20926045.0224
      3949.103        3077.223
  -5578779.340 9  -4324082.23746  23409204.624    23409205.3364   23409214.3644
      3967.162        3091.295
 96 11 18 17 51 59.9950000  0  8 31 23  3  1 21 25 15 29            -0.004548194
  -1055497.147 9   -814641.74847  22222503.693    22222503.9454   22222511.4024
     -1151.722        -897.446
   4732572.946 8   3684930.34246  22964961.133    22964961.3414   22964970.2304
     -1326.793       -1033.865
   7714002.610 8   6008925.29746  23013356.316    23013357.0424   23013366.1574
     -2026.176       -1578.838
  -3612355.201 9  -2807304.09249  19460701.419    19460701.8014   19460707.9784
      -573.561        -446.931
  -2002596.536 9  -1552369.25448  20086445.896    20086446.1564   20086452.9844
      -386.842        -301.435
 -21883962.817 9 -16720172.47948  20623298.926    20623299.5334   20623306.3244
      3641.853        2837.808
 -20945040.960 9 -16306526.43147  20903518.425    20903518.7774   20903526.4414
      3940.228        3070.308
  -5697741.523 9  -4416779.98846  23386566.869    23386567.5994   23386576.4334
      3963.861        3088.723
 96 11 18 17 52 29.9950000  0  8 31 23  3  1 21 25 15 29            -0.004567540
  -1020833.135 9   -787630.89247  22229100.068    22229100.3624   22229107.7394
     -1159.930        -903.841
   4772414.353 8   3715975.51946  22972542.778    22972542.9004   22972551.8024
     -1329.946       -1036.322
   7774752.031 9   6056262.37646  23024916.777    23024917.3314   23024926.4804
     -2024.340       -1577.408
  -3595014.322 9  -2793791.71649  19464001.195    19464001.6534   19464007.8894
      -582.982        -454.272
  -1990888.829 9  -1543246.38048  20088673.739    20088674.0684   20088680.9024
      -394.063        -307.062
 -21993074.028 9 -16805194.17748  20602535.788    20602536.3974   20602543.1094
      3631.796        2829.971
 -21063109.358 9 -16398527.75947  20881050.762    20881051.0774   20881058.7674
      3930.502        3062.729
  -5816605.868 9  -4509401.50646  23363947.948    23363948.5934   23363957.0404
      3960.033        3085.740
 96 11 18 17 52 59.9950000  0  8 31 23  3  1 21 25 15 29            -0.004586880
   -985887.218 9   -760400.35047  22235750.111    22235750.4144   22235757.8114
     -1171.452        -912.820
   4812383.855 8   3747120.50946  22980148.612    22980148.8034   22980157.7454
     -1336.346       -1041.309
   7835474.848 8   6103578.71946  23036472.089    23036472.5104   23036481.7314
     -2025.373       -1578.213
  -3577363.456 9  -2780037.79749  19467360.086    19467360.5114   19467366.7904
      -595.394        -463.943
  -1978937.311 9  -1533933.52248  20090948.098    20090948.3824   20090955.2314
      -404.403        -315.119
 -22101863.685 9 -16889965.31648  20581833.738    20581834.4084   20581841.0864
      3619.272        2820.212
 -21180859.880 9 -16490281.40947  20858643.565    20858643.8964   20858651.5414
      3917.926        3052.929
  -5935324.779 8  -4601909.70346  23341356.381    23341357.1134   23341365.4794
      3952.922        3080.199
 96 11 18 17 53 29.9950000  0  8 31 23  3  1 21 25 15 29            -0.004606195
   -950620.758 9   -732920.05447  22242461.057    22242461.4494   22242468.8964
     -1180.234        -919.663
   4852524.475 8   3778398.85446  22987787.236    22987787.4254   22987796.2784
     -1340.091       -1044.227
   7896203.595 8   6150899.68346  23048028.447    23048028.8874   23048038.1544
     -2023.816       -1576.999
  -3559367.913 9  -2766015.29749  19470784.589    19470784.9944   19470791.2894
      -604.605        -471.121
  -1966703.518 9  -1524400.70848  20093276.103    20093276.3804   20093283.2694
      -411.620        -320.743
 -22210301.353 9 -16974462.17948  20561198.699    20561199.4194   20561206.0774
      3609.170        2812.340
 -21298259.529 9 -16581761.64647  20836303.120    20836303.4584   20836311.0864
      3908.112        3045.282
  -6053851.667 8  -4694268.30246  23318801.405    23318802.0084   23318810.3994
      3948.448        3076.713
 96 11 18 17 53 59.9950000  0  8 31 23  3  1 21 25 15 29            -0.004625492
   -915047.017 9   -705200.31347  22249230.646    22249230.9944   22249238.4234
     -1190.291        -927.499
   4892814.952 8   3809793.96146  22995454.600    22995454.6064   22995463.3614
     -1344.876       -1047.955
   7956930.855 8   6198219.49746  23059584.493    23059584.9724   23059594.2944
     -2023.552       -1576.794
  -3541068.505 9  -2751756.02349  19474266.914    19474267.3104   19474273.5604
      -614.316        -478.688
  -1954218.271 9  -1514671.96148  20095651.934    20095652.2284   20095659.1474
      -419.703        -327.041
 -22318379.030 9 -17058678.52748  20540632.201    20540632.9034   20540639.5454
      3597.146        2802.971
 -21415320.024 9 -16672977.60147  20814027.200    20814027.5704   20814035.1964
      3896.811        3036.476
  -6172202.459 8  -4786489.62845  23296279.987    23296280.5364   23296288.8324
      3942.618        3072.170
 96 11 18 17 54 29.9950000  0  8 31 23  3  1 21 25 15 29            -0.004644808
   -879227.657 9   -677289.17547  22256046.916    22256047.2884   22256054.6794
     -1197.669        -933.249
   4933192.276 8   3841256.74046  23003138.300    23003138.3534   23003146.9124
     -1346.887       -1049.522
   8017593.310 8   6245488.79946  23071128.184    23071128.7984   23071138.1684
     -2020.554       -1574.458
  -3522532.152 9  -2737312.11549  19477794.247    19477794.6594   19477800.8764
      -621.433        -484.234
  -1941543.837 9  -1504795.79348  20098063.798    20098064.0834   20098071.0354
      -425.376        -331.462
 -22426159.536 9 -17142663.31748  20520122.228    20520122.9374   20520129.5494
      3588.242        2796.033
 -21532093.133 9 -16763969.62947  20791806.016    20791806.3624   20791813.9974
      3888.055        3029.653
  -6290432.769 8  -4878617.05346  23273781.513    23273782.0734   23273790.1974
      3939.485        3069.729
 96 11 18 17 54 59.9950000  0  8 31 23  3  1 21 25 15 29            -0.004664171
   -843219.539 9   -649230.94847  22262899.038    22262899.4344   22262906.8434
     -1202.348        -936.894
   4973595.503 8   3872739.71146  23010826.745    23010827.0514   23010835.4824
     -1346.157       -1048.954
   8078139.020 8   6292667.15646  23082649.868    23082650.3164   23082659.7694
     -2015.203       -1570.288
  -3503816.505 9  -2722728.49649  19481355.659    19481356.0904   19481362.2834
      -625.780        -487.621
  -1928715.718 9  -1494799.86348  20100504.960    20100505.2204   20100512.1694
      -429.493        -334.670
 -22533699.530 9 -17226460.68348  20499658.008    20499658.7504   20499665.4044
      3581.461        2790.749
 -21648627.356 9 -16854775.49847  20769630.291    20769630.6644   20769638.2424
      3881.324        3024.408
  -6408595.866 8  -4970692.07246  23251295.577    23251296.3354   23251304.5534
      3938.468        3068.936
 96 11 18 17 55 29.9950000  0  8 31 23  3  1 21 25 15 29            -0.004683564
   -807008.610 9   -621014.69447  22269789.809    22269790.1114   22269797.5844
     -1211.033        -943.662
   5014040.949 8   3904255.57646  23018523.874    23018523.7514   23018531.9964
     -1349.611       -1051.645
   8138593.173 8   6339774.16746  23094154.184    23094154.5004   23094163.9814
     -2014.303       -1569.587
  -3484899.446 9  -2707987.93449  19484955.314    19484955.8174   19484962.0004
      -634.573        -494.472
  -1915690.535 9  -1484650.38148  20102983.512    20102983.8224   20102990.7914
      -438.167        -341.429
 -22640960.572 9 -17310040.68548  20479246.903    20479247.6374   20479254.3194
      3570.043        2781.852
 -21764884.418 9 -16945365.40247  20747507.278    20747507.6744   20747515.2044
      3869.856        3015.472
  -6526658.487 8  -5062688.74846  23228828.990    23228829.6834   23228837.9684
      3933.065        3064.726
 96 11 18 17 55 59.9950000  0  8 31 23  3  1 21 25 15 29            -0.004702940
   -770531.421 9   -592590.95747  22276731.181    22276731.5144   22276739.0424
     -1220.467        -951.013
   5054600.711 8   3935860.52146  23026242.261    23026242.1414   23026250.2614
     -1353.872       -1054.965
   8199019.431 8   6386859.43046  23105652.854    23105653.2944   23105662.9204
     -2013.435       -1568.910
  -3465709.604 9  -2693034.81549  19488606.919    19488607.4764   19488613.6464
      -644.250        -502.013
  -1902389.458 9  -1474285.91348  20105514.681    20105514.9364   20105521.9394
      -447.965        -349.064
 -22747876.580 9 -17393351.83448  20458901.431    20458902.1664   20458908.8454
      3558.282        2772.687
 -21880788.362 9 -17035680.15147  20725451.465    20725451.8514   20725459.3794
      3857.570        3005.899
  -6644552.014 8  -5154553.66446  23206394.495    23206395.1934   23206403.5114
      3926.969        3059.976
 96 11 18 17 56 29.9950000  0  8 31 23  3  1 21 25 15 29            -0.004722300
   -733781.181 9   -563954.46247  22283724.659    22283724.8764   22283732.4514
     -1230.457        -958.798
   5095272.810 8   3967553.01146  23033981.839    23033981.8824   23033989.9964
     -1358.264       -1058.388
   8259402.494 9   6433911.07046  23117143.440    23117143.8874   23117153.6004
     -2012.772       -1568.394
  -3446240.295 9  -2677863.93049  19492311.804    19492312.3574   19492318.5314
      -654.559        -510.046
  -1888810.135 9  -1463704.63348  20108098.773    20108099.0324   20108106.0454
      -458.150        -357.000
 -22854456.733 9 -17476401.26848  20438619.856    20438620.5774   20438627.2764
      3545.983        2763.104
 -21996338.260 9 -17125719.01047  20703463.040    20703463.4284   20703470.9254
      3844.942        2996.059
  -6762278.299 8  -5246288.24146  23183992.210    23183992.6784   23184000.8064
      3920.699        3055.090
 96 11 18 17 56 59.9950000  0  8 31 23  3  1 21 25 15 29            -0.004741679
   -696801.554 9   -535139.22147  22290761.773    22290761.8904   22290769.5204
     -1235.298        -962.570
   5136009.640 9   3999295.94146  23041733.957    23041733.9314   23041741.9284
     -1358.164       -1058.310
   8319692.099 9   6480889.85946  23128616.176    23128616.6594   23128626.6124
     -2006.995       -1563.892
  -3426528.155 9  -2662503.82849  19496062.938    19496063.4964   19496069.6854
      -660.135        -514.391
  -1874989.025 9  -1452934.95548  20110728.849    20110729.1114   20110736.1524
      -463.569        -361.223
 -22960722.486 9 -17559205.72048  20418398.020    20418398.8384   20418405.5464
      3537.919        2756.820
 -22111572.937 9 -17215512.24247  20681534.564    20681534.9814   20681542.4504
      3836.891        2989.785
  -6879878.236 9  -5337924.37846  23161613.339    23161614.0514   23161622.2494
      3918.784        3053.598
 96 11 18 17 57 29.9950000  0  8 31 23  3  1 21 25 15 29            -0.004761081
   -659608.721 9   -506157.84047  22297839.253    22297839.4704   22297847.0924
     -1246.459        -971.267
   5176820.885 9   4031096.85146  23049500.135    23049500.1444   23049508.0654
     -1364.671       -1063.380
   8379878.985 9   6527788.63446  23140069.426    23140069.9744   23140079.9794
     -2007.691       -1564.435
  -3406571.747 9  -2646953.38249  19499860.621    19499861.1554   19499867.3794
      -672.349        -523.908
  -1860946.454 9  -1441992.70348  20113401.108    20113401.3624   20113408.4184
      -474.651        -369.858
 -23066675.876 9 -17641766.76648  20398235.711    20398236.5224   20398243.2784
      3523.591        2745.655
 -22226496.650 9 -17305063.16347  20659665.281    20659665.7194   20659673.1554
      3822.590        2978.642
  -6997346.254 8  -5429457.72046  23139260.170    23139260.5254   23139268.6004
      3910.417        3047.078
 96 11 18 17 57 59.9950000  0  8 31 23  3  1 21 25 15 29            -0.004780483
   -622154.766 9   -476972.99547  22304966.453    22304966.7704   22304974.4144
     -1252.197        -975.738
   5217749.569 9   4062989.28046  23057288.678    23057288.6784   23057296.5864
     -1365.617       -1064.117
   8440007.825 9   6574642.17946  23151511.801    23151512.3714   23151522.1344
     -2002.567       -1560.442
  -3386328.052 9  -2631179.07349  19503712.900    19503713.4564   19503719.7084
      -678.927        -529.034
  -1846652.637 9  -1430854.67248  20116121.172    20116121.3994   20116128.4944
      -479.822        -373.887
 -23172270.989 9 -17724048.64248  20378141.586    20378142.3984   20378149.1814
      3514.362        2738.464
 -22341065.884 9 -17394337.86947  20637863.496    20637863.9284   20637871.3294
      3813.599        2971.636
  -7114640.544 8  -5520855.73046  23116939.716    23116940.1114   23116948.0854
      3907.571        3044.861
 96 11 18 17 58 29.9950000  0  8 31 23  3  1 21 25 15 29            -0.004799892
   -584446.769 9   -447590.18647  22312142.071    22312142.4234   22312150.1154
     -1261.119        -982.690
   5258797.811 9   4094974.87146  23065099.738    23065099.9374   23065107.7524
     -1370.581       -1067.985
   8500070.331 9   6621444.03246  23162941.313    23162941.9724   23162951.7954
     -2001.169       -1559.352
  -3365799.748 9  -2615182.99649  19507619.246    19507619.8314   19507626.1594
      -689.258        -537.084
  -1832121.688 9  -1419531.86348  20118886.321    20118886.5614   20118893.6764
      -488.629        -380.750
 -23277493.789 9 -17806040.40248  20358118.242    20358119.1234   20358125.9624
      3500.764        2727.868
 -22455274.553 9 -17483331.61547  20616130.225    20616130.7204   20616138.1074
      3800.668        2961.559
  -7231761.312 9  -5612118.50946  23094652.053    23094652.6914   23094660.5164
      3900.896        3039.659
 96 11 18 17 58 59.9950000  0  8 31 23  3  1 21 25 15 29            -0.004819314
   -546510.610 9   -418029.59147  22319361.216    22319361.5234   22319369.2374
     -1268.406        -988.368
   5299969.565 9   4127056.71646  23072934.592    23072934.6684   23072942.5734
     -1374.772       -1071.251
   8560061.026 9   6668189.93546  23174357.042    23174358.0024   23174367.7194
     -1998.684       -1557.416
  -3345000.706 9  -2598975.95649  19511577.078    19511577.7004   19511584.0864
      -697.737        -543.691
  -1817365.109 9  -1408033.24148  20121694.383    20121694.6444   20121701.7754
      -495.458        -386.071
 -23382342.565 9 -17887740.71648  20338166.357    20338167.0684   20338173.9104
      3488.802        2718.547
 -22569131.222 9 -17572051.08147  20594464.094    20594464.5074   20594471.8674
      3789.335        2952.729
  -7348716.666 9  -5703252.41346  23072396.132    23072396.6354   23072404.5274
      3895.776        3035.670
 96 11 18 17 59 29.9950000  0  8 31 23  3  1 21 25 15 29            -0.004838776
   -508379.585 9   -388317.15147  22326617.317    22326617.6334   22326625.4054
     -1273.840        -992.603
   5341239.521 9   4159215.06946  23080788.254    23080788.1544   23080796.1104
     -1376.555       -1072.640
   8619949.673 9   6714856.32146  23185753.672    23185754.4714   23185764.2224
     -1993.795       -1553.606
  -3323972.019 9  -2582589.97149  19515578.623    19515579.2764   19515585.6444
      -704.246        -548.763
  -1802425.392 9  -1396391.90748  20124537.287    20124537.5814   20124544.7054
      -500.660        -390.125
 -23486862.619 9 -17969184.88148  20318276.719    20318277.5184   20318284.4024
      3479.090        2710.979
 -22682672.234 9 -17660524.58247  20572857.883    20572858.3764   20572865.7074
      3779.989        2945.446
  -7465550.109 9  -5794291.35846  23050163.112    23050163.7954   23050171.7224
      3893.147        3033.621
 96 11 18 17 59 59.9950000  0  8 31 23  3  1 21 25 15 29            -0.004858242
   -470021.849 9   -358428.06047  22333916.540    22333916.8424   22333924.7144
     -1281.737        -998.756
   5382622.993 9   4191461.87146  23088663.113    23088663.1604   23088671.1614
     -1381.010       -1076.112
   8679747.841 9   6761452.21946  23197132.948    23197133.7524   23197143.4484
     -1991.220       -1551.600
  -3302682.950 9  -2566001.09249  19519629.770    19519630.4154   19519636.7444
      -713.588        -556.043
  -1787259.650 9  -1384574.45848  20127423.259    20127423.5344   20127430.6274
      -509.017        -396.637
 -23591022.992 9 -18050348.77948  20298455.703    20298456.4444   20298463.3504
      3466.358        2701.058
 -22795866.955 9 -17748728.23947  20551317.730    20551318.1554   20551325.4464
      3767.739        2935.901
  -7582248.574 9  -5885225.10446  23027956.015    23027956.6574   23027964.5714
      3888.160        3029.735
 96 11 18 18  0 29.9950000  0  8 31 23  3  1 21 25 15 29            -0.004877735
   -431462.986 9   -328382.25447  22341254.099    22341254.3694   22341262.2744
     -1288.657       -1004.148
   5424106.995 9   4223787.00946  23096556.904    23096557.2394   23096565.3844
     -1384.256       -1078.641
   8739433.388 9   6807960.36646  23208490.639    23208491.6814   23208501.3914
     -1987.766       -1548.909
  -3281139.712 9  -2549214.15849  19523729.306    19523729.9684   19523736.1964
      -722.454        -562.951
  -1771864.885 9  -1372578.55648  20130352.732    20130353.0404   20130360.1014
      -517.252        -403.054
 -23694831.269 9 -18131238.31748  20278701.528    20278702.3834   20278709.2804
      3454.353        2691.704
 -22908727.887 9 -17836671.80247  20529840.966    20529841.3964   20529848.6994
      3756.500        2927.143
  -7698823.777 9  -5976062.82746  23005772.321    23005772.9614   23005780.8914
      3883.688        3026.250
 96 11 18 18  0 59.9950000  0  8 31 23  3  1 21 25 15 29            -0.004897243
   -392674.897 9   -298157.83647  22348635.282    22348635.5224   22348643.4884
     -1296.648       -1010.375
   5465693.446 9   4256191.99146  23104470.465    23104470.8654   23104479.2024
     -1387.722       -1081.342
   8799040.347 9   6854407.28746  23219833.688    23219834.5924   23219844.2504
     -1985.501       -1547.144
  -3259312.930 9  -2532206.28249  19527882.864    19527883.5224   19527889.6624
      -732.168        -570.521
  -1756199.575 9  -1360371.83148  20133333.743    20133334.0324   20133341.0814
      -526.599        -410.337
 -23798263.414 9 -18211834.76248  20259018.976    20259019.9264   20259026.7564
      3441.711        2681.853
 -23021232.902 9 -17924338.02548  20508431.933    20508432.3714   20508439.6724
      3744.268        2917.611
  -7815252.676 9  -6066786.55646  22983616.246    22983617.0724   22983625.1124
      3878.698        3022.362
 96 11 18 18  1 29.9950000  0  8 31 23  3  1 21 25 15 29            -0.004916742
   -353656.948 9   -267754.29247  22356060.148    22356060.4254   22356068.3834
     -1303.356       -1015.602
   5507366.020 9   4288664.06646  23112400.198    23112400.8244   23112409.3034
     -1389.212       -1082.503
   8858556.612 9   6900783.54646  23231159.366    23231160.1704   23231169.7654
     -1981.067       -1543.688
  -3237200.714 9  -2514975.98849  19532090.823    19532091.3784   19532097.4804
      -740.686        -577.158
  -1740254.849 9  -1347947.38348  20136367.921    20136368.1834   20136375.1974
      -535.136        -416.989
 -23901327.468 9 -18292144.38448  20239406.645    20239407.5124   20239414.2844
      3430.358        2673.006
 -23133375.232 9 -18011721.63348  20487091.900    20487092.3824   20487099.6874
      3732.984        2908.819
  -7931535.752 9  -6157396.65146  22961488.271    22961489.1274   22961497.1604
      3874.747        3019.283
 96 11 18 18  1 59.9950000  0  8 31 23  3  1 21 25 15 29            -0.004936333
   -314500.656 9   -237242.95347  22363511.296    22363511.6584   22363519.5954
     -1308.523       -1019.628
   5549023.596 9   4321124.45246  23120327.285    23120327.9644   23120336.6324
     -1389.614       -1082.816
   8917883.210 9   6947012.02546  23242448.737    23242449.6834   23242459.1904
     -1975.518       -1539.365
  -3214899.454 9  -2497598.37749  19536334.576    19536335.1834   19536341.3554
      -747.320        -582.327
  -1724125.575 9  -1335379.12448  20139437.146    20139437.4454   20139444.4274
      -541.556        -421.992
 -24004110.682 9 -18372235.16648  20219847.646    20219848.4774   20219855.2234
      3420.365        2665.219
 -23245238.988 9 -18098888.17948  20465804.872    20465805.3964   20465812.6884
      3723.034        2901.065
  -8047759.935 9  -6247960.86846  22939371.467    22939372.3294   22939380.3994
      3871.989        3017.134
 96 11 18 18  2 29.9950000  0  8 31 23  3  1 21 25 15 29            -0.004955908
   -275100.890 9   -206541.90547  22371008.853    22371009.1844   22371017.1524
     -1317.690       -1026.771
   5590776.568 8   4353659.17446  23128272.305    23128273.1884   23128282.1244
     -1393.481       -1085.829
   8977127.976 9   6993176.73945  23253722.985    23253723.6084   23253733.0414
     -1973.657       -1537.915
  -3192326.688 9  -2480009.20349  19540629.954    19540630.5804   19540636.9134
      -756.873        -589.771
  -1707725.442 9  -1322599.81548  20142557.953    20142558.2584   20142565.2324
      -551.176        -429.488
 -24106508.312 9 -18452025.49748  20200361.936    20200362.8304   20200369.5394
      3406.751        2654.611
 -23356718.157 9 -18185755.04648  20444591.063    20444591.6124   20444598.9174
      3709.411        2890.450
  -8163810.086 9  -6338389.47446  22917287.566    22917288.5824   22917296.5384
      3865.308        3011.928
 96 11 18 18  2 59.9950000  0  8 31 23  3  1 21 25 15 29            -0.004975476
   -235466.716 9   -175658.19347  22378550.972    22378551.3364   22378559.3524
     -1324.806       -1032.316
   5632621.524 8   4386265.56146  23136235.038    23136235.8924   23136245.0494
     -1396.555       -1088.225
   9036275.771 9   7039265.90445  23264978.694    23264979.1624   23264988.3394
     -1969.674       -1534.811
  -3169512.555 9  -2462231.95149  19544971.310    19544971.8784   19544978.3624
      -764.166        -595.454
  -1691083.195 9  -1309631.83948  20145724.790    20145725.1574   20145732.1334
      -558.369        -435.093
 -24208545.306 9 -18531534.81548  20180944.908    20180945.7994   20180952.4944
      3395.513        2645.854
 -23467821.724 9 -18272329.22548  20423448.776    20423449.2894   20423456.6184
      3697.323        2881.031
  -8279702.858 9  -6428695.43546  22895233.800    22895234.8064   22895242.8354
      3860.729        3008.360
 96 11 18 18  3 29.9950000  0  8 31 23  3  1 21 25 15 29            -0.004995046
   -195604.642 9   -144596.89647  22386136.414    22386136.8664   22386144.9224
     -1331.462       -1037.503
   5674590.723 8   4418968.77045  23144221.414    23144222.2684   23144231.5834
     -1400.129       -1091.010
   9095314.207 9   7085269.86645  23276213.265    23276213.8934   23276222.9524
     -1965.115       -1531.258
  -3146467.158 9  -2444274.49349  19549356.658    19549357.2274   19549363.7744
      -770.949        -600.739
  -1674214.841 9  -1296487.68248  20148934.722    20148935.1094   20148942.0754
      -564.977        -440.242
 -24310228.624 9 -18610768.54148  20161595.087    20161596.0424   20161602.7574
      3384.480        2637.257
 -23578543.929 9 -18358606.24348  20402379.025    20402379.5424   20402386.8634
      3685.432        2871.765
  -8395434.578 9  -6518875.93346  22873210.750    22873211.7104   22873219.6724
      3856.075        3004.734
 96 11 18 18  3 59.9950000  0  9 31 23  3 14  1 21 25 15 29         -0.005014647
   -155549.438 9   -113385.10947  22393758.664    22393759.1424   22393767.2364
     -1339.370       -1043.665
   5716676.912 8   4451763.14145  23152230.189    23152230.8254   23152240.3354
     -1406.188       -1095.731
   9154228.003 9   7131176.65645  23287424.192    23287424.8924   23287433.9124
     -1963.082       -1529.674
  -1324102.98518   -993638.08955  23761704.166    23761704.8965   23761713.6515
      3782.394        2947.320
  -3123214.337 9  -2426155.41049  19553781.537    19553782.1364   19553788.5754
      -779.803        -607.639
  -1657145.012 9  -1283186.51948  20152183.009    20152183.4184   20152190.3644
      -573.703        -447.041
 -24411569.156 9 -18689735.15848  20142310.598    20142311.5404   20142318.2574
      3370.875        2626.656
 -23688906.554 9 -18444603.06248  20381377.702    20381378.2234   20381385.5954
      3671.462        2860.879
  -8511027.201 9  -6608948.04846  22851214.076    22851215.0834   22851223.0384
      3849.433        2999.558
 96 11 18 18  4 29.9940000  0  9 31 23  3 14  1 21 25 15 29         -0.005034263
   -115302.952 9    -82024.27246  22401417.356    22401417.8804   22401425.9104
     -1343.898       -1047.193
   5758904.093 8   4484667.36345  23160265.463    23160266.2654   23160275.9384
     -1409.043       -1097.956
   9213040.541 9   7177004.61545  23298616.015    23298616.5524   23298625.7474
     -1957.981       -1525.699
  -1437626.556 8  -1082097.99045  23740101.194    23740102.2214   23740110.8614
      3785.938        2950.082
  -3099733.087 9  -2407858.33449  19558249.966    19558250.5694   19558256.7884
      -785.913        -612.400
  -1639844.285 9  -1269705.45048  20155475.250    20155475.6534   20155482.5774
      -579.876        -451.851
 -24512534.819 9 -18768409.67348  20123097.440    20123098.3484   20123105.1014
      3360.321        2618.432
 -23798883.753 9 -18530299.56248  20360449.728    20360450.2264   20360457.6304
      3660.453        2852.301
  -8626452.067 9  -6698889.46146  22829249.383    22829250.4304   22829258.3594
      3845.830        2996.751
 96 11 18 18  4 59.9940000  0  9 31 23  3 14  1 21 25 15 29         -0.005053911
    -74898.315 9    -50540.20247  22409106.228    22409106.7184   22409114.6974
     -1349.925       -1051.890
   5801238.143 8   4517654.86945  23168321.457    23168322.2424   23168331.7104
     -1413.317       -1101.286
   9271721.568 8   7222730.05845  23309782.743    23309783.2514   23309792.6984
     -1954.210       -1522.761
  -1551233.466 8  -1170622.83645  23718482.132    23718483.2874   23718492.0364
      3787.594        2951.372
  -3076038.968 9  -2389395.38849  19562758.854    19562759.4714   19562765.5204
      -793.929        -618.646
  -1622330.756 9  -1256058.56648  20158808.012    20158808.4234   20158815.2944
      -587.961        -458.151
 -24613162.696 9 -18846820.98348  20103948.529    20103949.4364   20103956.2364
      3347.885        2608.742
 -23908511.130 9 -18615723.47248  20339588.235    20339588.8104   20339596.2504
      3647.856        2842.485
  -8741751.941 9  -6788733.49146  22807308.583    22807309.6034   22807317.5004
      3840.631        2992.699
 96 11 18 18  5 29.9940000  0  9 31 23  3 14  1 21 25 15 29         -0.005073563
    -34300.622 9    -18905.68947  22416831.765    22416832.2014   22416840.2184
     -1355.284       -1056.065
   5843697.552 8   4550740.06545  23176401.214    23176401.8154   23176411.2204
     -1415.919       -1103.313
   9330302.635 8   7268377.64545  23320930.031    23320930.9374   23320940.5384
     -1949.946       -1519.438
  -1664877.885 8  -1259176.93145  23696856.277    23696857.4074   23696866.4304
      3789.905        2953.173
  -3052094.129 9  -2370737.07249  19567315.464    19567316.0474   19567322.0324
      -801.240        -624.343
  -1604554.945 9  -1242207.30948  20162190.724    20162191.1224   20162197.9634
      -596.032        -464.441
 -24713390.166 9 -18924920.28248  20084875.909    20084876.7374   20084883.5714
      3335.147        2598.816
 -24017747.088 9 -18700842.37548  20318801.342    20318801.8724   20318809.3444
      3635.754        2833.055
  -8856876.177 9  -6878440.66846  22785401.048    22785402.0974   22785410.0764
      3835.641        2988.811
 96 11 18 18  5 59.9940000  0  9 31 23  3 14  1 21 25 15 29         -0.005093205
      6495.082 9     12883.10846  22424594.937    22424595.4204   22424603.4614
     -1363.627       -1062.566
   5886267.282 8   4583911.21545  23184501.679    23184502.6444   23184511.8884
     -1421.053       -1107.314
   9388793.978 8   7313955.29145  23332060.788    23332061.4304   23332071.3424
     -1948.462       -1518.282
  -1778547.404 8  -1347750.59345  23675225.686    23675226.7824   23675235.8144
      3789.181        2952.609
  -3027884.154 9  -2351872.15349  19571922.386    19571923.0144   19571929.0494
      -811.784        -632.559
  -1586488.943 9  -1228129.91748  20165628.694    20165629.0334   20165635.8374
      -607.353        -473.262
 -24813192.054 9 -19002687.96148  20065884.210    20065885.0554   20065891.9024
      3319.338        2586.497
 -24126578.828 9 -18785646.30448  20298091.401    20298091.8444   20298099.3414
      3620.664        2821.297
  -8971814.683 9  -6968003.12246  22763528.980    22763529.9774   22763537.9454
      3827.779        2982.685
 96 11 18 18  6 29.9940000  0  9 31 23  3 14  1 21 25 15 29         -0.005112829
     47499.522 9     44834.56246  22432398.022    22432398.3684   22432406.3604
     -1369.552       -1067.183
   5928925.507 8   4617151.34345  23192619.651    23192620.2234   23192629.3574
     -1422.493       -1108.436
   9447179.655 8   7359450.58445  23343171.153    23343171.7694   23343181.8884
     -1943.442       -1514.370
  -1892265.587 8  -1436362.13945  23653585.457    23653586.9284   23653596.0564
      3792.547        2955.231
  -3003411.873 9  -2332802.83749  19576579.218    19576579.8644   19576586.0274
      -819.237        -638.366
  -1568138.090 9  -1213830.56248  20169120.701    20169121.1024   20169127.9464
      -615.571        -479.666
 -24912579.587 9 -19080132.76148  20046971.383    20046972.2284   20046979.0654
      3306.986        2576.872
 -24235013.027 9 -18870140.45948  20277456.996    20277457.4704   20277464.9654
      3608.717        2811.987
  -9086566.562 9  -7057420.16446  22741692.544    22741693.3804   22741701.3894
      3822.903        2978.885
 96 11 18 18  6 59.9940000  0  9 31 23  3 14  1 21 25 15 29         -0.005132442
     88701.326 9     76939.81446  22440238.329    22440238.8334   22440246.8054
     -1376.423       -1072.537
   5971664.062 8   4650454.05945  23200752.552    23200753.1914   23200762.3034
     -1426.092       -1111.241
   9505431.377 8   7404841.49345  23354255.875    23354256.4774   23354266.8674
     -1939.423       -1511.239
  -2006054.799 8  -1525029.05245  23631932.058    23631933.4114   23631942.7074
      3794.293        2956.592
  -2978694.542 9  -2313542.57349  19581282.652    19581283.3324   19581289.6494
      -827.712        -644.970
  -1549517.742 9  -1199321.21648  20172664.046    20172664.4714   20172671.3104
      -624.945        -486.970
 -25011570.641 9 -19157268.61248  20028133.998    20028134.8424   20028141.6784
      3293.125        2566.071
 -24343064.889 9 -18954336.69848  20256895.366    20256895.8484   20256903.3714
      3595.431        2801.635
  -9201154.857 9  -7146709.72546  22719887.095    22719887.9164   22719895.9904
      3817.063        2974.335
 96 11 18 18  7 29.9940000  0  9 31 23  3 14  1 21 25 15 29         -0.005152059
    130089.915 9    109190.61346  22448114.340    22448114.8064   22448122.7514
     -1381.815       -1076.739
   6014501.504 8   4683833.86345  23208904.354    23208904.8484   23208913.9414
     -1428.799       -1113.350
   9563565.527 8   7450140.81745  23365318.407    23365319.0654   23365329.4454
     -1935.136       -1507.898
  -2119908.822 8  -1613746.43145  23610266.308    23610267.6204   23610276.9264
      3796.957        2958.668
  -2953741.939 9  -2294098.98149  19586030.973    19586031.6344   19586038.0344
      -834.844        -650.528
  -1530633.186 9  -1184605.99348  20176257.714    20176258.1024   20176264.9524
      -633.025        -493.266
 -25110152.773 9 -19234085.82948  20009374.399    20009375.2784   20009382.1044
      3280.171        2555.977
 -24450724.695 9 -19038227.44448  20236408.373    20236408.8544   20236416.3914
      3582.857        2791.837
  -9315577.422 9  -7235870.16846  22698113.128    22698114.0584   22698122.0934
      3812.191        2970.538
 96 11 18 18  7 59.9940000  0  9 31 23  3 14  1 21 25 15 29         -0.005171673
    171677.236 9    141596.26046  22456028.212    22456028.7014   22456036.6564
     -1389.395       -1082.645
   6057468.565 8   4717314.64345  23217080.828    23217081.4424   23217090.3314
     -1434.290       -1117.629
   9621611.491 8   7495371.38245  23376364.517    23376364.8854   23376375.2464
     -1933.186       -1506.379
  -2233809.229 8  -1702499.93845  23588591.592    23588592.8454   23588602.3084
      3797.866        2959.376
  -2928539.252 9  -2274460.52149  19590826.963    19590827.5714   19590834.0034
      -843.823        -657.524
  -1511475.671 9  -1169678.05648  20179903.322    20179903.6754   20179910.5434
      -642.655        -500.770
 -25208319.478 9 -19310579.33448  19990693.861    19990694.7484   19990701.5734
      3265.717        2544.715
 -24557971.040 9 -19121796.00648  20216000.027    20216000.5564   20216008.0744
      3568.260        2780.462
  -9429823.143 9  -7324892.78246  22676372.628    22676373.7894   22676381.8394
      3805.515        2965.336
 96 11 18 18  8 29.9940000  0  9 31 23  3 14  1 21 25 15 29         -0.005191297
    213460.731 9    174154.77846  22463979.529    22463979.8734   22463987.8834
     -1396.322       -1088.043
   6100573.037 8   4750902.51545  23225283.406    23225284.0704   23225292.9744
     -1439.700       -1121.844
   9679568.985 8   7540532.99045  23387392.951    23387394.0284   23387404.2254
     -1930.888       -1504.588
  -2347766.359 8  -1791297.65445  23566905.894    23566907.4064   23566917.0254
      3798.921        2960.198
  -2903106.431 9  -2254642.73249  19595666.798    19595667.3624   19595673.7284
      -851.762        -663.711
  -1492069.114 9  -1154556.05948  20183596.256    20183596.6114   20183603.5034
      -651.327        -507.528
 -25306080.473 9 -19386756.69048  19972090.547    19972091.4184   19972098.2664
      3251.472        2533.615
 -24664806.407 9 -19205044.32448  20195669.929    20195670.4114   20195677.9614
      3553.850        2769.234
  -9543894.985 9  -7413779.90046  22654665.363    22654666.5184   22654674.6784
      3799.238        2960.445
 96 11 18 18  8 59.9940000  0  9 31 23  3 14  1 21 25 15 29         -0.005210950
    255429.174 9    206857.41346  22471965.783    22471966.2294   22471974.2634
     -1401.773       -1092.291
   6143831.600 8   4784610.43345  23233515.053    23233515.9894   23233524.9194
     -1444.164       -1125.322
   9737441.456 8   7585628.34445  23398405.809    23398406.9314   23398416.8364
     -1927.289       -1501.784
  -2461767.624 8  -1880129.75645  23545212.301    23545213.6614   23545222.9384
      3801.150        2961.935
  -2877459.096 9  -2234657.79749  19600547.377    19600547.9424   19600554.2354
      -858.196        -668.724
  -1472425.667 9  -1139249.47948  20187334.187    20187334.6184   20187341.5374
      -658.369        -513.015
 -25403431.259 9 -19462614.40648  19953565.207    19953566.1464   19953572.9794
      3238.489        2523.498
 -24771223.246 9 -19287966.52348  20175419.383    20175419.9204   20175427.4704
      3540.502        2758.833
  -9657801.078 9  -7502537.83446  22632989.529    22632990.8134   22632999.0154
      3794.336        2956.625
 96 11 18 18  9 29.9940000  0  9 31 23  3 14  1 21 25 15 29         -0.005230642
    297566.290 9    239691.48147  22479984.252    22479984.6424   22479992.7084
     -1407.271       -1096.575
   6187206.651 8   4818409.14445  23241769.266    23241770.0844   23241779.2014
     -1447.337       -1127.795
   9795201.109 8   7630635.79045  23409397.520    23409398.4514   23409408.0544
     -1923.028       -1498.463
  -2575840.708 8  -1969017.80645  23523505.016    23523506.2324   23523515.6614
      3803.736        2963.950
  -2851615.033 9  -2214519.56949  19605465.362    19605465.9094   19605472.1254
      -864.854        -673.912
  -1452571.100 9  -1123778.39348  20191112.376    20191112.8024   20191119.7414
      -665.305        -518.419
 -25500397.115 9 -19538172.17448  19935113.169    19935114.0954   19935120.8984
      3226.001        2513.767
 -24877239.808 9 -19370576.82348  20155245.026    20155245.6084   20155253.1544
      3527.340        2748.577
  -9771554.697 9  -7591176.93946  22611342.912    22611344.1344   22611352.4114
      3789.277        2952.683
 96 11 18 18  9 59.9940000  0  9 31 23  3 14  1 21 25 15 29         -0.005250327
    339916.784 9    272691.81247  22488043.257    22488043.6684   22488051.7814
     -1414.781       -1102.427
   6230726.006 8   4852320.28245  23250050.963    23250051.6764   23250060.6674
     -1452.627       -1131.917
   9852863.906 8   7675567.73745  23420369.641    23420371.3664   23420381.7944
     -1919.711       -1495.879
  -2689942.581 8  -2057928.32145  23501792.329    23501793.3544   23501802.9094
      3804.270        2964.366
  -2825504.871 9  -2194173.98949  19610433.808    19610434.4664   19610440.6554
      -874.421        -681.367
  -1432449.304 9  -1108099.07948  20194941.463    20194941.8794   20194948.8054
      -674.880        -525.880
 -25596939.130 9 -19613399.67748  19916741.888    19916742.7334   19916749.5194
      3211.351        2502.351
 -24982807.564 9 -19452837.39848  20135156.180    20135156.7324   20135164.2534
      3511.810        2736.475
  -9885103.638 9  -7679656.52146  22589735.345    22589736.5114   22589744.7544
      3781.898        2946.934
 96 11 18 18 10 29.9940000  0  9 31 23  3 14  1 21 25 15 29         -0.005270004
    382463.651 9    305845.16547  22496139.622    22496140.0964   22496148.2424
     -1420.586       -1106.950
   6274378.134 8   4886334.89845  23258357.981    23258358.4364   23258367.3964
     -1456.452       -1134.898
   9910396.700 8   7720398.38045  23431317.917    23431319.4624   23431329.3264
     -1914.475       -1491.799
  -2804068.018 8  -2146857.21745  23480075.102    23480076.3034   23480085.2794
      3805.197        2965.089
  -2799124.468 9  -2173617.83449  19615453.831    19615454.4274   19615460.6084
      -883.092        -688.124
  -1412053.245 9  -1092206.04848  20198822.741    20198823.1614   20198830.0574
      -683.814        -532.842
 -25693054.677 9 -19688294.85948  19898451.665    19898452.5144   19898459.2974
      3197.606        2491.641
 -25087925.297 9 -19534747.30048  20115152.942    20115153.4824   20115160.9984
      3497.258        2725.136
  -9998444.971 9  -7767974.33246  22568167.166    22568168.4034   22568176.5734
      3775.411        2941.879
 96 11 18 18 10 59.9940000  0  9 31 23  3 14  1 21 25 15 29         -0.005289667
    425169.649 9    339122.50847  22504266.374    22504266.8404   22504274.9974
     -1426.524       -1111.577
   6318122.257 8   4920421.19045  23266681.873    23266682.7004   23266691.7834
     -1459.626       -1137.371
   9967749.642 8   7765088.88145  23442231.954    23442233.6484   23442243.4204
     -1908.893       -1487.449
  -2918243.291 8  -2235824.94945  23458348.266    23458349.4724   23458358.5034
      3806.579        2966.165
  -2772493.319 9  -2152866.29149  19620521.522    19620522.0974   19620528.2994
      -892.190        -695.213
  -1391394.837 9  -1076108.59248  20202753.933    20202754.3534   20202761.2144
      -693.374        -540.291
 -25788781.393 9 -19762887.05748  19880235.464    19880236.3044   19880243.0454
      3184.281        2481.258
 -25192625.764 9 -19616332.06648  20095229.143    20095229.6244   20095237.1404
      3482.889        2713.939
 -10111607.961 9  -7856153.14746  22546632.846    22546634.1474   22546642.3554
      3768.765        2936.700
 96 11 18 18 11 29.9940000  0  9 31 23  3 14  1 21 25 15 29         -0.005309295
    468032.889 9    372522.38247  22512423.101    22512423.5434   22512431.6254
     -1431.549       -1115.493
   6361941.332 8   4954565.89645  23275020.528    23275021.1944   23275030.2354
     -1462.292       -1139.448
  10024920.800 8   7809637.72945  23453112.191    23453113.1424   23453122.7194
     -1903.212       -1483.022
  -3032467.450 8  -2324830.78445  23436612.064    23436613.3184   23436621.9564
      3807.837        2967.146
  -2745605.593 9  -2131914.82149  19625638.046    19625638.6514   19625644.8814
      -900.626        -701.786
  -1370461.398 9  -1059796.83048  20206737.491    20206737.8624   20206744.6804
      -702.671        -547.536
 -25884118.830 9 -19837175.91848  19862093.288    19862094.1584   19862100.8634
      3170.923        2470.849
 -25296911.125 9 -19697593.36748  20075384.229    20075384.7504   20075392.2674
      3468.958        2703.084
 -10224580.640 9  -7944183.67046  22525134.938    22525136.1584   22525144.2844
      3762.287        2931.652
 96 11 18 18 11 59.9940000  0  9 31 23  3 14  1 21 25 15 29         -0.005328885
    511066.511 9    406055.00947  22520612.184    22520612.6284   22520620.7384
     -1437.191       -1119.889
   6405870.685 8   4988796.52345  23283379.680    23283380.7064   23283389.8484
     -1466.132       -1142.441
  10081941.417 8   7854069.26545  23463963.060    23463963.9494   23463973.5134
     -1898.147       -1479.076
  -3146708.276 9  -2413849.61845  23414872.754    23414874.0744   23414882.5374
      3808.658        2967.785
  -2718458.582 9  -2110761.31649  19630803.973    19630804.5814   19630810.8304
      -908.467        -707.896
  -1349231.574 9  -1043254.12548  20210777.365    20210777.7934   20210784.5244
      -712.214        -554.972
 -25979028.675 9 -19911131.59548  19844032.564    19844033.3964   19844040.0714
      3156.758        2459.811
 -25400757.065 9 -19778512.26648  20055622.950    20055623.5174   20055630.9844
      3454.516        2691.831
 -10337339.740 9  -8032047.77446  22503677.729    22503678.8274   22503686.8094
      3755.423        2926.304
 96 11 18 18 12 29.9940000  0  9 31 23  3 14  1 21 25 15 29         -0.005348431
    554299.480 9    439742.98146  22528838.973    22528839.6374   22528847.7594
     -1445.227       -1126.151
   6449935.286 8   5023132.52945  23291765.006    23291765.8884   23291775.0664
     -1471.731       -1146.803
  10138837.916 8   7898404.06645  23474789.534    23474791.1234   23474800.5014
     -1895.180       -1476.764
  -3260961.400 9  -2502878.04945  23393131.202    23393132.6044   23393140.8004
      3808.308        2967.513
  -2691074.746 9  -2089423.27449  19636015.013    19636015.6044   19636021.8844
      -917.188        -714.692
  -1327705.441 9  -1026480.52048  20214873.651    20214874.0944   20214880.7844
      -722.736        -563.171
 -26073496.860 9 -19984743.12048  19826055.840    19826056.6814   19826063.3464
      3141.019        2447.547
 -25504155.095 9 -19859082.14148  20035946.909    20035947.5404   20035954.9634
      3438.574        2679.408
 -10449874.095 9  -8119736.73546  22482262.990    22482264.1294   22482272.1314
      3746.971        2919.718
 96 11 18 18 12 59.9940000  0  9 31 23  3 14  1 21 25 15 29         -0.005367955
    597740.798 9    473593.31246  22537105.691    22537106.3194   22537114.4524
     -1450.039       -1129.900
   6494133.452 8   5057572.62345  23300175.907    23300176.6324   23300185.7914
     -1474.176       -1148.708
  10195619.634 8   7942649.44245  23485594.789    23485596.2084   23485605.6814
     -1889.607       -1472.421
  -3375261.544 9  -2591943.13045  23371380.819    23371382.1314   23371390.2394
      3812.283        2970.610
  -2663474.782 9  -2067916.82249  19641267.142    19641267.7384   19641274.0444
      -922.157        -718.564
  -1305916.160 9  -1009501.86748  20219020.031    20219020.4524   20219027.1314
      -729.167        -568.182
 -26167534.662 9 -20058019.28648  19808160.979    19808161.8594   19808168.5034
      3128.605        2437.874
 -25607116.493 9 -19939311.79048  20016353.984    20016354.6354   20016362.0194
      3426.099        2669.688
 -10562207.856 9  -8207269.41647  22460886.550    22460887.6334   22460895.6304
      3742.720        2916.405
 96 11 18 18 13 29.9940000  0  9 31 23  3 14  1 21 25 15 29         -0.005387508
    641358.277 9    507580.89946  22545405.777    22545406.5264   22545414.6584
     -1457.365       -1135.609
   6538451.671 8   5092106.24145  23308609.622    23308610.2694   23308619.3394
     -1480.082       -1153.311
  10252274.853 8   7986796.26546  23496376.499    23496377.2644   23496387.0294
     -1886.936       -1470.340
  -3489632.131 9  -2681063.09645  23349617.040    23349618.1844   23349626.3254
      3812.908        2971.097
  -2635685.013 9  -2046262.47249  19646555.436    19646555.9504   19646562.2804
      -930.021        -724.692
  -1283898.466 9   -992345.23848  20223209.932    20223210.3104   20223216.9354
      -738.257        -575.265
 -26261143.971 9 -20130961.56048  19790347.724    19790348.5584   19790355.1734
      3112.548        2425.362
 -25709654.494 9 -20019211.51948  19996841.636    19996842.2794   19996849.6604
      3410.213        2657.309
 -10674376.636 9  -8294673.53746  22439541.371    22439542.4994   22439550.4984
      3735.777        2910.995
 96 11 18 18 13 59.9940000  0  9 31 23  3 14  1 21 25 15 29         -0.005407093
    685156.615 9    541709.41946  22553740.378    22553741.0514   22553749.2614
     -1462.275       -1139.435
   6582907.613 8   5126747.16645  23317069.241    23317069.9344   23317079.0264
     -1483.251       -1155.780
  10308798.591 8   8030840.62246  23507132.462    23507133.5334   23507143.2664
     -1880.990       -1465.706
  -3604069.384 9  -2770235.01346  23327840.570    23327841.4064   23327849.6024
      3816.653        2974.015
  -2607702.041 9  -2024457.57649  19651880.321    19651880.9264   19651887.2674
      -935.302        -728.807
  -1261653.340 9   -975011.39048  20227443.043    20227443.4184   20227450.0334
      -744.552        -580.170
 -26354322.982 9 -20203568.54148  19772616.377    19772617.1624   19772623.7404
      3099.807        2415.434
 -25811759.519 9 -20098773.86548  19977411.777    19977412.3464   19977419.7134
      3397.077        2647.073
 -10786390.589 9  -8381957.03346  22418225.859    22418226.8794   22418234.7734
      3732.068        2908.105
 96 11 18 18 14 29.9940000  0  9 31 23  3 14  1 21 25 15 29         -0.005426716
    729103.634 9    575953.76546  22562103.201    22562103.9224   22562112.1464
     -1467.947       -1143.855
   6627464.632 8   5161466.83345  23325548.442    23325549.0534   23325557.7644
     -1487.754       -1159.289
  10365154.376 8   8074754.10545  23517856.824    23517857.6144   23517867.4174
     -1876.637       -1462.315
  -3718606.579 9  -2859484.79146  23306044.901    23306045.7254   23306053.7494
      3818.549        2975.493
  -2579539.743 9  -2002512.94449  19657239.396    19657240.0324   19657246.3424
      -942.922        -734.744
  -1239203.259 9   -957517.82648  20231715.094    20231715.5324   20231722.1504
      -752.781        -586.582
 -26447111.135 9 -20275870.95948  19754959.426    19754960.1774   19754966.6914
      3085.454        2404.250
 -25913456.899 9 -20178018.56548  19958059.458    19958059.9824   19958067.3364
      3382.116        2635.415
 -10898282.721 9  -8469145.62546  22396933.381    22396934.4814   22396942.2424
      3726.940        2904.109
 96 11 18 18 14 59.9940000  0  9 31 23  3 14  1 21 25 15 29         -0.005446342
    773222.340 9    610331.90746  22570498.851    22570499.5634   22570507.6254
     -1472.909       -1147.721
   6672180.082 8   5196309.95145  23334058.084    23334058.5274   23334066.9214
     -1492.829       -1163.243
  10421397.630 8   8118579.92746  23528559.435    23528560.2114   23528570.1874
     -1872.471       -1459.068
  -3833176.064 9  -2948759.71246  23284243.069    23284243.8194   23284251.8764
      3819.631        2976.336
  -2551124.181 9  -1980370.96948  19662646.778    19662647.3424   19662653.6094
      -951.043        -741.072
  -1216473.619 9   -939806.42948  20236040.429    20236040.8274   20236047.4614
      -762.345        -594.035
 -26539446.733 9 -20347820.73948  19737388.500    19737389.3184   19737395.7784
      3070.518        2392.611
 -26014683.640 9 -20256896.52848  19938796.631    19938797.2004   19938804.5124
      3366.659        2623.371
 -11010008.952 9  -8556204.96546  22375672.431    22375673.5774   22375681.3354
      3721.749        2900.064
 96 11 18 18 15 29.9940000  0  9 31 23  3 14  1 21 25 15 29         -0.005465949
    817512.370 9    644843.54246  22578927.026    22578927.7434   22578935.7244
     -1479.055       -1152.510
   6717066.341 8   5231286.13946  23342600.052    23342600.4434   23342608.6254
     -1498.885       -1167.962
  10477535.364 8   8162323.53245  23539241.702    23539242.7494   23539253.1504
     -1869.126       -1456.462
  -3947747.566 9  -3038036.17546  23262440.789    23262441.6954   23262449.5604
      3819.320        2976.093
  -2522438.632 9  -1958018.61348  19668105.416    19668106.0454   19668112.2464
      -960.426        -748.384
  -1193431.141 9   -921851.25748  20240425.216    20240425.6214   20240432.3134
      -773.069        -602.391
 -26631311.569 9 -20419403.69248  19719907.163    19719908.0094   19719914.4394
      3054.690        2380.278
 -26115419.420 9 -20335391.92048  19919627.298    19919627.8364   19919635.0914
      3349.893        2610.306
 -11121545.358 9  -8643116.38247  22354447.719    22354448.8154   22354456.5764
      3714.699        2894.571
 96 11 18 18 15 59.9940000  0  8 31 23 14  1 21 25 15 29            -0.005485538
    861947.978 9    679468.62446  22587383.044    22587383.5594   22587391.5694
     -1483.239       -1155.771
   6762096.430 8   5266374.41745  23351169.540    23351169.7134   23351177.7374
     -1502.981       -1171.154
  -4062349.646 9  -3127336.45746  23240632.841    23240633.5804   23240641.5134
      3820.848        2977.284
  -2493514.189 9  -1935480.10348  19673609.632    19673610.2104   19673616.3364
      -967.916        -754.220
  -1170103.387 9   -903673.80148  20244864.313    20244864.7284   20244871.4844
      -782.259        -609.552
 -26722740.439 9 -20490646.92748  19702508.873    19702509.6534   19702516.0844
      3040.414        2369.154
 -26215694.334 9 -20413528.20448  19900545.638    19900546.1514   19900553.3964
      3334.971        2598.679
 -11232904.904 9  -8729889.99046  22333256.689    22333257.7774   22333265.4374
      3709.089        2890.199
 96 11 18 18 16 29.9940000  0  8 31 23 14  1 21 25 15 29            -0.005505120
    906491.015 9    714177.42146  22595859.410    22595859.8374   22595867.8514
     -1486.678       -1158.450
   6807248.303 8   5301557.57145  23359761.662    23359762.0044   23359769.8894
     -1507.429       -1174.620
  -4176994.985 9  -3216670.41346  23218816.492    23218817.2574   23218825.1984
      3821.802        2978.028
  -2464367.671 9  -1912768.54149  19679156.001    19679156.6314   19679162.7224
      -975.406        -760.057
  -1146492.108 9   -885275.41948  20249357.395    20249357.8194   20249364.6024
      -791.911        -617.074
 -26813733.832 9 -20561550.82448  19685193.348    19685194.1574   19685200.5934
      3025.454        2357.497
 -26315518.902 9 -20491313.56048  19881549.658    19881550.1744   19881557.4024
      3319.702        2586.781
 -11344090.964 9  -8816528.42246  22312098.732    22312099.7314   22312107.2614
      3703.077        2885.515
 96 11 18 18 16 59.9940000  0  8 31 23 14  1 21 25 15 29            -0.005524701
    951148.538 9    748975.42446  22604357.571    22604357.8834   22604365.9844
     -1491.026       -1161.838
   6852533.350 8   5336844.49745  23368379.454    23368379.4764   23368387.5434
     -1511.744       -1177.982
  -4291664.437 9  -3306023.16746  23196995.510    23196996.3834   23197004.3554
      3822.506        2978.576
  -2434997.878 9  -1889882.99649  19684744.945    19684745.5344   19684751.6504
      -982.841        -765.850
  -1122593.643 9   -866653.26048  20253905.106    20253905.5364   20253912.3824
      -801.440        -624.499
 -26904272.153 9 -20632100.12648  19667964.414    19667965.2574   19667971.7134
      3010.013        2345.465
 -26414882.545 9 -20568739.76148  19862641.383    19862641.9054   19862649.1304
      3304.198        2574.700
 -11455087.538 9  -8903019.21646  22290976.628    22290977.7394   22290985.2314
      3696.246        2880.192
 96 11 18 18 17 29.9940000  0  8 31 23 14  1 21 25 15 29            -0.005544287
    995929.882 9    783869.90246  22612879.166    22612879.5154   22612887.6524
     -1494.421       -1164.484
   6897927.900 8   5372216.71745  23377017.649    23377017.8454   23377026.1494
     -1514.650       -1180.247
  -4406367.177 9  -3395401.86846  23175168.277    23175169.1134   23175177.2874
      3824.217        2979.909
  -2405418.169 9  -1866833.87749  19690373.861    19690374.3634   19690380.5614
      -989.021        -770.666
  -1098432.515 9   -847826.43248  20258502.824    20258503.2304   20258510.1624
      -809.505        -630.783
 -26994353.858 9 -20702293.62348  19650822.348    19650823.2334   19650829.6814
      2995.374        2334.058
 -26513791.065 9 -20645811.32148  19843819.730    19843820.2494   19843827.4814
      3289.673        2563.381
 -11565880.545 9  -8989351.36846  22269893.417    22269894.4644   22269902.0154
      3689.851        2875.209
 96 11 18 18 17 59.9940000  0  8 31 23 14  1 21 25 15 29            -0.005563869
   1040833.231 9    818859.44846  22621424.139    22621424.4154   22621432.5224
     -1499.386       -1168.353
   6943427.595 8   5407670.88345  23385675.908    23385676.1114   23385684.5854
     -1518.920       -1183.574
  -4521088.584 9  -3484795.12046  23153337.403    23153338.2954   23153346.5914
      3823.840        2979.616
  -2375638.465 9  -1843628.91649  19696040.670    19696041.2304   19696047.5364
      -996.443        -776.449
  -1073992.108 9   -828781.97048  20263153.719    20263154.1294   20263161.0644
      -820.016        -638.974
 -27083968.754 9 -20772123.37648  19633769.164    19633770.0444   19633776.4964
      2978.793        2321.137
 -26612240.760 9 -20722525.35048  19825085.356    19825085.9034   19825093.0974
      3273.425        2550.721
 -11676456.657 9  -9075514.52247  22248851.427    22248852.4324   22248860.0574
      3681.732        2868.882
 96 11 18 18 18 29.9940000  0  7 31 14  1 21 25 15 29               -0.005583433
   1085881.463 9    853961.90046  22629996.507    22629996.9234   22630005.0164
     -1504.151       -1172.066
  -4635807.921 9  -3574186.77246  23131506.987    23131507.8774   23131516.2084
      3824.070        2979.795
  -2345647.893 9  -1820259.63849  19701747.569    19701748.2054   19701754.6114
     -1003.085        -781.625
  -1049248.141 9   -809500.97848  20267862.302    20267862.7474   20267869.7214
      -829.486        -646.353
 -27173093.279 9 -20841571.01948  19616809.243    19616810.1444   19616816.6324
      2962.853        2308.717
 -26710209.725 9 -20798864.78548  19806442.481    19806443.0164   19806450.2134
      3257.803        2538.548
 -11786800.759 9  -9161496.89047  22227853.557    22227854.6464   22227862.2464
      3674.568        2863.300
 96 11 18 18 18 59.9940000  0  7 31 14  1 21 25 15 29               -0.005602973
   1131095.688 9    889193.69046  22638600.516    22638600.9904   22638609.1444
     -1509.863       -1176.517
  -4750537.449 9  -3663586.39446  23109674.680    23109675.5824   23109683.9254
      3824.774        2980.343
  -2315444.154 9  -1796724.25549  19707495.077    19707495.7934   19707502.2514
     -1010.178        -787.152
  -1024214.375 9   -789994.16448  20272626.104    20272626.5304   20272633.5424
      -839.227        -653.943
 -27261737.942 9 -20910644.74548  19599940.646    19599941.5454   19599948.0584
      2947.059        2296.410
 -26807703.629 9 -20874834.04348  19787889.982    19787890.5444   19787897.7384
      3242.040        2526.265
 -11896922.725 9  -9247306.15847  22206898.042    22206899.1104   22206906.6354
      3667.223        2857.576
 96 11 18 18 19 29.9940000  0  7 31 14  1 21 25 15 29               -0.005622475
   1176480.921 9    924558.75346  22647237.163    22647237.6044   22647245.8044
     -1514.853       -1180.405
  -4865277.016 9  -3752993.85646  23087840.401    23087841.3664   23087849.7954
      3825.555        2980.952
  -2285023.149 9  -1773019.57748  19713284.057    19713284.7284   19713291.1714
     -1016.829        -792.334
   -998874.582 9   -770248.89248  20277448.175    20277448.5624   20277455.5434
      -849.198        -661.713
 -27349901.446 9 -20979343.54248  19583163.590    19583164.5544   19583171.0514
      2931.717        2284.455
 -26904712.143 9 -20950425.07848  19769429.796    19769430.3934   19769437.5994
      3226.188        2513.913
 -12006820.708 9  -9332940.89647  22185985.051    22185986.1524   22185993.6884
      3660.362        2852.230
 96 11 18 18 19 59.9940000  0  7 31 14  1 21 25 15 29               -0.005641935
   1222019.989 9    960043.68146  22655902.922    22655903.4644   22655911.6954
     -1521.308       -1185.435
  -4980035.549 9  -3842416.12046  23066002.603    23066003.5634   23066012.0284
      3824.918        2980.456
  -2254402.626 9  -1749159.43048  19719111.022    19719111.6584   19719118.0264
     -1024.929        -798.646
   -973229.402 9   -750265.65448  20282328.310    20282328.7194   20282335.6434
      -860.519        -670.534
 -27437608.810 9 -21047686.90548  19566473.427    19566474.3544   19566480.8234
      2915.245        2271.619
 -27001237.098 9 -21025639.31248  19751061.642    19751062.2784   19751069.4744
      3208.508        2500.136
 -12116514.291 9  -9418416.37047  22165110.856    22165112.1134   22165119.6554
      3652.379        2846.010
 96 11 18 18 20 29.9940000  0  7 31 14  1 21 25 15 29               -0.005661381
   1267685.658 9    995627.25946  22664592.930    22664593.3844   22664601.6384
     -1524.347       -1187.803
  -5094848.445 9  -3931880.76246  23044154.415    23044155.4534   23044163.9254
      3827.925        2982.799
  -2223598.430 9  -1725156.16748  19724972.818    19724973.5174   19724979.7954
     -1030.005        -802.601
   -947322.470 9   -730078.45648  20287258.239    20287258.6684   20287265.5734
      -867.930        -676.309
 -27524892.315 9 -21115699.99348  19549863.850    19549864.7834   19549871.2394
      2902.277        2261.515
 -27097292.870 9 -21100487.95248  19732782.817    19732783.4474   19732790.6374
      3193.905        2488.757
 -12226037.687 9  -9503759.22447  22144269.223    22144270.4414   22144277.9514
      3647.850        2842.481
 96 11 18 18 20 59.9940000  0  7 31 14  1 21 25 15 29               -0.005680798
   1313502.881 9   1031328.94446  22673311.610    22673312.1224   22673320.4574
     -1529.273       -1191.641
  -5209683.765 9  -4021362.86846  23022302.068    23022303.0694   23022311.5954
      3828.480        2983.231
  -2192573.305 9  -1700980.75248  19730876.544    19730877.4024   19730883.5894
     -1037.433        -808.389
   -921125.294 9   -709665.09148  20292243.455    20292243.8534   20292250.7544
      -877.810        -684.008
 -27611718.602 9 -21183356.80348  19533341.394    19533342.2774   19533348.7164
      2886.709        2249.384
 -27192837.973 9 -21174938.66348  19714601.165    19714601.8044   19714608.9784
      3176.447        2475.153
 -12335355.920 9  -9588942.21447  22123466.682    22123467.8404   22123475.2984
      3640.798        2836.985
 96 11 18 18 21 29.9940000  0  7 31 14  1 21 25 15 29               -0.005700203
   1359466.290 9   1067144.53546  22682058.034    22682058.6174   22682067.0364
     -1535.589       -1196.563
  -5324523.078 9  -4110848.07546  23000449.092    23000449.9344   23000458.4264
      3827.004        2982.081
  -2161321.774 9  -1676628.91448  19736823.421    19736824.3594   19736830.4894
     -1046.725        -815.630
   -894621.382 9   -689012.70748  20297286.911    20297287.3724   20297294.2914
      -889.615        -693.206
 -27698055.554 9 -21250632.31248  19516911.976    19516912.8534   19516919.2844
      2868.539        2235.225
 -27287844.829 9 -21248969.95548  19696522.044    19696522.5794   19696529.7594
      3156.767        2459.818
 -12444451.377 9  -9673951.60247  22102706.594    22102707.6424   22102715.1254
      3631.688        2829.887
 96 11 18 18 21 59.9940000  0  7 31 14  1 21 25 15 29               -0.005719614
   1405548.841 9   1103052.94546  22690827.198    22690827.8824   22690836.3504
     -1536.903       -1197.587
  -5439390.673 9  -4200355.31746  22978590.603    22978591.4234   22978599.8224
      3830.573        2984.862
  -2129847.412 9  -1652103.45448  19742812.842    19742813.7184   19742819.8374
     -1051.895        -819.658
   -867837.371 9   -668142.07548  20302383.829    20302384.2664   20302391.1084
      -896.220        -698.353
 -27783907.161 9 -21317529.64148  19500574.887    19500575.8324   19500582.2664
      2854.515        2224.297
 -27382328.424 9 -21322593.52748  19678542.380    19678542.9484   19678550.1074
      3141.963        2448.283
 -12553343.331 9  -9758802.43147  22081985.210    22081986.1784   22081993.6194
      3627.593        2826.696
 96 11 18 18 22 29.9940000  0  7 31 14  1 21 25 15 29               -0.005739057
   1451729.642 9   1139037.92446  22699615.235    22699615.8464   22699624.3534
     -1541.655       -1201.290
  -5554312.918 9  -4289905.12046  22956721.567    22956722.5074   22956730.8484
      3831.052        2985.235
  -2098152.034 9  -1627405.76848  19748844.338    19748845.1184   19748851.2874
     -1060.840        -826.629
   -840798.895 9   -647073.14848  20307529.134    20307529.5614   20307536.3354
      -906.167        -706.104
 -27869267.690 9 -21384044.31148  19484331.285    19484332.2434   19484338.6894
      2836.409        2210.189
 -27476316.267 9 -21395830.79048  19660657.085    19660657.6614   19660664.8084
      3124.167        2434.416
 -12662056.117 9  -9843513.65047  22061297.893    22061298.8114   22061306.2044
      3620.125        2820.877
 96 11 18 18 22 59.9940000  0  7 31 14  1 21 25 15 29               -0.005758531
   1498007.577 9   1175098.58346  22708421.571    22708422.3104   22708430.8354
     -1545.149       -1204.012
  -5669291.166 9  -4379498.52746  22934841.743    22934842.8074   22934851.2494
      3832.543        2986.397
  -2066229.065 9  -1602530.74248  19754919.191    19754919.8454   19754926.0964
     -1068.824        -832.850
   -813507.147 9   -625806.88448  20312722.594    20312723.0324   20312729.7784
      -914.910        -712.917
 -27954123.812 9 -21450165.94048  19468183.664    19468184.6384   19468191.0904
      2819.223        2196.797
 -27569814.734 9 -21468686.73148  19642864.909    19642865.4784   19642872.6174
      3107.481        2421.414
 -12770590.351 9  -9928085.74247  22040644.501    22040645.4184   22040652.7804
      3613.818        2815.962
 96 11 18 18 23 29.9940000  0  8 31 14  1 21 30 25 15 29            -0.005777995
   1544439.987 9   1211279.62546  22717257.367    22717258.0784   22717266.7184
     -1549.025       -1207.032
  -5784266.378 9  -4469089.57546  22912962.516    22912963.6114   22912972.1814
      3833.714        2987.310
  -2034019.723 9  -1577432.56548  19761048.539    19761049.0594   19761055.4244
     -1077.061        -839.268
   -785908.061 9   -604301.13048  20317974.480    20317974.9994   20317981.7254
      -923.573        -719.667
  -4039648.10218  -2907560.74955  23462122.927    23462123.3115   23462130.8135
      2658.402        2071.482
 -28038424.008 9 -21515854.37648  19452141.856    19452142.8274   19452149.2694
      2802.406        2183.693
 -27662766.761 9 -21541116.86848  19625176.704    19625177.2674   19625184.4044
      3090.711        2408.346
 -12878882.230 9 -10012468.98747  22020037.138    22020038.0874   22020045.4584
      3606.999        2810.649
 96 11 18 18 23 59.9940000  0  8 31 14  1 21 30 25 15 29            -0.005797487
   1590952.408 9   1247523.00546  22726108.304    22726109.1644   22726117.6384
     -1551.415       -1208.895
  -5899304.032 9  -4558729.25146  22891071.579    22891072.6674   22891081.1034
      3835.850        2988.974
  -2001609.149 9  -1552177.59248  19767216.094    19767216.6284   19767223.0614
     -1082.956        -843.862
   -758092.095 9   -582626.38348  20323267.801    20323268.2634   20323274.9714
      -930.461        -725.034
  -4119270.175 8  -2969603.90846  23446971.121    23446971.7374   23446979.2994
      2650.340        2065.200
 -28122267.628 9 -21581187.04348  19436186.932    19436187.9104   19436194.3524
      2787.715        2172.245
 -27755255.822 9 -21613186.25748  19607576.607    19607577.1854   19607584.2954
      3075.659        2396.617
 -12987008.492 9 -10096723.17647  21999461.340    21999462.2924   21999469.6344
      3601.881        2806.660
 96 11 18 18 24 29.9940000  0  8 31 14  1 21 30 25 15 29            -0.005816961
   1637599.519 9   1283871.37046  22734984.916    22734985.8674   22734994.4164
     -1558.106       -1214.109
  -6014342.764 8  -4648369.74746  22869180.744    22869181.4714   22869189.8134
      3833.501        2987.144
  -1968974.992 9  -1526748.39448  19773426.240    19773426.7524   19773433.2004
     -1092.253        -851.106
   -730004.875 9   -560740.26548  20328612.688    20328613.1194   20328619.8054
      -941.770        -733.847
  -4198592.172 8  -3031413.24646  23431876.586    23431877.2374   23431884.7984
      2638.054        2055.626
 -28205617.909 9 -21646135.29048  19420325.820    19420326.8504   19420333.2964
      2769.372        2157.952
 -27847231.920 9 -21684855.92848  19590074.084    19590074.6824   19590081.8164
      3056.216        2381.467
 -13094917.462 9 -10180808.05347  21978926.955    21978927.8324   21978935.1914
      3592.191        2799.110
 96 11 18 18 24 59.9940000  0  8 31 14  1 21 30 25 15 29            -0.005836395
   1684393.313 9   1320334.00846  22743889.350    22743890.3884   22743899.0124
     -1562.543       -1217.566
  -6129354.856 8  -4737989.49246  22847294.383    22847295.3394   22847303.7274
      3833.001        2986.754
  -1936122.103 9  -1501148.76548  19779678.050    19779678.5094   19779684.9204
     -1098.894        -856.281
   -701624.201 9   -538625.48848  20334013.245    20334013.7964   20334020.4984
      -951.219        -741.210
  -4277585.226 8  -3092966.27346  23416844.730    23416845.3844   23416852.8864
      2626.916        2046.947
 -28288481.130 9 -21710704.01748  19404557.415    19404558.4714   19404564.9314
      2753.849        2145.856
 -27938668.331 9 -21756105.07148  19572674.207    19572674.8794   19572682.0214
      3038.494        2367.658
 -13202578.076 9 -10264699.40647  21958439.661    21958440.6944   21958447.9974
      3584.107        2792.811
 96 11 18 18 25 29.9940000  0  8 31 14  1 21 30 25 15 29            -0.005855796
   1731304.512 9   1356888.13146  22752816.180    22752817.2834   22752826.0054
     -1564.452       -1219.053
  -6244360.303 8  -4827604.05846  22825409.280    22825410.4524   22825418.8594
      3834.367        2987.818
  -1903088.330 9  -1475408.19248  19785964.220    19785964.6664   19785971.0124
     -1103.022        -859.498
   -672970.439 9   -516297.91648  20339465.952    20339466.4674   20339473.1794
      -958.672        -747.017
  -4356235.196 8  -3154251.94446  23401877.784    23401878.6734   23401886.2994
      2616.898        2039.141
 -28370893.277 9 -21774921.25848  19388874.808    19388875.9114   19388882.3544
      2740.486        2135.444
 -28029583.049 9 -21826947.69848  19555373.585    19555374.3514   19555381.4874
      3022.858        2355.474
 -13310010.658 9 -10348413.06747  21937995.925    21937996.8894   21938004.1584
      3578.520        2788.457
 96 11 18 18 25 59.9940000  0  8 31 14  1 21 30 25 15 29            -0.005875184
   1778298.099 9   1393506.44046  22761758.879    22761759.9424   22761768.6244
     -1570.374       -1223.668
  -6359379.731 8  -4917229.54146  22803521.739    22803522.8344   22803531.4144
      3831.858        2985.863
  -1869905.888 9  -1449551.76548  19792278.656    19792279.0814   19792285.3604
     -1111.161        -865.840
   -644055.960 9   -493767.19048  20344968.163    20344968.6874   20344975.4404
      -970.990        -756.615
  -4434562.748 9  -3215286.37446  23386972.265    23386973.3074   23386981.0984
      2603.137        2028.418
 -28452864.146 9 -21838794.64448  19373276.229    19373277.3264   19373283.7484
      2722.223        2121.213
 -28120002.331 9 -21897404.26448  19538167.406    19538168.1144   19538175.2304
      3003.160        2340.125
 -13417256.763 9 -10431981.42847  21917587.620    21917588.6294   21917595.8454
      3569.211        2781.203
 96 11 18 18 26 29.9940000  0  8 31 14  1 21 30 25 15 29            -0.005894540
   1825396.782 9   1430206.63746  22770721.747    22770722.6234   22770731.2764
     -1570.778       -1223.983
  -6474401.444 8  -5006856.81146  22781633.686    22781634.8204   22781643.4354
      3835.093        2988.384
  -1836543.455 9  -1423555.08648  19798627.245    19798627.7264   19798633.9614
     -1114.260        -868.255
   -614837.275 9   -470999.41948  20350528.232    20350528.7864   20350535.6124
      -978.132        -762.181
  -4512537.130 8  -3276045.60146  23372134.438    23372135.3834   23372143.1484
      2593.928        2021.243
 -28534347.696 9 -21902288.29848  19357770.336    19357771.4724   19357777.8814
      2708.704        2110.678
 -28209898.896 9 -21967453.51648  19521060.634    19521061.3604   19521068.4534
      2988.689        2328.849
 -13524282.101 9 -10515377.74847  21897221.341    21897222.3324   21897229.5294
      3564.577        2777.592
 96 11 18 18 26 59.9940000  0  8 31 14  1 21 30 25 15 29            -0.005913880
   1872581.353 9   1466973.75346  22779700.719    22779701.7014   22779710.2454
     -1575.104       -1227.354
  -6589445.751 8  -5096501.70346  22759741.625    22759742.6724   22759751.2824
      3834.532        2987.947
  -1803001.792 9  -1397418.75248  19805009.799    19805010.4634   19805016.6634
     -1122.064        -874.336
   -585323.295 9   -448001.55348  20356144.628    20356145.1204   20356151.9714
      -989.478        -771.022
  -4590157.285 8  -3336528.78645  23357364.008    23357364.7904   23357372.6714
      2580.699        2010.934
 -28615336.937 9 -21965396.78748  19342358.551    19342359.6874   19342366.1084
      2690.248        2096.297
 -28299278.124 9 -22037099.66048  19504052.249    19504053.0314   19504060.1604
      2969.752        2314.092
 -13631088.602 9 -10598603.54647  21876896.546    21876897.6474   21876904.8974
      3555.841        2770.785
 96 11 18 18 27 29.9940000  0  8 31 14  1 21 30 25 15 29            -0.005933211
   1919859.377 9   1503813.68446  22788697.569    22788698.5344   22788707.0044
     -1577.604       -1229.302
  -6704509.542 8  -5186161.78246  22737845.717    22737846.7024   22737855.3324
      3835.382        2988.609
  -1769258.583 9  -1371125.36748  19811430.732    19811431.5354   19811437.7874
     -1128.455        -879.316
   -555503.270 9   -424765.20848  20361819.157    20361819.7074   20361826.5784
      -999.599        -778.908
  -4667424.934 8  -3396737.28746  23342660.310    23342661.1374   23342669.1544
      2569.782        2002.428
 -28695794.383 9 -22028090.87948  19327047.989    19327049.0994   19327055.5644
      2672.511        2082.476
 -28388125.769 9 -22106331.57648  19487145.093    19487145.8684   19487152.9824
      2952.424        2300.590
 -13737678.490 9 -10681660.54947  21856613.071    21856614.2444   21856621.5174
      3549.061        2765.502
 96 11 18 18 27 59.9940000  0  8 31 14  1 21 30 25 15 29            -0.005952529
   1967233.255 9   1540728.32046  22797712.786    22797713.5404   22797721.9154
     -1579.340       -1230.655
  -6819590.649 8  -5275835.36646  22715946.069    22715947.3034   22715956.2334
      3837.967        2990.624
  -1735307.935 9  -1344670.34048  19817891.159    19817892.0914   19817898.4114
     -1133.609        -883.332
   -525356.152 9   -401273.98647  20367555.952    20367556.5114   20367563.4374
     -1008.786        -786.067
  -4744357.994 8  -3456685.06445  23328020.437    23328021.2414   23328029.3594
      2560.330        1995.062
 -28775690.845 9 -22090347.84648  19311844.148    19311845.2744   19311851.7614
      2655.431        2069.167
 -28476434.157 9 -22175143.29748  19470340.483    19470341.3384   19470348.4354
      2936.049        2287.830
 -13844039.952 9 -10764539.55847  21836373.004    21836374.2724   21836381.5564
      3542.850        2760.662
 96 11 18 18 28 29.9940000  0  8 31 14  1 21 30 25 15 29            -0.005971875
   2014642.004 9   1577670.10646  22806734.517    22806735.1634   22806743.5934
     -1580.940       -1231.901
  -6934761.696 8  -5365579.05446  22694029.574    22694030.8644   22694039.9604
      3840.330        2992.465
  -1701216.641 9  -1318105.71748  19824378.628    19824379.4704   19824385.8504
     -1138.845        -887.412
   -494957.626 9   -377586.85447  20373340.538    20373341.1574   20373348.1204
     -1017.513        -792.867
  -4821008.362 8  -3516412.59046  23313434.363    23313435.1894   23313443.3144
      2550.084        1987.078
 -28855099.370 9 -22152224.59848  19296733.097    19296734.3154   19296740.7924
      2638.819        2056.223
 -28564259.949 9 -22243578.96848  19453627.771    19453628.6114   19453635.7364
      2919.223        2274.719
 -13950221.243 9 -10847278.16847  21816167.346    21816168.6194   21816175.9014
      3536.307        2755.564
 96 11 18 18 28 59.9940000  0  8 31 14  1 21 30 25 15 29            -0.005991233
   2062111.975 8   1614659.60046  22815767.972    22815768.4324   22815776.9424
     -1583.976       -1234.267
  -7049981.557 9  -5455360.75946  22672104.105    22672105.2414   22672114.4484
      3840.857        2992.876
  -1666950.815 9  -1291405.09348  19830899.266    19830900.0804   19830906.4964
     -1145.678        -892.736
   -464283.926 9   -353685.30547  20379177.508    20379178.1654   20379185.1774
     -1027.596        -800.724
  -4897346.099 9  -3575896.50646  23298907.727    23298908.4954   23298916.6544
      2538.785        1978.274
 -28933995.188 9 -22213701.83948  19281719.697    19281720.9314   19281727.4224
      2620.903        2042.262
 -28651562.685 9 -22311607.06348  19437014.529    19437015.3984   19437022.5734
      2900.744        2260.320
 -14056201.174 9 -10929859.87547  21795999.991    21796001.2714   21796008.6074
      3528.938        2749.822
 96 11 18 18 29 29.9940000  0  8 31 14  1 21 30 25 15 29            -0.006010579
   2109666.996 9   1651715.38046  22824817.352    22824817.9314   22824826.4474
     -1586.121       -1235.938
  -7165217.998 9  -5545155.38446  22650175.514    22650176.4544   22650185.7344
      3841.828        2993.632
  -1632489.907 9  -1264552.45848  19837456.861    19837457.8594   19837464.2744
     -1151.358        -897.162
   -433307.348 9   -329547.74347  20385072.172    20385072.8694   20385079.8664
     -1037.256        -808.251
  -4973340.582 8  -3635112.98146  23284446.363    23284447.1254   23284455.3504
      2527.761        1969.684
 -29012369.173 9 -22274772.45548  19266805.641    19266806.8464   19266813.3754
      2604.362        2029.373
 -28738316.831 9 -22379207.68548  19420505.674    19420506.6064   19420513.7994
      2883.121        2246.588
 -14161965.166 9 -11012273.32447  21775873.823    21775875.0104   21775882.3434
      3522.202        2744.573
 96 11 18 18 29 59.9930000  0  8 31 14  1 21 30 25 15 29            -0.006029881
   2157342.917 8   1688865.34446  22833889.834    22833890.3024   22833898.9684
     -1589.847       -1238.842
  -7280422.092 9  -5634924.82846  22628252.814    22628253.8014   22628263.1774
      3841.314        2993.232
  -1597807.775 9  -1237527.44248  19844056.787    19844057.7264   19844064.1104
     -1158.231        -902.518
   -401997.481 9   -305150.48547  20391030.305    20391030.9554   20391037.9664
     -1047.378        -816.139
  -5048937.377 9  -3694019.58746  23270060.590    23270061.4884   23270069.6764
      2514.823        1959.602
 -29090201.639 9 -22335421.11748  19251994.663    19251995.8574   19252002.3744
      2587.400        2016.156
 -28824484.125 9 -22446351.01948  19404108.569    19404109.5164   19404116.6994
      2864.139        2231.797
 -14267470.847 9 -11094485.49847  21755796.715    21755797.9154   21755805.2374
      3514.406        2738.498
 96 11 18 18 30 29.9930000  0  8 31 14  1 21 30 25 15 29            -0.006049162
   2205104.351 8   1726081.96746  22842978.691    22842979.0844   22842987.7344
     -1593.741       -1241.876
  -7395628.425 9  -5724695.98846  22606329.659    22606330.7684   22606340.0824
      3839.652        2991.937
  -1562938.098 9  -1210356.28248  19850692.609    19850693.2774   19850699.6154
     -1165.835        -908.443
   -370414.246 9   -280540.20547  20397040.364    20397041.0684   20397048.0914
     -1057.793        -824.254
  -5124171.319 9  -3752643.44246  23255743.596    23255744.7884   23255753.0724
      2501.334        1949.091
 -29167562.100 9 -22395701.97748  19237273.489    19237274.6664   19237281.2024
      2570.371        2002.886
 -28910110.308 9 -22513072.71148  19387814.480    19387815.3714   19387822.5504
      2844.826        2216.747
 -14372775.184 9 -11176540.78647  21735757.925    21735759.0874   21735766.4524
      3506.607        2732.421
 96 11 18 18 30 59.9930000  0  8 31 14  1 21 30 25 15 29            -0.006068409
   2252958.325 9   1763370.69246  22852085.241    22852085.3984   22852094.1384
     -1596.780       -1244.244
  -7510808.995 9  -5814447.06146  22584411.594    22584412.7744   22584421.9194
      3838.916        2991.363
  -1527866.728 9  -1183027.95948  19857366.405    19857367.1504   19857373.4744
     -1172.344        -913.515
   -338532.714 9   -255697.48947  20403107.231    20403107.9454   20403114.9584
     -1067.773        -832.031
  -5199030.463 9  -3810975.24846  23241498.292    23241499.4754   23241507.7874
      2488.989        1939.472
 -29244430.062 9 -22455599.08148  19222646.031    19222647.1804   19222653.7044
      2554.077        1990.190
 -28995180.988 9 -22579361.54148  19371626.072    19371626.9184   19371634.1424
      2826.401        2202.390
 -14477876.040 9 -11258437.51147  21715757.833    21715759.0174   21715766.3854
      3499.894        2727.190
 96 11 18 18 31 29.9930000  0  8 31 14  1 21 30 25 15 29            -0.006087633
   2300872.403 9   1800706.25546  22861202.952    22861203.3274   22861211.9534
     -1598.788       -1245.809
  -7625993.490 9  -5904201.18246  22562492.967    22562494.0004   22562502.9534
      3838.814        2991.284
  -1492631.989 9  -1155572.33548  19864071.209    19864072.0854   19864078.4154
     -1177.876        -917.825
   -306381.850 9   -230644.88747  20409225.411    20409226.0794   20409233.0804
     -1076.851        -839.105
  -5273551.461 8  -3869043.55146  23227317.573    23227318.5664   23227326.8614
      2477.787        1930.743
 -29320841.512 9 -22515140.45648  19208105.443    19208106.5374   19208113.0554
      2538.649        1978.168
 -29079732.434 9 -22645245.76448  19355536.411    19355537.3204   19355544.5334
      2809.046        2188.867
 -14582800.864 9 -11340197.08547  21695791.278    21695792.5114   21695799.8664
      3493.789        2722.433
 96 11 18 18 31 59.9930000  0  8 31 14  1 21 30 25 15 29            -0.006106829
   2348865.421 9   1838103.34646  22870335.637    22870336.1154   22870344.7144
     -1600.415       -1247.077
  -7741155.687 9  -5993937.91846  22540578.310    22540579.4034   22540588.2484
      3839.057        2991.473
  -1457218.672 9  -1127977.55648  19870809.969    19870810.9704   19870817.3504
     -1182.802        -921.664
   -273945.089 9   -205369.50847  20415397.902    20415398.5944   20415405.6304
     -1085.476        -845.825
  -5347716.708 9  -3926834.64146  23213204.241    23213205.2434   23213213.6854
      2466.821        1922.198
 -29396765.927 9 -22574302.32448  19193657.517    19193658.5904   19193665.1104
      2523.177        1966.112
 -29163741.327 9 -22710707.23048  19339550.092    19339550.9524   19339558.1994
      2791.776        2175.410
 -14687525.420 9 -11421800.60447  21675862.900    21675864.1064   21675871.4254
      3488.047        2717.959
 96 11 18 18 32 29.9930000  0  8 31 14  1 21 30 25 15 29            -0.006126006
   2396908.533 9   1875539.45546  22879478.176    22879478.4584   22879486.9934
     -1602.636       -1248.807
  -7856317.306 9  -6083674.21446  22518663.695    22518664.8764   22518673.6374
      3838.407        2990.966
  -1421643.759 9  -1100256.85348  19877579.666    19877580.5944   19877587.0594
     -1188.811        -926.346
   -241223.879 9   -179872.48447  20421624.551    20421625.2574   20421632.3244
     -1096.049        -854.064
  -5421532.356 8  -3984353.29446  23199157.430    23199158.4814   23199167.0564
      2454.009        1912.215
 -29472202.424 9 -22633083.99948  19179302.367    19179303.4924   19179310.0044
      2505.704        1952.497
 -29247215.665 9 -22775752.15648  19323665.460    19323666.3164   19323673.5664
      2773.057        2160.824
 -14792058.705 9 -11503255.09447  21655970.820    21655972.0684   21655979.3624
      3480.761        2712.281
 96 11 18 18 32 59.9930000  0  8 31 14  1 21 30 25 15 29            -0.006145153
   2445027.146 9   1913034.40646  22888634.874    22888635.1634   22888643.6084
     -1605.247       -1250.842
  -7971459.871 9  -6173395.62846  22496752.862    22496753.9534   22496762.7924
      3837.726        2990.436
  -1385886.580 9  -1072394.12048  19884383.970    19884384.9274   19884391.4494
     -1194.932        -931.116
   -208179.015 9   -154123.26347  20427912.785    20427913.4804   20427920.5614
     -1106.771        -862.419
  -5494952.348 9  -4041563.60946  23185186.094    23185187.0414   23185195.6894
      2440.637        1901.795
 -29547101.308 9 -22691446.75648  19165049.524    19165050.6664   19165057.1964
      2487.599        1938.389
 -29330118.012 9 -22840351.38148  19307889.648    19307890.5454   19307897.8044
      2753.765        2145.791
 -14896356.139 9 -11584525.81447  21636123.726    21636124.9124   21636132.1414
      3472.433        2705.792
 96 11 18 18 33 29.9930000  0  8 31 14  1 21 30 25 15 29            -0.006164275
   2493218.786 9   1950586.26346  22897805.356    22897805.7774   22897814.2224
     -1607.351       -1252.481
  -8086585.040 9  -6263103.48046  22474845.333    22474846.3394   22474855.1384
      3837.588        2990.328
  -1349946.109 9  -1044388.56248  19891223.255    19891224.1814   19891230.7204
     -1200.809        -935.695
   -174819.559 9   -128128.90447  20434260.886    20434261.6094   20434268.6774
     -1116.883        -870.298
  -5567965.680 9  -4098457.05046  23171291.727    23171292.9684   23171301.5964
      2427.045        1891.204
 -29621454.059 9 -22749383.95548  19150900.668    19150901.7614   19150908.2834
      2469.414        1924.219
 -29412441.516 9 -22904499.55848  19292224.088    19292224.9224   19292232.1754
      2734.643        2130.891
 -15000405.266 9 -11665603.05147  21616323.774    21616324.9854   21616332.2374
      3464.474        2699.590
 96 11 18 18 33 59.9930000  0  8 31 14  1 21 30 25 15 29            -0.006183408
   2541436.862 9   1988158.72246  22906980.875    22906981.4234   22906989.7454
     -1607.833       -1252.857
  -8201742.423 9  -6352836.43846  22452931.523    22452932.5804   22452941.3104
      3839.107        2991.512
  -1313860.750 9  -1016270.10548  19898090.186    19898091.0254   19898097.5924
     -1205.442        -939.305
   -141187.800 9   -101922.36147  20440660.866    20440661.5734   20440668.6194
     -1125.619        -877.106
  -5640598.450 8  -4155053.95046  23157470.403    23157471.3254   23157480.1254
      2414.847        1881.699
 -29695290.748 9 -22806919.02548  19136849.949    19136851.0764   19136857.5874
      2452.671        1911.172
 -29494219.921 9 -22968222.97748  19276662.225    19276663.0174   19276670.2994
      2716.822        2117.004
 -15104247.490 9 -11746519.06147  21596563.250    21596564.4604   21596571.7344
      3457.796        2694.386
 96 11 18 18 34 29.9930000  0  8 31 14  1 21 30 25 15 29            -0.006202524
   2589714.585 9   2025777.65646  22916167.968    22916168.3394   22916176.7584
     -1611.119       -1255.417
  -8316904.144 9  -6442572.79946  22431016.901    22431018.0044   22431026.6464
      3838.027        2990.670
  -1277587.169 9   -988004.98548  19904992.762    19904993.7054   19905000.2484
     -1212.891        -945.110
   -107258.924 9    -75484.29947  20447117.395    20447118.0964   20447125.1274
     -1136.333        -885.454
  -5712828.269 8  -4211336.83245  23143725.197    23143726.2824   23143735.2144
      2400.392        1870.435
 -29768587.837 9 -22864033.62648  19122901.962    19122903.1344   19122909.5874
      2433.719        1896.404
 -29575423.990 9 -23031498.85848  19261209.580    19261210.4034   19261217.6744
      2696.643        2101.280
 -15207842.312 9 -11827242.29247  21576849.752    21576850.9734   21576858.2804
      3448.484        2687.130
 96 11 18 18 34 59.9930000  0  8 31 14  1 21 30 25 15 29            -0.006221610
   2638083.987 9   2063468.03346  22925372.254    22925372.7734   22925381.2884
     -1613.255       -1257.082
  -8432039.779 9  -6532288.82146  22409107.269    22409108.4164   22409117.0164
      3837.889        2990.563
  -1241101.434 9   -959574.55648  19911935.853    19911936.7884   19911943.2684
     -1219.167        -950.000
    -73030.183 9    -48812.58047  20453630.821    20453631.5894   20453638.6714
     -1145.351        -892.481
  -5784650.036 8  -4267301.76846  23130057.692    23130058.8884   23130067.9864
      2388.154        1860.899
 -29841331.576 9 -22920717.05348  19109059.362    19109060.5184   19109066.8914
      2416.127        1882.696
 -29656036.793 9 -23094314.01948  19245869.534    19245870.3104   19245877.5894
      2677.852        2086.638
 -15311172.073 9 -11907758.96747  21557186.670    21557187.9464   21557195.3004
      3440.591        2680.980
 96 11 18 18 35 29.9930000  0  8 31 14  1 21 30 25 15 29            -0.006240680
   2686507.811 9   2101200.82246  22934586.945    22934587.4804   22934596.1624
     -1616.043       -1259.254
  -8547173.839 9  -6622003.61146  22387198.089    22387199.2044   22387207.6764
      3836.916        2989.805
  -1204429.702 9   -930999.18948  19918914.447    19918915.2514   19918921.6644
     -1226.513        -955.724
    -38529.438 9    -21928.90747  20460196.083    20460196.8714   20460203.9934
     -1155.563        -900.439
  -5856112.535 8  -4322986.77545  23116458.612    23116459.8654   23116469.0704
      2375.137        1850.756
 -29913553.115 9 -22976993.57348  19095316.104    19095317.2644   19095323.5554
      2397.782        1868.402
 -29736091.405 9 -23156694.22548  19230635.638    19230636.4204   19230643.7204
      2658.225        2071.344
 -15414276.477 9 -11988100.04947  21537566.497    21537567.8284   21537575.1784
      3432.059        2674.332
 96 11 18 18 35 59.9930000  0  8 31 14  1 21 30 25 15 29            -0.006259713
   2735011.547 9   2138995.84846  22943816.862    22943817.3854   22943826.2624
     -1618.311       -1261.022
  -8662284.412 9  -6711700.13246  22365293.171    22365294.2864   22365302.7914
      3836.236        2989.275
  -1167543.423 9   -902256.65048  19925933.589    19925934.5114   19925940.8594
     -1233.308        -961.019
     -3724.771 9      5191.58747  20466819.255    20466820.0274   20466827.1404
     -1165.563        -908.231
  -5927192.747 9  -4378373.89046  23102932.547    23102933.7444   23102942.9094
      2362.892        1841.215
 -29985231.694 9 -23032847.00348  19081676.229    19081677.3474   19081683.5604
      2379.930        1854.491
 -29815560.802 9 -23218618.42448  19215513.173    19215513.8914   19215521.1844
      2638.941        2056.318
 -15517123.818 9 -12068240.81247  21517995.189    21517996.5784   21518003.9424
      3423.662        2667.789
 96 11 18 18 36 29.9930000  0  8 31 14  1 21 30 25 15 29            -0.006278712
   2783587.518 9   2176847.17546  22953060.630    22953061.1774   22953070.1024
     -1620.032       -1262.362
  -8777370.928 9  -6801377.89946  22343392.756    22343393.9624   22343402.4484
      3836.263        2989.296
  -1130457.058 9   -873358.19848  19932991.095    19932991.8144   19932998.1154
     -1239.033        -965.480
     31381.592 9     32547.17547  20473499.879    20473500.6354   20473507.6794
     -1175.019        -915.599
  -5997896.487 9  -4433467.65045  23089478.057    23089479.2174   23089488.4904
      2350.695        1831.710
 -30056362.424 9 -23088273.54048  19068140.519    19068141.6624   19068147.8544
      2361.992        1840.513
 -29894447.085 9 -23280088.24948  19200501.600    19200502.3464   19200509.6164
      2620.027        2041.579
 -15619723.866 9 -12148188.86647  21498471.052    21498472.4104   21498479.8304
      3416.441        2662.162
 96 11 18 18 36 59.9930000  0  8 31 14  1 21 30 25 15 29            -0.006297642
   2832209.519 9   2214734.38546  22962313.065    22962313.6674   22962322.6154
     -1620.968       -1263.092
  -8892455.501 9  -6891054.16746  22321492.943    22321494.0134   22321502.5454
      3836.607        2989.564
  -1093197.657 9   -844324.91648  19940081.035    19940081.9864   19940088.3034
     -1244.499        -969.739
     66787.975 9     60136.53247  20480237.533    20480238.3094   20480245.2954
     -1185.040        -923.408
  -6068223.896 9  -4488268.16146  23076095.050    23076096.3954   23076105.6484
      2338.290        1822.044
 -30126939.848 9 -23143268.92148  19054710.123    19054711.2624   19054717.4494
      2343.698        1826.258
 -29972754.571 9 -23341107.06048  19185600.225    19185600.9454   19185608.1704
      2600.849        2026.636
 -15722100.284 9 -12227962.65047  21478989.406    21478990.8254   21478998.2454
      3409.145        2656.477
 96 11 18 18 37 29.9930000  0  8 31 14  1 21 30 25 15 29            -0.006316616
   2880854.959 9   2252639.86246  22971570.016    22971570.6584   22971579.5794
     -1622.468       -1264.261
  -9007564.197 9  -6980749.24346  22299588.508    22299589.5794   22299597.9384
      3836.999        2989.869
  -1055779.553 9   -815167.97148  19947201.550    19947202.3534   19947208.7334
     -1250.502        -974.417
    102490.973 9     87957.02647  20487031.620    20487032.4214   20487039.3864
     -1195.446        -931.516
  -6138181.724 8  -4542780.71746  23062782.429    23062783.8054   23062793.1644
      2325.188        1811.835
 -30196982.993 9 -23197847.98748  19041381.361    19041382.4814   19041388.6644
      2325.509        1812.085
 -30050490.451 9 -23401680.46548  19170807.518    19170808.2734   19170815.5124
      2581.125        2011.266
 -15824269.380 9 -12307574.88647  21459547.329    21459548.6324   21459556.0714
      3401.723        2650.693
 96 11 18 18 37 59.9930000  0  8 31 14  1 21 30 25 15 29            -0.006335577
   2929542.254 9   2290577.92946  22980834.816    22980835.6154   22980844.5144
     -1623.551       -1265.105
  -9122680.827 9  -7070450.49946  22277682.493    22277683.6014   22277691.9034
      3837.222        2990.043
  -1018182.885 9   -785871.87848  19954355.698    19954356.6884   19954363.1674
     -1256.067        -978.754
    138508.201 9    116022.37747  20493885.684    20493886.4074   20493893.2724
     -1205.861        -939.632
  -6207740.551 9  -4596982.35746  23049545.896    23049547.1364   23049556.5524
      2312.037        1801.587
 -30266474.332 9 -23251997.06548  19028157.564    19028158.6964   19028164.9254
      2307.000        1797.662
 -30127629.018 9 -23461788.43148  19156128.497    19156129.2854   19156136.5204
      2561.275        1995.799
 -15926215.136 9 -12387013.09047  21440147.573    21440148.9524   21440156.4064
      3394.536        2645.093
 96 11 18 18 38 29.9930000  0  8 31 14  1 21 30 25 15 29            -0.006354560
   2978223.462 9   2328511.24046  22990098.498    22990099.3954   22990108.2414
     -1622.612       -1264.373
  -9237839.591 9  -7160184.58746  22255768.470    22255769.6414   22255777.9254
      3839.360        2991.709
   -980460.542 9   -756477.86348  19961534.146    19961534.9644   19961541.5374
     -1259.441        -981.383
    174791.515 9    144295.05647  20500790.222    20500790.9394   20500797.7754
     -1213.694        -945.736
  -6276939.474 9  -4650903.58746  23036377.700    23036378.9784   23036388.3504
      2300.614        1792.686
 -30335445.936 9 -23305741.16148  19015032.631    19015033.7914   19015040.0784
      2290.655        1784.926
 -30204210.313 9 -23521462.16548  19141555.513    19141556.3334   19141563.5834
      2543.469        1981.924
 -16027989.260 9 -12466317.55247  21420780.482    21420781.9504   21420789.4114
      3389.690        2641.317
 96 11 18 18 38 59.9930000  0  8 31 14  1 21 30 25 15 29            -0.006373532
   3026946.845 9   2366477.43446  22999370.264    22999371.2734   22999380.0494
     -1627.953       -1268.535
  -9352992.307 9  -7249913.98146  22233855.625    22233856.8334   22233865.1244
      3835.372        2988.602
   -942564.663 9   -726948.61848  19968745.330    19968746.2994   19968752.9444
     -1269.153        -988.950
    211373.293 9    172800.30247  20507751.643    20507752.2774   20507759.0834
     -1227.147        -956.218
  -6345735.579 9  -4704510.94446  23023286.057    23023287.6074   23023296.8104
      2283.665        1779.479
 -30403874.971 9 -23359062.47948  19002011.016    19002012.1824   19002018.4564
      2269.192        1768.202
 -30280192.089 9 -23580668.73448  19127096.597    19127097.4544   19127104.7004
      2519.847        1963.517
 -16129545.738 9 -12545452.41147  21401454.999    21401456.3814   21401463.8484
      3378.590        2632.668
 96 11 18 18 39 29.9930000  0  8 31 14  1 21 30 25 15 29            -0.006392427
   3075827.797 9   2404566.37146  23008672.089    23008673.1004   23008681.9654
     -1631.262       -1271.113
  -9468030.848 9  -7339554.39746  22211964.630    22211965.7194   22211973.9704
      3833.473        2987.122
   -904379.860 9   -697194.24648  19976011.822    19976012.6864   19976019.3544
     -1276.713        -994.841
    248347.225 9    201611.13347  20514787.754    20514788.2644   20514795.0214
     -1238.119        -964.768
  -6414025.564 9  -4757723.93346  23010290.769    23010292.4304   23010301.6544
      2268.613        1767.750
 -30471663.367 9 -23411884.59648  18989111.382    18989112.4844   18989118.7714
      2249.496        1752.854
 -30355468.552 9 -23639325.70748  19112772.048    19112772.8354   19112780.0624
      2498.269        1946.703
 -16230774.072 9 -12624331.58047  21382191.943    21382193.2774   21382200.6494
      3369.551        2625.624
 96 11 18 18 39 59.9930000  0  8 31 14  1 21 30 25 15 29            -0.006411296
   3124788.452 9   2442717.42146  23017988.957    23017990.0834   23017998.8464
     -1633.690       -1273.005
  -9583024.696 9  -7429159.97646  22190082.025    22190083.1104   22190091.3394
      3832.065        2986.025
   -865997.963 9   -667286.29948  19983315.612    19983316.6334   19983323.2554
     -1282.800        -999.584
    285635.659 9    230667.02547  20521883.595    20521884.0904   20521890.8154
     -1248.502        -972.859
  -6481878.218 9  -4810596.16046  22997379.267    22997380.6434   22997389.7624
      2254.187        1756.509
 -30538866.999 9 -23464251.05548  18976322.950    18976324.0764   18976330.3444
      2230.002        1737.664
 -30430118.255 9 -23697494.30048  19098566.710    19098567.4864   19098574.6964
      2477.659        1930.643
 -16331746.357 9 -12703011.23047  21362977.560    21362978.8724   21362986.2024
      3361.230        2619.140
 96 11 18 18 40 29.9930000  0  8 31 14  1 21 30 25 15 29            -0.006430129
   3173844.354 9   2480942.67946  23027324.080    23027325.2054   23027334.1164
     -1636.514       -1275.206
  -9697960.828 9  -7518720.57346  22168210.422    22168211.4854   22168219.7524
      3830.631        2984.907
   -827423.867 9   -637228.59048  19990656.197    19990657.1664   19990663.6874
     -1288.563       -1004.075
    323243.697 9    259971.96447  20529040.250    20529040.7214   20529047.4224
     -1258.574        -980.707
  -6549280.191 9  -4863117.21446  22984553.411    22984554.6804   22984563.5644
      2239.579        1745.126
 -30605483.938 9 -23516160.35148  18963646.188    18963647.2944   18963653.5684
      2211.557        1723.291
 -30504138.243 9 -23755172.20748  19084481.219    19084481.9704   19084489.1574
      2457.230        1914.725
 -16432454.337 9 -12781484.93247  21343813.403    21343814.7524   21343822.0314
      3352.769        2612.547
 96 11 18 18 40 59.9930000  0  8 31 14  1 21 30 25 15 29            -0.006448936
   3222958.923 9   2519213.64645  23036670.635    23036671.5024   23036680.6724
     -1637.924       -1276.304
  -9812882.896 9  -7608270.22046  22146341.405    22146342.5334   22146350.7514
      3830.566        2984.857
   -788698.674 9   -607053.14848  19998025.434    19998026.4504   19998032.8424
     -1293.414       -1007.855
    361136.632 9    289498.88947  20536251.099    20536251.5664   20536258.2214
     -1267.976        -988.033
  -6616276.266 8  -4915321.98946  22971804.772    22971805.8364   22971814.5974
      2226.441        1734.889
 -30671572.988 9 -23567658.30048  18951069.862    18951070.9494   18951077.2264
      2193.935        1709.560
 -30577569.019 9 -23812390.98648  19070507.838    19070508.5854   19070515.7194
      2437.904        1899.665
 -16532922.860 9 -12859772.04347  21324694.785    21324696.1694   21324703.4464
      3344.932        2606.441
 96 11 18 18 41 29.9930000  0  8 31 14  1 21 30 25 15 29            -0.006467727
   3272092.097 9   2557499.10045  23046020.508    23046021.4314   23046030.6354
     -1638.613       -1276.841
  -9927807.741 9  -7697822.00146  22124471.788    22124472.9974   22124481.2294
      3829.937        2984.366
   -749841.029 9   -576774.49348  20005419.921    20005420.8684   20005427.1864
     -1297.985       -1011.417
    399309.757 9    319244.15947  20543515.194    20543515.6944   20543522.3484
     -1278.068        -995.897
  -6682874.718 9  -4967216.92545  22959131.284    22959132.6364   22959141.5084
      2212.339        1723.901
 -30737131.231 9 -23618742.62848  18938594.483    18938595.5944   18938601.8764
      2175.704        1695.354
 -30650427.707 9 -23869163.99348  19056643.285    19056644.0294   19056651.1574
      2418.355        1884.432
 -16633168.164 9 -12937885.21447  21305618.779    21305620.0874   21305627.3824
      3337.106        2600.342
 96 11 18 18 41 59.9930000  0  8 31 14  1 21 30 25 15 29            -0.006486471
   3321253.350 9   2595806.42145  23055375.665    23055376.6554   23055385.9154
     -1638.478       -1276.736
 -10042696.414 9  -7787345.59646  22102609.247    22102610.3704   22102618.6104
      3829.637        2984.133
   -710842.420 9   -546386.00248  20012841.181    20012842.0284   20012848.3354
     -1301.634       -1014.260
    437806.470 9    349241.56847  20550840.994    20550841.4034   20550848.0954
     -1287.882       -1003.544
  -6749032.060 8  -5018768.12646  22946542.026    22946543.3154   22946552.2424
      2198.632        1713.220
 -30802144.069 9 -23669401.96448  18926222.943    18926224.0754   18926230.3244
      2158.980        1682.322
 -30722693.340 9 -23925474.87748  19042891.580    19042892.3594   19042899.4664
      2399.654        1869.860
 -16733175.754 9 -13015813.17047  21286587.959    21286589.2954   21286596.5314
      3330.397        2595.115
 96 11 18 18 42 29.9930000  0  8 31 14  1 21 30 25 15 29            -0.006505178
   3370406.848 8   2634107.67745  23064729.482    23064730.3714   23064739.7364
     -1639.075       -1277.201
 -10157566.165 9  -7876854.45446  22080750.307    22080751.3774   22080759.5854
      3827.773        2982.680
   -671727.790 9   -515907.10048  20020284.259    20020285.2034   20020291.5984
     -1306.797       -1018.283
    476596.264 9    379467.35247  20558222.327    20558222.8414   20558229.6064
     -1298.688       -1011.965
  -6814771.605 9  -5069993.70346  22934032.456    22934033.7394   22934042.5474
      2183.358        1701.318
 -30866658.935 9 -23719673.26648  18913946.164    18913947.2794   18913953.5284
      2141.176        1668.449
 -30794389.609 9 -23981342.10448  19029248.197    19029248.9914   19029256.1254
      2379.372        1854.056
 -16832972.661 9 -13093576.94847  21267597.369    21267598.5644   21267605.7514
      3322.064        2588.621
 96 11 18 18 42 59.9930000  0  8 31 14  1 21 30 25 15 29            -0.006523865
   3419518.715 9   2672376.50145  23074075.411    23074076.2624   23074085.5254
     -1635.469       -1274.391
 -10272426.471 9  -7966355.96546  22058893.067    22058894.1934   22058902.4654
      3829.135        2983.742
   -632490.983 9   -485332.99248  20027750.680    20027751.6074   20027758.0944
     -1309.446       -1020.348
    515663.806 9    409909.57947  20565656.575    20565657.1134   20565663.9674
     -1306.273       -1017.875
  -6880096.345 9  -5120896.03246  22921601.934    22921602.9784   22921611.5654
      2171.102        1691.768
 -30930666.045 9 -23769548.91448  18901766.052    18901767.1494   18901773.3904
      2125.429        1656.178
 -30865519.585 9 -24036768.06048  19015712.639    19015713.3834   19015720.5194
      2362.169        1840.651
 -16932570.396 9 -13171185.54047  21248644.492    21248645.6974   21248652.8874
      3317.558        2585.110
 96 11 18 18 43 29.9930000  0  8 31 14  1 21 30 25 15 29            -0.006542555
   3468556.410 8   2710587.51945  23083407.059    23083407.8374   23083417.1594
     -1634.666       -1273.766
 -10387292.236 9  -8055861.71046  22037034.802    22037036.0194   22037044.1554
      3828.019        2982.872
   -593147.316 9   -454675.60748  20035237.443    20035238.3754   20035244.9324
     -1314.092       -1023.968
    554992.787 9    440555.50647  20573140.576    20573141.1454   20573148.0684
     -1316.276       -1025.670
  -6945005.513 8  -5171474.51946  22909249.916    22909251.1804   22909259.8384
      2155.670        1679.743
 -30994168.306 9 -23819031.17049  18889682.019    18889683.1214   18889689.3194
      2107.437        1642.159
 -30936095.190 9 -24091762.03848  19002282.556    19002283.2914   19002290.4384
      2342.205        1825.095
 -17032004.940 9 -13248666.95947  21229722.705    21229723.8644   21229731.0704
      3310.706        2579.771
 96 11 18 18 43 59.9930000  0  8 31 14  1 21 30 25 15 29            -0.006561247
   3517542.174 8   2748758.09045  23092728.547    23092729.3464   23092738.9904
     -1632.355       -1271.965
 -10502165.170 9  -8145373.03946  22015175.377    22015176.4634   22015184.5184
      3828.988        2983.627
   -553695.703 9   -423934.11248  20042744.898    20042745.7814   20042752.3574
     -1317.337       -1026.496
    594582.410 9    471404.54047  20580674.197    20580674.8354   20580681.7524
     -1324.088       -1031.757
  -7009499.069 9  -5221729.12146  22896977.234    22896978.4814   22896987.0224
      2142.839        1669.745
 -31057162.479 9 -23868117.51949  18877694.679    18877695.7774   18877701.9294
      2090.785        1629.183
 -31006104.466 9 -24146314.72248  18988960.189    18988960.9514   18988968.1184
      2323.765        1810.726
 -17131260.229 9 -13326008.69647  21210834.948    21210836.1754   21210843.3584
      3304.940        2575.278
 96 11 18 18 44 29.9930000  0  8 31 14  1 21 30 25 15 29            -0.006579937
   3566498.224 8   2786905.48945  23102044.661    23102045.4254   23102055.1294
     -1631.021       -1270.925
 -10617031.862 9  -8234879.50646  21993316.863    21993317.9904   21993325.9744
      3829.238        2983.822
   -514093.326 9   -393075.13748  20050281.067    20050281.9704   20050288.4884
     -1322.524       -1030.538
    634440.116 9    502462.46247  20588258.868    20588259.5334   20588266.4494
     -1332.856       -1038.589
  -7073578.639 9  -5271661.16146  22884783.327    22884784.4704   22884793.0954
      2129.552        1659.391
 -31119601.657 9 -23916771.40549  18865812.917    18865814.0334   18865820.1604
      2072.092        1614.617
 -31075513.305 9 -24200399.52848  18975752.064    18975752.8704   18975760.0744
      2303.798        1795.167
 -17230286.381 9 -13403171.90047  21191990.842    21191992.0824   21191999.2274
      3297.229        2569.269
 96 11 18 18 44 59.9930000  0  8 31 14  1 21 30 25 15 29            -0.006598637
   3615406.155 8   2825015.41045  23111351.526    23111352.4934   23111362.0314
     -1629.223       -1269.524
 -10731928.099 9  -8324408.99746  21971452.876    21971453.9154   21971461.9174
      3830.895        2985.113
   -474339.510 9   -362098.16248  20057846.254    20057847.0074   20057853.4644
     -1327.103       -1034.106
    674560.740 9    533725.25747  20595893.472    20595894.2174   20595901.2024
     -1341.521       -1045.341
  -7137279.753 9  -5321298.30245  22872661.595    22872662.5584   22872671.0444
      2117.582        1650.064
 -31181484.931 9 -23964992.12249  18854036.919    18854038.0404   18854044.1824
      2053.995        1600.515
 -31144333.136 9 -24254025.36748  18962656.062    18962656.8894   18962664.0934
      2284.610        1780.216
 -17329097.709 9 -13480167.69947  21173187.829    21173188.9184   21173196.0384
      3290.677        2564.164
 96 11 18 18 45 29.9930000  0  8 31 14  1 21 30 25 15 29            -0.006617348
   3664281.383 8   2863099.82045  23120652.200    23120653.0134   23120662.9624
     -1628.073       -1268.628
 -10846874.007 9  -8413977.18746  21949579.253    21949580.3494   21949588.5034
      3833.196        2986.906
   -434452.175 9   -331017.14448  20065436.717    20065437.4804   20065443.8754
     -1330.911       -1037.073
    714952.329 9    565199.18647  20603579.710    20603580.4504   20603587.5194
     -1350.158       -1052.071
  -7200613.969 9  -5370649.55046  22860609.323    22860610.3564   22860618.7644
      2105.877        1640.943
 -31242825.547 9 -24012789.98849  18842364.179    18842365.3104   18842371.4524
      2036.542        1586.916
 -31212568.207 9 -24307195.55248  18949671.376    18949672.1854   18949679.4064
      2265.549        1765.363
 -17427698.163 9 -13556999.18347  21154424.748    21154425.8564   21154433.0464
      3283.780        2558.790
 96 11 18 18 45 59.9930000  0  8 31 14  1 21 30 25 15 29            -0.006636052
   3713152.732 8   2901181.25045  23129952.332    23129953.1814   23129962.9554
     -1629.407       -1269.668
 -10961853.143 9  -8503571.27946  21927699.330    21927700.4594   21927708.7034
      3832.674        2986.499
   -394413.949 9   -299818.54448  20073055.812    20073056.6304   20073062.9694
     -1337.651       -1042.325
    755634.508 9    596899.54947  20611321.400    20611322.0274   20611329.0994
     -1361.302       -1060.755
  -7263568.486 9  -5419704.94646  22848629.385    22848630.2394   22848638.7114
      2091.662        1629.866
 -31303606.317 9 -24060151.61349  18830797.959    18830799.0884   18830805.2464
      2016.254        1571.107
 -31280200.229 9 -24359895.82648  18936801.475    18936802.2444   18936809.4534
      2243.892        1748.487
 -17526061.098 9 -13633645.58047  21135706.715    21135707.9724   21135715.1894
      3274.474        2551.538
 96 11 18 18 46 29.9930000  0  8 31 14  1 21 30 25 15 29            -0.006654768
   3761989.576 8   2939235.77245  23139245.973    23139246.6904   23139256.3334
     -1627.984       -1268.559
 -11076881.354 9  -8593203.60646  21905810.281    21905811.2884   21905819.6144
      3834.562        2987.970
   -354241.019 9   -268514.97548  20080700.554    20080701.3384   20080707.6804
     -1341.667       -1045.455
    796580.559 9    628805.52847  20619113.217    20619113.8264   20619120.9534
     -1369.768       -1067.352
  -7326161.804 9  -5468478.91146  22836718.280    22836719.1754   22836727.4354
      2079.741        1620.577
 -31363856.760 9 -24107100.00349  18819332.647    18819333.7694   18819339.9414
      1999.330        1557.919
 -31347254.000 9 -24412145.50748  18924041.583    18924042.3484   18924049.5384
      2225.045        1733.801
 -17624232.275 9 -13710142.56447  21117025.201    21117026.5434   21117033.7964
      3269.095        2547.347
 96 11 18 18 46 59.9930000  0  8 31 14  1 21 30 25 15 29            -0.006673486
   3810831.736 8   2977294.46145  23148540.137    23148541.1824   23148550.8134
     -1628.357       -1268.850
 -11191929.189 9  -8682851.22946  21883917.255    21883918.3254   21883926.6974
      3834.958        2988.279
   -313929.681 9   -237103.54948  20088371.434    20088372.2904   20088378.6954
     -1345.801       -1048.676
    837815.058 9    660936.26247  20626959.957    20626960.4954   20626967.6424
     -1379.239       -1074.732
  -7388344.654 9  -5516933.02046  22824885.136    22824886.1104   22824894.3554
      2065.499        1609.480
 -31423575.847 9 -24153634.34749  18807968.418    18807969.5634   18807975.7434
      1981.918        1544.352
 -31413709.345 9 -24463928.88148  18911395.556    18911396.3164   18911403.4754
      2205.166        1718.311
 -17722221.477 9 -13786497.74847  21098378.443    21098379.7914   21098387.0344
      3263.283        2542.818
 96 11 18 18 47 29.9930000  0  8 31 14  1 21 30 25 15 29            -0.006692202
   3859684.734 8   3015361.61445  23157836.530    23157837.7494   23157847.1344
     -1629.769       -1269.950
 -11306976.352 9  -8772498.33246  21862024.420    21862025.4394   21862033.9244
      3833.279        2986.971
   -273496.868 9   -205597.46548  20096065.330    20096066.2704   20096072.7874
     -1351.191       -1052.876
    879320.380 9    693278.04147  20634858.176    20634858.7684   20634865.8864
     -1389.106       -1082.420
  -7450089.397 9  -5565045.78045  22813135.293    22813136.4244   22813144.5554
      2049.615        1597.102
 -31482778.600 9 -24199766.35448  18796702.451    18796703.5824   18796709.7674
      1963.486        1529.989
 -31479567.920 9 -24515247.24148  18898863.135    18898863.8624   18898870.9884
      2184.019        1701.833
 -17820024.464 9 -13862707.82647  21079767.050    21079768.4664   21079775.7024
      3255.423        2536.693
 96 11 18 18 47 59.9930000  0  8 31 14  1 21 30 25 15 29            -0.006710896
   3908558.377 8   3053444.84245  23167136.630    23167138.1334   23167147.5074
     -1628.825       -1269.214
 -11421976.162 9  -8862108.51546  21840140.669    21840141.6124   21840150.1644
      3833.145        2986.866
   -232910.025 9   -173971.35848  20103788.486    20103789.5374   20103796.1704
     -1354.834       -1055.715
    921104.748 9    725837.25347  20642809.584    20642810.1364   20642817.2454
     -1396.726       -1088.358
  -7511377.372 9  -5612802.62045  22801472.587    22801473.6884   22801481.5134
      2036.020        1586.509
 -31541442.146 9 -24245478.20149  18785539.170    18785540.2424   18785546.4374
      1947.112        1517.230
 -31544803.688 9 -24566080.28948  18886449.163    18886449.9014   18886457.0314
      2164.770        1686.834
 -17917602.532 9 -13938742.64847  21061198.537    21061199.9704   21061207.1814
      3249.444        2532.034
 96 11 18 18 48 29.9930000  0  8 31 14  1 21 30 25 15 29            -0.006729577
   3957425.263 8   3091522.83745  23176436.080    23176437.4764   23176446.6314
     -1629.402       -1269.664
 -11536937.499 9  -8951688.72746  21818264.041    21818265.1304   21818273.7384
      3830.753        2985.002
   -192186.918 9   -142239.07648  20111537.716    20111538.7534   20111545.4474
     -1360.161       -1059.866
    963142.509 9    758593.91447  20650809.221    20650809.7484   20650816.8024
     -1406.236       -1095.768
  -7572226.232 9  -5660217.31745  22789893.669    22789894.5784   22789901.8234
      2020.143        1574.137
 -31599588.150 9 -24290786.76948  18774474.335    18774475.4344   18774481.6154
      1928.864        1503.011
 -31609433.017 9 -24616440.79748  18874150.573    18874151.3314   18874158.4724
      2143.508        1670.266
 -18014971.077 9 -14014614.20647  21042669.996    21042671.3184   21042678.5554
      3241.286        2525.677
 96 11 18 18 48 59.9930000  0  8 31 14  1 21 30 25 15 29            -0.006748266
   4006235.456 8   3129556.66145  23185724.380    23185725.8674   23185735.0154
     -1625.019       -1266.249
 -11651903.500 9  -9041272.56946  21796386.814    21796387.8704   21796396.3704
      3833.081        2986.816
   -151384.219 9   -110444.77448  20119302.146    20119303.1974   20119309.8864
     -1360.748       -1060.323
   1005399.080 9    791521.07147  20658850.383    20658850.9244   20658858.0014
     -1411.409       -1099.799
  -7632656.453 9  -5707305.81745  22778394.197    22778394.9284   22778401.9174
      2008.039        1564.706
 -31657246.822 9 -24335715.60148  18763502.298    18763503.3624   18763509.5214
      1914.354        1491.704
 -31673490.652 9 -24666355.82448  18861960.779    18861961.5784   18861968.6874
      2126.426        1656.955
 -18112146.806 9 -14090335.52247  21024178.078    21024179.3304   21024186.6054
      3236.396        2521.867
 96 11 18 18 49 29.9930000  0  8 31 14  1 21 30 25 15 29            -0.006766953
   4054974.601 8   3167535.13545  23194999.485    23195000.8074   23195010.0374
     -1622.582       -1264.350
 -11766862.516 9  -9130850.95847  21774510.892    21774511.9694   21774520.3894
      3832.737        2986.548
   -110480.128 9    -78571.46948  20127086.121    20127087.0344   20127093.6284
     -1364.371       -1063.146
   1047884.491 9    824626.55947  20666935.139    20666935.6374   20666942.7434
     -1419.303       -1105.950
  -7692654.365 9  -5754057.45845  22766976.743    22766977.7834   22766984.2854
      1993.640        1553.486
 -31714384.168 9 -24380238.20548  18752629.419    18752630.4744   18752636.6364
      1896.480        1477.777
 -31736959.541 9 -24715812.09048  18849883.062    18849883.8324   18849890.9554
      2106.557        1641.473
 -18209095.828 9 -14165880.17747  21005729.269    21005730.5254   21005737.7574
      3228.778        2515.931
 96 11 18 18 49 59.9930000  0  8 31 14  1 21 30 25 15 29            -0.006785652
   4103631.460 8   3205449.51045  23204258.701    23204260.1014   23204269.1734
     -1621.179       -1263.256
 -11881833.828 9  -9220438.94347  21752632.576    21752633.7244   21752642.0224
      3832.088        2986.043
    -69487.293 9    -46629.00648  20134886.979    20134887.8274   20134894.3174
     -1368.399       -1066.285
   1090606.820 9    857916.65747  20675064.994    20675065.4834   20675072.5614
     -1428.818       -1113.365
  -7752226.587 9  -5800477.40245  22755640.650    22755641.5754   22755647.8174
      1977.741        1541.097
 -31770991.212 9 -24424347.57848  18741857.451    18741858.5094   18741864.6664
      1877.366        1462.883
 -31799841.472 9 -24764810.98448  18837917.047    18837917.8014   18837924.9074
      2085.630        1625.166
 -18305840.829 9 -14241265.85047  20987319.324    20987320.5574   20987327.7774
      3221.101        2509.949
 96 11 18 18 50 29.9930000  0  8 31 14  1 21 30 25 15 29            -0.006804354
   4152231.383 8   3243319.50445  23213507.366    23213508.5054   23213517.7754
     -1618.116       -1260.870
 -11996793.707 9  -9310018.00947  21730756.448    21730757.5904   21730765.8554
      3832.647        2986.478
    -28390.458 9    -14605.52148  20142707.578    20142708.4564   20142714.8034
     -1370.686       -1068.067
   1133605.893 9    891422.37247  20683247.543    20683248.0084   20683255.0334
     -1437.118       -1119.832
  -7811324.894 9  -5846528.10645  22744394.846    22744395.6504   22744401.4024
      1962.954        1529.575
 -31827028.499 9 -24468012.99048  18731193.951    18731194.9524   18731201.1144
      1859.202        1448.729
 -31862107.306 9 -24813329.81048  18826068.248    18826069.0204   18826076.1174
      2066.128        1609.970
 -18402376.495 9 -14316488.41247  20968949.211    20968950.4514   20968957.6374
      3215.428        2505.528
 96 11 18 18 50 59.9930000  0  8 31 14  1 21 30 25 15 29            -0.006823064
   4200772.792 8   3281143.89945  23222744.582    23222745.5114   23222754.9714
     -1617.203       -1260.158
 -12111744.626 9  -9399590.07147  21708881.931    21708883.0774   21708891.3294
      3831.498        2985.583
     12805.379 9     17495.11348  20150547.120    20150547.9014   20150554.1294
     -1375.126       -1071.527
   1176885.455 9    925146.67347  20691483.435    20691483.8904   20691490.8504
     -1447.379       -1127.828
  -7869955.693 9  -5892214.51245  22733237.963    22733238.8574   22733244.0074
      1946.779        1516.971
 -31882488.943 9 -24511228.90348  18720640.180    18720641.1814   18720647.3164
      1839.064        1433.037
 -31923758.836 9 -24861369.95748  18814336.436    18814337.1544   18814344.2144
      2044.785        1593.339
 -18498716.400 9 -14391558.42847  20950616.441    20950617.6004   20950624.7174
      3208.060        2499.787
 96 11 18 18 51 29.9930000  0  8 31 14  1 21 30 25 15 29            -0.006841783
   4249247.603 8   3318916.37946  23231969.320    23231970.1284   23231979.5114
     -1614.860       -1258.332
 -12226687.259 9  -9489155.68447  21687008.893    21687010.1264   21687018.4004
      3831.040        2985.226
     54107.899 9     49678.88148  20158406.963    20158407.6154   20158413.8084
     -1378.517       -1074.169
   1220444.785 9    959088.98047  20699772.465    20699772.9374   20699779.9084
     -1456.885       -1135.235
  -7928151.601 9  -5937562.05845  22722163.708    22722164.5844   22722169.5134
      1932.630        1505.945
 -31937383.812 9 -24554004.11349  18710194.075    18710195.0654   18710201.1424
      1820.346        1418.451
 -31984808.109 9 -24908940.81148  18802719.120    18802719.8524   18802726.9284
      2024.865        1577.817
 -18594878.847 9 -14466490.17047  20932317.195    20932318.4354   20932325.5774
      3202.462        2495.425
 96 11 18 18 51 59.9930000  0  8 31 14  1 21 30 25 15 29            -0.006860516
   4297635.815 8   3356621.36245  23241177.545    23241178.0674   23241187.6034
     -1611.868       -1256.001
 -12341632.328 9  -9578723.19647  21665135.436    21665136.7794   21665144.9794
      3831.044        2985.229
     95488.664 9     81923.61648  20166281.472    20166282.1374   20166288.3914
     -1381.171       -1076.237
   1264268.418 9    993237.23047  20708111.905    20708112.3364   20708119.2784
     -1465.523       -1141.966
  -7985940.851 9  -5982592.70246  22711166.846    22711167.5864   22711172.5934
      1919.234        1495.507
 -31991734.266 9 -24596355.10649  18699851.491    18699852.4994   18699858.5634
      1802.288        1404.380
 -32045278.571 9 -24956060.65248  18791211.958    18791212.6944   18791219.7824
      2005.660        1562.852
 -18690885.637 9 -14541300.61447  20914047.608    20914048.9394   20914056.0504
      3197.072        2491.225
 96 11 18 18 52 29.9930000  0  8 31 14  1 21 30 25 15 29            -0.006879238
   4345948.183 8   3394267.25445  23250371.072    23250371.6384   23250381.3504
     -1609.390       -1254.070
 -12456544.031 9  -9668264.70347  21643268.495    21643269.7444   21643277.9344
      3829.465        2983.999
    136979.786 9    114254.34248  20174176.946    20174177.6304   20174183.9524
     -1385.266       -1079.428
   1308371.935 9   1027603.57147  20716504.527    20716504.9324   20716511.9074
     -1475.141       -1149.461
  -8043308.036 9  -6027294.46546  22700250.294    22700250.9924   22700256.0234
      1904.981        1484.401
 -32045521.953 9 -24638267.57149  18689616.061    18689617.0674   18689623.1144
      1783.398        1389.661
 -32105148.275 9 -25002712.36648  18779819.114    18779819.8554   18779826.9404
      1985.262        1546.957
 -18786694.964 9 -14615957.19347  20895815.752    20895817.0504   20895824.0984
      3189.734        2485.507
 96 11 18 18 52 59.9930000  0  8 31 14  1 21 30 25 15 29            -0.006897938
   4394172.338 8   3431844.41746  23259547.647    23259548.4294   23259558.3894
     -1606.316       -1251.675
 -12571434.065 9  -9757789.32947  21621405.695    21621406.8654   21621415.0464
      3828.969        2983.612
    178581.408 9    146671.17148  20182093.297    20182094.0854   20182100.5294
     -1389.054       -1082.380
   1352749.380 9   1062183.34947  20724949.290    20724949.6844   20724956.6454
     -1484.273       -1156.576
  -8100266.026 9  -6071677.35846  22689411.710    22689412.4374   22689417.3744
      1891.263        1473.711
 -32098767.290 9 -24679757.42749  18679483.834    18679484.8554   18679490.8514
      1765.356        1375.602
 -32164418.313 9 -25048896.81348  18768540.388    18768541.1344   18768548.2224
      1965.123        1531.265
 -18882281.179 9 -14690439.91847  20877626.307    20877627.6404   20877634.5944
      3181.742        2479.279
 96 11 18 18 53 29.9930000  0  8 31 14  1 21 30 25 15 29            -0.006916611
   4442299.388 8   3469345.84646  23268705.900    23268706.7744   23268716.8924
     -1602.596       -1248.776
 -12686302.966 9  -9847297.49547  21599546.736    21599548.0204   21599556.1634
      3828.900        2983.558
    220296.226 9    179176.20148  20190031.225    20190032.0634   20190038.6384
     -1391.899       -1084.597
   1397402.988 9   1096978.32147  20733446.570    20733447.0494   20733453.8874
     -1492.641       -1163.097
  -8156804.396 9  -6115733.24346  22678652.871    22678653.5234   22678658.5014
      1877.757        1463.187
 -32151467.141 9 -24720822.23149  18669455.391    18669456.4184   18669462.4054
      1747.859        1361.968
 -32223077.668 9 -25094605.40248  18757377.906    18757378.6354   18757385.7064
      1945.306        1515.823
 -18977623.563 9 -14764732.64147  20859483.333    20859484.5784   20859491.4884
      3174.351        2473.520
 96 11 18 18 53 59.9930000  0  8 31 14  1 21 30 25 15 29            -0.006935278
   4490319.611 8   3506764.06646  23277844.145    23277844.8104   23277854.9164
     -1599.062       -1246.022
 -12801180.477 9  -9936812.37347  21577686.301    21577687.5834   21577695.7014
      3829.575        2984.084
    262091.562 9    211743.97748  20197984.493    20197985.3754   20197992.0574
     -1394.580       -1086.686
   1442301.748 9   1131964.31647  20741990.556    20741990.9684   20741997.8144
     -1500.775       -1169.435
  -8212934.728 9  -6159471.14646  22667971.609    22667972.3444   22667977.1604
      1864.209        1452.630
 -32203646.135 9 -24761481.16449  18659526.061    18659527.0744   18659533.0684
      1730.742        1348.630
 -32281139.696 9 -25139848.53748  18746329.132    18746329.8214   18746336.8504
      1925.398        1500.310
 -19072744.480 9 -14838852.79247  20841382.398    20841383.6244   20841390.5164
      3167.053        2467.834
 96 11 18 18 54 29.9930000  0  8 31 14  1 21 30 25 15 29            -0.006953940
   4538244.337 8   3544107.85946  23286964.392    23286964.5894   23286974.8354
     -1595.724       -1243.421
 -12916080.476 9 -10026344.79147  21555821.583    21555822.7604   21555830.8954
      3830.695        2984.957
    303973.829 9    244379.48848  20205954.378    20205955.2424   20205961.9864
     -1397.315       -1088.817
   1487453.202 9   1167147.22247  20750582.611    20750583.0254   20750589.8914
     -1509.089       -1175.914
  -8268658.355 9  -6202892.13846  22657367.959    22657368.4884   22657373.4254
      1850.829        1442.204
 -32255319.919 9 -24801746.43049  18649692.869    18649693.8614   18649699.8714
      1714.326        1335.838
 -32338600.268 9 -25184623.00648  18735394.807    18735395.4494   18735402.4434
      1905.497        1484.803
 -19167652.492 9 -14912807.03847  20823321.900    20823323.1754   20823330.0874
      3160.520        2462.743
 96 11 18 18 54 59.9930000  0  8 31 14  1 21 30 25 15 29            -0.006972602
   4586078.196 8   3581380.84046  23296067.010    23296067.3494   23296077.4724
     -1592.962       -1241.269
 -13031010.275 9 -10115900.42947  21533951.182    21533952.2724   21533960.4264
      3831.537        2985.613
    345949.314 9    277087.64048  20213942.112    20213942.8784   20213949.6624
     -1400.625       -1091.396
   1532862.641 9   1202531.15847  20759223.833    20759224.1704   20759231.1234
     -1517.884       -1182.767
  -8323962.969 9  -6245986.60946  22646843.759    22646844.4064   22646849.4654
      1836.336        1430.911
 -32306485.501 9 -24841615.69949  18639956.342    18639957.3424   18639963.4104
      1696.928        1322.282
 -32395455.817 9 -25228926.03248  18724575.595    18724576.2084   18724583.1534
      1885.145        1468.944
 -19262366.709 9 -14986610.28547  20805298.341    20805299.6554   20805306.5634
      3154.257        2457.863
 96 11 18 18 55 29.9930000  0  7 14  1 21 30 25 15 29               -0.006991292
 -13145982.903 9 -10205489.43547  21512072.588    21512073.6194   21512081.7414
      3833.315        2986.999
    387997.868 9    309852.72348  20221943.739    20221944.4394   20221951.2514
     -1402.477       -1092.839
   1578515.656 9   1238104.89047  20767911.338    20767911.7014   20767918.6844
     -1525.484       -1188.689
  -8378849.049 9  -6288754.94646  22636399.329    22636399.9764   22636405.2464
      1822.739        1420.316
 -32357140.141 9 -24881086.82649  18630316.993    18630318.0234   18630324.1344
      1680.254        1309.289
 -32451720.543 9 -25272768.67248  18713868.765    18713869.3954   18713876.2974
      1865.932        1453.973
 -19356927.390 9 -15060293.88947  20787304.034    20787305.3204   20787312.2434
      3149.849        2454.428
